<?xml version="1.0" encoding="UTF-8" standalone="no" ?>
<gpx xmlns="http://www.topografix.com/GPX/1/1" xmlns:xsi="http://www.w3.org/2001/XMLSchema-instance" xsi:schemaLocation="http://www.topografix.com/GPX/1/1 http://www.topografix.com/GPX/1/1/gpx.xsd" version="1.1" creator="VisuGPX - https://www.visugpx.com">
  <metadata>
    <name>Circuit Château de Berne aux Templiers</name>
    <desc><![CDATA[Longue balade de 19 km sous un beau soleil mais température
 assez froide]]></desc>
  </metadata>
  <trk>
    <name><![CDATA[Les Templiers 9dc2012]]></name>
    <trkseg>
      <trkpt lat="43.51308" lon="6.36249">
        <ele>250.560791</ele>
        <time>2012-12-09T08:42:58Z</time>
      </trkpt>
      <trkpt lat="43.51319" lon="6.36259">
        <ele>258.731934</ele>
        <time>2012-12-09T08:43:57Z</time>
      </trkpt>
      <trkpt lat="43.51319" lon="6.3626">
        <ele>258.251343</ele>
        <time>2012-12-09T08:44:25Z</time>
      </trkpt>
      <trkpt lat="43.51319" lon="6.3626">
        <ele>258.251343</ele>
        <time>2012-12-09T08:44:39Z</time>
      </trkpt>
      <trkpt lat="43.51318" lon="6.36261">
        <ele>255.36731</ele>
        <time>2012-12-09T08:45:47Z</time>
      </trkpt>
      <trkpt lat="43.51319" lon="6.36263">
        <ele>254.406006</ele>
        <time>2012-12-09T08:48:17Z</time>
      </trkpt>
      <trkpt lat="43.51322" lon="6.36269">
        <ele>253.925415</ele>
        <time>2012-12-09T08:48:32Z</time>
      </trkpt>
      <trkpt lat="43.51317" lon="6.3627">
        <ele>253.444702</ele>
        <time>2012-12-09T08:48:39Z</time>
      </trkpt>
      <trkpt lat="43.51314" lon="6.36268">
        <ele>252.963989</ele>
        <time>2012-12-09T08:48:49Z</time>
      </trkpt>
      <trkpt lat="43.51309" lon="6.36252">
        <ele>251.041382</ele>
        <time>2012-12-09T08:49:02Z</time>
      </trkpt>
      <trkpt lat="43.51307" lon="6.36238">
        <ele>250.560791</ele>
        <time>2012-12-09T08:49:13Z</time>
      </trkpt>
      <trkpt lat="43.51306" lon="6.36225">
        <ele>251.522095</ele>
        <time>2012-12-09T08:49:29Z</time>
      </trkpt>
      <trkpt lat="43.51304" lon="6.36218">
        <ele>252.483398</ele>
        <time>2012-12-09T08:49:35Z</time>
      </trkpt>
      <trkpt lat="43.51301" lon="6.36194">
        <ele>253.444702</ele>
        <time>2012-12-09T08:49:55Z</time>
      </trkpt>
      <trkpt lat="43.51303" lon="6.36169">
        <ele>254.886597</ele>
        <time>2012-12-09T08:50:12Z</time>
      </trkpt>
      <trkpt lat="43.51299" lon="6.36152">
        <ele>255.848022</ele>
        <time>2012-12-09T08:50:22Z</time>
      </trkpt>
      <trkpt lat="43.51298" lon="6.36133">
        <ele>256.328735</ele>
        <time>2012-12-09T08:50:34Z</time>
      </trkpt>
      <trkpt lat="43.51306" lon="6.36116">
        <ele>255.36731</ele>
        <time>2012-12-09T08:50:50Z</time>
      </trkpt>
      <trkpt lat="43.51305" lon="6.36112">
        <ele>255.848022</ele>
        <time>2012-12-09T08:50:52Z</time>
      </trkpt>
      <trkpt lat="43.51304" lon="6.36106">
        <ele>255.848022</ele>
        <time>2012-12-09T08:50:55Z</time>
      </trkpt>
      <trkpt lat="43.51303" lon="6.36102">
        <ele>255.848022</ele>
        <time>2012-12-09T08:50:57Z</time>
      </trkpt>
      <trkpt lat="43.51304" lon="6.36099">
        <ele>255.36731</ele>
        <time>2012-12-09T08:50:59Z</time>
      </trkpt>
      <trkpt lat="43.51305" lon="6.36093">
        <ele>254.886597</ele>
        <time>2012-12-09T08:51:02Z</time>
      </trkpt>
      <trkpt lat="43.51302" lon="6.36078">
        <ele>252.483398</ele>
        <time>2012-12-09T08:51:10Z</time>
      </trkpt>
      <trkpt lat="43.51301" lon="6.36062">
        <ele>250.0802</ele>
        <time>2012-12-09T08:51:25Z</time>
      </trkpt>
      <trkpt lat="43.51294" lon="6.36033">
        <ele>246.715454</ele>
        <time>2012-12-09T08:51:42Z</time>
      </trkpt>
      <trkpt lat="43.51291" lon="6.36015">
        <ele>247.196045</ele>
        <time>2012-12-09T08:51:54Z</time>
      </trkpt>
      <trkpt lat="43.5128" lon="6.35999">
        <ele>244.792847</ele>
        <time>2012-12-09T08:52:09Z</time>
      </trkpt>
      <trkpt lat="43.51272" lon="6.35987">
        <ele>246.715454</ele>
        <time>2012-12-09T08:52:19Z</time>
      </trkpt>
      <trkpt lat="43.51274" lon="6.35981">
        <ele>246.715454</ele>
        <time>2012-12-09T08:52:23Z</time>
      </trkpt>
      <trkpt lat="43.51277" lon="6.35965">
        <ele>249.118774</ele>
        <time>2012-12-09T08:52:37Z</time>
      </trkpt>
      <trkpt lat="43.51283" lon="6.35952">
        <ele>250.0802</ele>
        <time>2012-12-09T08:52:50Z</time>
      </trkpt>
      <trkpt lat="43.51283" lon="6.35951">
        <ele>250.0802</ele>
        <time>2012-12-09T08:52:51Z</time>
      </trkpt>
      <trkpt lat="43.51285" lon="6.35934">
        <ele>253.444702</ele>
        <time>2012-12-09T08:53:02Z</time>
      </trkpt>
      <trkpt lat="43.51285" lon="6.35919">
        <ele>257.290039</ele>
        <time>2012-12-09T08:53:13Z</time>
      </trkpt>
      <trkpt lat="43.51285" lon="6.35908">
        <ele>260.17395</ele>
        <time>2012-12-09T08:53:19Z</time>
      </trkpt>
      <trkpt lat="43.51287" lon="6.359">
        <ele>261.615967</ele>
        <time>2012-12-09T08:53:26Z</time>
      </trkpt>
      <trkpt lat="43.51292" lon="6.35879">
        <ele>261.615967</ele>
        <time>2012-12-09T08:53:39Z</time>
      </trkpt>
      <trkpt lat="43.51294" lon="6.35871">
        <ele>260.17395</ele>
        <time>2012-12-09T08:53:45Z</time>
      </trkpt>
      <trkpt lat="43.51292" lon="6.35866">
        <ele>260.654541</ele>
        <time>2012-12-09T08:53:49Z</time>
      </trkpt>
      <trkpt lat="43.5129" lon="6.35848">
        <ele>259.212646</ele>
        <time>2012-12-09T08:54:04Z</time>
      </trkpt>
      <trkpt lat="43.5129" lon="6.35837">
        <ele>258.251343</ele>
        <time>2012-12-09T08:54:13Z</time>
      </trkpt>
      <trkpt lat="43.51291" lon="6.35833">
        <ele>257.770752</ele>
        <time>2012-12-09T08:54:17Z</time>
      </trkpt>
      <trkpt lat="43.51287" lon="6.35828">
        <ele>257.290039</ele>
        <time>2012-12-09T08:54:20Z</time>
      </trkpt>
      <trkpt lat="43.5129" lon="6.35814">
        <ele>257.290039</ele>
        <time>2012-12-09T08:54:29Z</time>
      </trkpt>
      <trkpt lat="43.51291" lon="6.35794">
        <ele>255.848022</ele>
        <time>2012-12-09T08:54:43Z</time>
      </trkpt>
      <trkpt lat="43.5129" lon="6.35776">
        <ele>254.886597</ele>
        <time>2012-12-09T08:54:59Z</time>
      </trkpt>
      <trkpt lat="43.51293" lon="6.35763">
        <ele>255.36731</ele>
        <time>2012-12-09T08:55:11Z</time>
      </trkpt>
      <trkpt lat="43.51291" lon="6.35755">
        <ele>255.848022</ele>
        <time>2012-12-09T08:55:16Z</time>
      </trkpt>
      <trkpt lat="43.51295" lon="6.35738">
        <ele>255.848022</ele>
        <time>2012-12-09T08:55:28Z</time>
      </trkpt>
      <trkpt lat="43.51294" lon="6.35732">
        <ele>258.731934</ele>
        <time>2012-12-09T08:55:40Z</time>
      </trkpt>
      <trkpt lat="43.51294" lon="6.35729">
        <ele>258.731934</ele>
        <time>2012-12-09T08:56:13Z</time>
      </trkpt>
      <trkpt lat="43.51296" lon="6.35724">
        <ele>259.693359</ele>
        <time>2012-12-09T08:56:17Z</time>
      </trkpt>
      <trkpt lat="43.51296" lon="6.35705">
        <ele>256.809326</ele>
        <time>2012-12-09T08:56:29Z</time>
      </trkpt>
      <trkpt lat="43.51297" lon="6.35698">
        <ele>254.886597</ele>
        <time>2012-12-09T08:56:34Z</time>
      </trkpt>
      <trkpt lat="43.51298" lon="6.35688">
        <ele>256.328735</ele>
        <time>2012-12-09T08:56:42Z</time>
      </trkpt>
      <trkpt lat="43.51299" lon="6.35683">
        <ele>256.809326</ele>
        <time>2012-12-09T08:56:46Z</time>
      </trkpt>
      <trkpt lat="43.513" lon="6.35681">
        <ele>256.328735</ele>
        <time>2012-12-09T08:56:48Z</time>
      </trkpt>
      <trkpt lat="43.51303" lon="6.35664">
        <ele>253.444702</ele>
        <time>2012-12-09T08:57:02Z</time>
      </trkpt>
      <trkpt lat="43.513" lon="6.35658">
        <ele>253.444702</ele>
        <time>2012-12-09T08:57:05Z</time>
      </trkpt>
      <trkpt lat="43.513" lon="6.35652">
        <ele>252.963989</ele>
        <time>2012-12-09T08:57:09Z</time>
      </trkpt>
      <trkpt lat="43.51301" lon="6.35639">
        <ele>251.522095</ele>
        <time>2012-12-09T08:57:19Z</time>
      </trkpt>
      <trkpt lat="43.51301" lon="6.35628">
        <ele>251.041382</ele>
        <time>2012-12-09T08:57:24Z</time>
      </trkpt>
      <trkpt lat="43.51293" lon="6.35612">
        <ele>253.444702</ele>
        <time>2012-12-09T08:57:31Z</time>
      </trkpt>
      <trkpt lat="43.51289" lon="6.35602">
        <ele>253.925415</ele>
        <time>2012-12-09T08:57:40Z</time>
      </trkpt>
      <trkpt lat="43.51287" lon="6.35599">
        <ele>253.444702</ele>
        <time>2012-12-09T08:57:42Z</time>
      </trkpt>
      <trkpt lat="43.51286" lon="6.35592">
        <ele>252.963989</ele>
        <time>2012-12-09T08:57:50Z</time>
      </trkpt>
      <trkpt lat="43.5128" lon="6.35578">
        <ele>252.963989</ele>
        <time>2012-12-09T08:58:04Z</time>
      </trkpt>
      <trkpt lat="43.51277" lon="6.35572">
        <ele>252.483398</ele>
        <time>2012-12-09T08:58:07Z</time>
      </trkpt>
      <trkpt lat="43.51271" lon="6.35554">
        <ele>253.444702</ele>
        <time>2012-12-09T08:58:19Z</time>
      </trkpt>
      <trkpt lat="43.51265" lon="6.35534">
        <ele>253.444702</ele>
        <time>2012-12-09T08:58:32Z</time>
      </trkpt>
      <trkpt lat="43.51266" lon="6.35528">
        <ele>253.444702</ele>
        <time>2012-12-09T08:58:36Z</time>
      </trkpt>
      <trkpt lat="43.51267" lon="6.35517">
        <ele>253.925415</ele>
        <time>2012-12-09T08:58:46Z</time>
      </trkpt>
      <trkpt lat="43.51278" lon="6.35508">
        <ele>253.925415</ele>
        <time>2012-12-09T08:58:56Z</time>
      </trkpt>
      <trkpt lat="43.51277" lon="6.35503">
        <ele>253.925415</ele>
        <time>2012-12-09T08:58:59Z</time>
      </trkpt>
      <trkpt lat="43.51275" lon="6.35489">
        <ele>254.406006</ele>
        <time>2012-12-09T08:59:06Z</time>
      </trkpt>
      <trkpt lat="43.51268" lon="6.35482">
        <ele>258.251343</ele>
        <time>2012-12-09T08:59:09Z</time>
      </trkpt>
      <trkpt lat="43.51267" lon="6.35475">
        <ele>259.693359</ele>
        <time>2012-12-09T08:59:13Z</time>
      </trkpt>
      <trkpt lat="43.51272" lon="6.35459">
        <ele>260.654541</ele>
        <time>2012-12-09T08:59:24Z</time>
      </trkpt>
      <trkpt lat="43.51276" lon="6.35454">
        <ele>259.693359</ele>
        <time>2012-12-09T08:59:28Z</time>
      </trkpt>
      <trkpt lat="43.51274" lon="6.35449">
        <ele>259.212646</ele>
        <time>2012-12-09T08:59:31Z</time>
      </trkpt>
      <trkpt lat="43.51278" lon="6.35435">
        <ele>258.731934</ele>
        <time>2012-12-09T08:59:42Z</time>
      </trkpt>
      <trkpt lat="43.51282" lon="6.35422">
        <ele>258.251343</ele>
        <time>2012-12-09T08:59:50Z</time>
      </trkpt>
      <trkpt lat="43.5129" lon="6.35403">
        <ele>257.290039</ele>
        <time>2012-12-09T09:00:04Z</time>
      </trkpt>
      <trkpt lat="43.51294" lon="6.35382">
        <ele>258.731934</ele>
        <time>2012-12-09T09:00:18Z</time>
      </trkpt>
      <trkpt lat="43.51295" lon="6.3538">
        <ele>258.731934</ele>
        <time>2012-12-09T09:00:20Z</time>
      </trkpt>
      <trkpt lat="43.51298" lon="6.35372">
        <ele>259.693359</ele>
        <time>2012-12-09T09:00:26Z</time>
      </trkpt>
      <trkpt lat="43.513" lon="6.35365">
        <ele>257.290039</ele>
        <time>2012-12-09T09:00:32Z</time>
      </trkpt>
      <trkpt lat="43.51302" lon="6.35362">
        <ele>257.290039</ele>
        <time>2012-12-09T09:00:35Z</time>
      </trkpt>
      <trkpt lat="43.51307" lon="6.35361">
        <ele>256.809326</ele>
        <time>2012-12-09T09:00:37Z</time>
      </trkpt>
      <trkpt lat="43.51307" lon="6.35342">
        <ele>257.770752</ele>
        <time>2012-12-09T09:00:48Z</time>
      </trkpt>
      <trkpt lat="43.51308" lon="6.35333">
        <ele>256.328735</ele>
        <time>2012-12-09T09:00:54Z</time>
      </trkpt>
      <trkpt lat="43.51303" lon="6.35318">
        <ele>259.212646</ele>
        <time>2012-12-09T09:00:59Z</time>
      </trkpt>
      <trkpt lat="43.51304" lon="6.35308">
        <ele>259.693359</ele>
        <time>2012-12-09T09:01:10Z</time>
      </trkpt>
      <trkpt lat="43.51311" lon="6.35292">
        <ele>256.328735</ele>
        <time>2012-12-09T09:01:26Z</time>
      </trkpt>
      <trkpt lat="43.51311" lon="6.35291">
        <ele>255.848022</ele>
        <time>2012-12-09T09:01:27Z</time>
      </trkpt>
      <trkpt lat="43.5131" lon="6.35283">
        <ele>253.925415</ele>
        <time>2012-12-09T09:01:32Z</time>
      </trkpt>
      <trkpt lat="43.51313" lon="6.35257">
        <ele>257.290039</ele>
        <time>2012-12-09T09:01:47Z</time>
      </trkpt>
      <trkpt lat="43.51313" lon="6.35247">
        <ele>257.770752</ele>
        <time>2012-12-09T09:01:51Z</time>
      </trkpt>
      <trkpt lat="43.51312" lon="6.3524">
        <ele>257.770752</ele>
        <time>2012-12-09T09:01:53Z</time>
      </trkpt>
      <trkpt lat="43.51314" lon="6.35238">
        <ele>258.251343</ele>
        <time>2012-12-09T09:01:55Z</time>
      </trkpt>
      <trkpt lat="43.51313" lon="6.35234">
        <ele>258.731934</ele>
        <time>2012-12-09T09:01:57Z</time>
      </trkpt>
      <trkpt lat="43.51315" lon="6.35231">
        <ele>259.693359</ele>
        <time>2012-12-09T09:02:00Z</time>
      </trkpt>
      <trkpt lat="43.51316" lon="6.35227">
        <ele>257.770752</ele>
        <time>2012-12-09T09:02:03Z</time>
      </trkpt>
      <trkpt lat="43.51325" lon="6.35212">
        <ele>254.886597</ele>
        <time>2012-12-09T09:02:16Z</time>
      </trkpt>
      <trkpt lat="43.51331" lon="6.35196">
        <ele>255.848022</ele>
        <time>2012-12-09T09:02:27Z</time>
      </trkpt>
      <trkpt lat="43.51335" lon="6.35193">
        <ele>255.36731</ele>
        <time>2012-12-09T09:02:40Z</time>
      </trkpt>
      <trkpt lat="43.51336" lon="6.35191">
        <ele>254.886597</ele>
        <time>2012-12-09T09:02:42Z</time>
      </trkpt>
      <trkpt lat="43.51335" lon="6.35177">
        <ele>254.406006</ele>
        <time>2012-12-09T09:02:52Z</time>
      </trkpt>
      <trkpt lat="43.51338" lon="6.35171">
        <ele>254.406006</ele>
        <time>2012-12-09T09:02:56Z</time>
      </trkpt>
      <trkpt lat="43.51343" lon="6.35163">
        <ele>254.886597</ele>
        <time>2012-12-09T09:03:02Z</time>
      </trkpt>
      <trkpt lat="43.51347" lon="6.35159">
        <ele>254.886597</ele>
        <time>2012-12-09T09:03:09Z</time>
      </trkpt>
      <trkpt lat="43.51351" lon="6.35146">
        <ele>254.886597</ele>
        <time>2012-12-09T09:03:17Z</time>
      </trkpt>
      <trkpt lat="43.51356" lon="6.35131">
        <ele>253.925415</ele>
        <time>2012-12-09T09:03:28Z</time>
      </trkpt>
      <trkpt lat="43.51356" lon="6.35128">
        <ele>253.925415</ele>
        <time>2012-12-09T09:03:30Z</time>
      </trkpt>
      <trkpt lat="43.51356" lon="6.35115">
        <ele>254.886597</ele>
        <time>2012-12-09T09:03:33Z</time>
      </trkpt>
      <trkpt lat="43.5136" lon="6.35101">
        <ele>254.886597</ele>
        <time>2012-12-09T09:03:41Z</time>
      </trkpt>
      <trkpt lat="43.5136" lon="6.35088">
        <ele>253.925415</ele>
        <time>2012-12-09T09:03:48Z</time>
      </trkpt>
      <trkpt lat="43.51364" lon="6.35069">
        <ele>255.848022</ele>
        <time>2012-12-09T09:04:02Z</time>
      </trkpt>
      <trkpt lat="43.51364" lon="6.3506">
        <ele>256.809326</ele>
        <time>2012-12-09T09:04:06Z</time>
      </trkpt>
      <trkpt lat="43.51362" lon="6.3505">
        <ele>259.212646</ele>
        <time>2012-12-09T09:04:12Z</time>
      </trkpt>
      <trkpt lat="43.51366" lon="6.35039">
        <ele>261.135254</ele>
        <time>2012-12-09T09:04:20Z</time>
      </trkpt>
      <trkpt lat="43.51368" lon="6.35037">
        <ele>261.135254</ele>
        <time>2012-12-09T09:04:22Z</time>
      </trkpt>
      <trkpt lat="43.5137" lon="6.35034">
        <ele>261.615967</ele>
        <time>2012-12-09T09:04:26Z</time>
      </trkpt>
      <trkpt lat="43.51378" lon="6.3503">
        <ele>263.538574</ele>
        <time>2012-12-09T09:04:31Z</time>
      </trkpt>
      <trkpt lat="43.5138" lon="6.35024">
        <ele>262.577148</ele>
        <time>2012-12-09T09:04:36Z</time>
      </trkpt>
      <trkpt lat="43.5138" lon="6.35021">
        <ele>262.096558</ele>
        <time>2012-12-09T09:04:38Z</time>
      </trkpt>
      <trkpt lat="43.5138" lon="6.35018">
        <ele>262.096558</ele>
        <time>2012-12-09T09:04:41Z</time>
      </trkpt>
      <trkpt lat="43.51376" lon="6.34997">
        <ele>263.057861</ele>
        <time>2012-12-09T09:04:55Z</time>
      </trkpt>
      <trkpt lat="43.51376" lon="6.34991">
        <ele>263.538574</ele>
        <time>2012-12-09T09:04:59Z</time>
      </trkpt>
      <trkpt lat="43.51374" lon="6.34987">
        <ele>263.538574</ele>
        <time>2012-12-09T09:05:01Z</time>
      </trkpt>
      <trkpt lat="43.51376" lon="6.34978">
        <ele>264.499878</ele>
        <time>2012-12-09T09:05:09Z</time>
      </trkpt>
      <trkpt lat="43.51373" lon="6.34959">
        <ele>264.499878</ele>
        <time>2012-12-09T09:05:25Z</time>
      </trkpt>
      <trkpt lat="43.5137" lon="6.3494">
        <ele>264.019287</ele>
        <time>2012-12-09T09:05:40Z</time>
      </trkpt>
      <trkpt lat="43.5137" lon="6.34933">
        <ele>263.538574</ele>
        <time>2012-12-09T09:05:45Z</time>
      </trkpt>
      <trkpt lat="43.51369" lon="6.34922">
        <ele>262.577148</ele>
        <time>2012-12-09T09:05:53Z</time>
      </trkpt>
      <trkpt lat="43.51373" lon="6.3492">
        <ele>262.577148</ele>
        <time>2012-12-09T09:05:56Z</time>
      </trkpt>
      <trkpt lat="43.51375" lon="6.34907">
        <ele>262.096558</ele>
        <time>2012-12-09T09:06:06Z</time>
      </trkpt>
      <trkpt lat="43.51369" lon="6.34897">
        <ele>262.577148</ele>
        <time>2012-12-09T09:06:10Z</time>
      </trkpt>
      <trkpt lat="43.51352" lon="6.34877">
        <ele>262.577148</ele>
        <time>2012-12-09T09:06:27Z</time>
      </trkpt>
      <trkpt lat="43.51342" lon="6.3486">
        <ele>262.096558</ele>
        <time>2012-12-09T09:06:39Z</time>
      </trkpt>
      <trkpt lat="43.51334" lon="6.34845">
        <ele>264.019287</ele>
        <time>2012-12-09T09:06:51Z</time>
      </trkpt>
      <trkpt lat="43.51334" lon="6.34844">
        <ele>264.499878</ele>
        <time>2012-12-09T09:06:52Z</time>
      </trkpt>
      <trkpt lat="43.51325" lon="6.34826">
        <ele>262.096558</ele>
        <time>2012-12-09T09:07:06Z</time>
      </trkpt>
      <trkpt lat="43.51327" lon="6.34821">
        <ele>261.135254</ele>
        <time>2012-12-09T09:07:12Z</time>
      </trkpt>
      <trkpt lat="43.51325" lon="6.34807">
        <ele>261.135254</ele>
        <time>2012-12-09T09:07:21Z</time>
      </trkpt>
      <trkpt lat="43.51309" lon="6.34782">
        <ele>263.538574</ele>
        <time>2012-12-09T09:07:37Z</time>
      </trkpt>
      <trkpt lat="43.51309" lon="6.34774">
        <ele>264.980591</ele>
        <time>2012-12-09T09:07:48Z</time>
      </trkpt>
      <trkpt lat="43.51297" lon="6.34759">
        <ele>266.903198</ele>
        <time>2012-12-09T09:08:01Z</time>
      </trkpt>
      <trkpt lat="43.51286" lon="6.34744">
        <ele>268.345093</ele>
        <time>2012-12-09T09:08:37Z</time>
      </trkpt>
      <trkpt lat="43.51294" lon="6.34727">
        <ele>269.306519</ele>
        <time>2012-12-09T09:09:02Z</time>
      </trkpt>
      <trkpt lat="43.51306" lon="6.3472">
        <ele>269.787109</ele>
        <time>2012-12-09T09:09:21Z</time>
      </trkpt>
      <trkpt lat="43.51301" lon="6.34717">
        <ele>269.787109</ele>
        <time>2012-12-09T09:09:38Z</time>
      </trkpt>
      <trkpt lat="43.51294" lon="6.34719">
        <ele>269.306519</ele>
        <time>2012-12-09T09:10:02Z</time>
      </trkpt>
      <trkpt lat="43.51288" lon="6.34721">
        <ele>268.345093</ele>
        <time>2012-12-09T09:10:26Z</time>
      </trkpt>
      <trkpt lat="43.51287" lon="6.34723">
        <ele>267.864502</ele>
        <time>2012-12-09T09:10:49Z</time>
      </trkpt>
      <trkpt lat="43.51288" lon="6.34725">
        <ele>268.825806</ele>
        <time>2012-12-09T09:13:05Z</time>
      </trkpt>
      <trkpt lat="43.51304" lon="6.34721">
        <ele>273.151855</ele>
        <time>2012-12-09T09:13:19Z</time>
      </trkpt>
      <trkpt lat="43.51308" lon="6.34722">
        <ele>276.035645</ele>
        <time>2012-12-09T09:13:23Z</time>
      </trkpt>
      <trkpt lat="43.51316" lon="6.34717">
        <ele>279.400269</ele>
        <time>2012-12-09T09:13:33Z</time>
      </trkpt>
      <trkpt lat="43.51318" lon="6.34709">
        <ele>277.958252</ele>
        <time>2012-12-09T09:13:42Z</time>
      </trkpt>
      <trkpt lat="43.51318" lon="6.34698">
        <ele>278.438965</ele>
        <time>2012-12-09T09:13:52Z</time>
      </trkpt>
      <trkpt lat="43.51319" lon="6.34693">
        <ele>278.919678</ele>
        <time>2012-12-09T09:13:57Z</time>
      </trkpt>
      <trkpt lat="43.51321" lon="6.34677">
        <ele>279.400269</ele>
        <time>2012-12-09T09:14:13Z</time>
      </trkpt>
      <trkpt lat="43.51321" lon="6.34676">
        <ele>279.400269</ele>
        <time>2012-12-09T09:14:14Z</time>
      </trkpt>
      <trkpt lat="43.51321" lon="6.34669">
        <ele>280.361694</ele>
        <time>2012-12-09T09:14:18Z</time>
      </trkpt>
      <trkpt lat="43.51323" lon="6.34661">
        <ele>281.322998</ele>
        <time>2012-12-09T09:14:24Z</time>
      </trkpt>
      <trkpt lat="43.51333" lon="6.3465">
        <ele>282.284302</ele>
        <time>2012-12-09T09:14:34Z</time>
      </trkpt>
      <trkpt lat="43.51335" lon="6.34648">
        <ele>282.284302</ele>
        <time>2012-12-09T09:14:36Z</time>
      </trkpt>
      <trkpt lat="43.51337" lon="6.34646">
        <ele>281.803589</ele>
        <time>2012-12-09T09:14:38Z</time>
      </trkpt>
      <trkpt lat="43.51337" lon="6.3464">
        <ele>280.842407</ele>
        <time>2012-12-09T09:14:41Z</time>
      </trkpt>
      <trkpt lat="43.51337" lon="6.34631">
        <ele>281.322998</ele>
        <time>2012-12-09T09:14:48Z</time>
      </trkpt>
      <trkpt lat="43.51341" lon="6.3462">
        <ele>282.284302</ele>
        <time>2012-12-09T09:14:56Z</time>
      </trkpt>
      <trkpt lat="43.51342" lon="6.34617">
        <ele>282.284302</ele>
        <time>2012-12-09T09:14:59Z</time>
      </trkpt>
      <trkpt lat="43.51344" lon="6.34614">
        <ele>282.284302</ele>
        <time>2012-12-09T09:15:01Z</time>
      </trkpt>
      <trkpt lat="43.51343" lon="6.34611">
        <ele>282.284302</ele>
        <time>2012-12-09T09:15:03Z</time>
      </trkpt>
      <trkpt lat="43.51348" lon="6.34592">
        <ele>285.168213</ele>
        <time>2012-12-09T09:15:16Z</time>
      </trkpt>
      <trkpt lat="43.51348" lon="6.34588">
        <ele>285.168213</ele>
        <time>2012-12-09T09:15:18Z</time>
      </trkpt>
      <trkpt lat="43.5135" lon="6.34579">
        <ele>285.648804</ele>
        <time>2012-12-09T09:15:25Z</time>
      </trkpt>
      <trkpt lat="43.51354" lon="6.34564">
        <ele>283.245605</ele>
        <time>2012-12-09T09:15:38Z</time>
      </trkpt>
      <trkpt lat="43.51355" lon="6.34558">
        <ele>282.284302</ele>
        <time>2012-12-09T09:15:42Z</time>
      </trkpt>
      <trkpt lat="43.51363" lon="6.34543">
        <ele>281.803589</ele>
        <time>2012-12-09T09:15:56Z</time>
      </trkpt>
      <trkpt lat="43.51367" lon="6.34528">
        <ele>280.842407</ele>
        <time>2012-12-09T09:16:07Z</time>
      </trkpt>
      <trkpt lat="43.5137" lon="6.34504">
        <ele>280.361694</ele>
        <time>2012-12-09T09:16:21Z</time>
      </trkpt>
      <trkpt lat="43.51371" lon="6.34499">
        <ele>279.400269</ele>
        <time>2012-12-09T09:16:24Z</time>
      </trkpt>
      <trkpt lat="43.51377" lon="6.34484">
        <ele>276.99707</ele>
        <time>2012-12-09T09:16:37Z</time>
      </trkpt>
      <trkpt lat="43.51382" lon="6.34467">
        <ele>276.035645</ele>
        <time>2012-12-09T09:16:53Z</time>
      </trkpt>
      <trkpt lat="43.514" lon="6.34444">
        <ele>276.99707</ele>
        <time>2012-12-09T09:17:11Z</time>
      </trkpt>
      <trkpt lat="43.51402" lon="6.34429">
        <ele>280.361694</ele>
        <time>2012-12-09T09:17:21Z</time>
      </trkpt>
      <trkpt lat="43.51402" lon="6.34427">
        <ele>280.842407</ele>
        <time>2012-12-09T09:17:23Z</time>
      </trkpt>
      <trkpt lat="43.5141" lon="6.34409">
        <ele>285.648804</ele>
        <time>2012-12-09T09:17:37Z</time>
      </trkpt>
      <trkpt lat="43.51412" lon="6.34406">
        <ele>286.129517</ele>
        <time>2012-12-09T09:17:39Z</time>
      </trkpt>
      <trkpt lat="43.51416" lon="6.344">
        <ele>287.09082</ele>
        <time>2012-12-09T09:17:43Z</time>
      </trkpt>
      <trkpt lat="43.51418" lon="6.34394">
        <ele>288.052246</ele>
        <time>2012-12-09T09:17:47Z</time>
      </trkpt>
      <trkpt lat="43.51419" lon="6.3439">
        <ele>287.571411</ele>
        <time>2012-12-09T09:17:50Z</time>
      </trkpt>
      <trkpt lat="43.51424" lon="6.34382">
        <ele>288.532959</ele>
        <time>2012-12-09T09:17:56Z</time>
      </trkpt>
      <trkpt lat="43.51426" lon="6.34376">
        <ele>290.936157</ele>
        <time>2012-12-09T09:18:01Z</time>
      </trkpt>
      <trkpt lat="43.51437" lon="6.3435">
        <ele>290.455566</ele>
        <time>2012-12-09T09:18:19Z</time>
      </trkpt>
      <trkpt lat="43.51441" lon="6.34325">
        <ele>287.571411</ele>
        <time>2012-12-09T09:18:35Z</time>
      </trkpt>
      <trkpt lat="43.51443" lon="6.34318">
        <ele>285.648804</ele>
        <time>2012-12-09T09:18:40Z</time>
      </trkpt>
      <trkpt lat="43.51445" lon="6.34314">
        <ele>284.687622</ele>
        <time>2012-12-09T09:18:43Z</time>
      </trkpt>
      <trkpt lat="43.51455" lon="6.34283">
        <ele>285.648804</ele>
        <time>2012-12-09T09:19:01Z</time>
      </trkpt>
      <trkpt lat="43.51464" lon="6.3425">
        <ele>284.206909</ele>
        <time>2012-12-09T09:19:22Z</time>
      </trkpt>
      <trkpt lat="43.51471" lon="6.3424">
        <ele>284.687622</ele>
        <time>2012-12-09T09:19:29Z</time>
      </trkpt>
      <trkpt lat="43.51478" lon="6.34225">
        <ele>285.168213</ele>
        <time>2012-12-09T09:19:40Z</time>
      </trkpt>
      <trkpt lat="43.51499" lon="6.34201">
        <ele>284.687622</ele>
        <time>2012-12-09T09:20:05Z</time>
      </trkpt>
      <trkpt lat="43.51506" lon="6.34194">
        <ele>284.206909</ele>
        <time>2012-12-09T09:20:12Z</time>
      </trkpt>
      <trkpt lat="43.51509" lon="6.34193">
        <ele>285.168213</ele>
        <time>2012-12-09T09:20:14Z</time>
      </trkpt>
      <trkpt lat="43.51515" lon="6.34206">
        <ele>289.494141</ele>
        <time>2012-12-09T09:20:27Z</time>
      </trkpt>
      <trkpt lat="43.51525" lon="6.34231">
        <ele>289.01355</ele>
        <time>2012-12-09T09:20:43Z</time>
      </trkpt>
      <trkpt lat="43.5154" lon="6.34251">
        <ele>286.129517</ele>
        <time>2012-12-09T09:21:00Z</time>
      </trkpt>
      <trkpt lat="43.51559" lon="6.34255">
        <ele>289.01355</ele>
        <time>2012-12-09T09:21:15Z</time>
      </trkpt>
      <trkpt lat="43.51569" lon="6.34255">
        <ele>289.974854</ele>
        <time>2012-12-09T09:21:26Z</time>
      </trkpt>
      <trkpt lat="43.51581" lon="6.34249">
        <ele>293.820068</ele>
        <time>2012-12-09T09:21:39Z</time>
      </trkpt>
      <trkpt lat="43.51598" lon="6.34238">
        <ele>299.588013</ele>
        <time>2012-12-09T09:21:58Z</time>
      </trkpt>
      <trkpt lat="43.51616" lon="6.34239">
        <ele>304.875244</ele>
        <time>2012-12-09T09:22:17Z</time>
      </trkpt>
      <trkpt lat="43.51617" lon="6.34239">
        <ele>304.875244</ele>
        <time>2012-12-09T09:22:19Z</time>
      </trkpt>
      <trkpt lat="43.51623" lon="6.34235">
        <ele>305.355957</ele>
        <time>2012-12-09T09:22:26Z</time>
      </trkpt>
      <trkpt lat="43.51633" lon="6.34229">
        <ele>303.433228</ele>
        <time>2012-12-09T09:22:41Z</time>
      </trkpt>
      <trkpt lat="43.51641" lon="6.34231">
        <ele>302.952515</ele>
        <time>2012-12-09T09:22:46Z</time>
      </trkpt>
      <trkpt lat="43.51652" lon="6.34242">
        <ele>303.433228</ele>
        <time>2012-12-09T09:22:57Z</time>
      </trkpt>
      <trkpt lat="43.51669" lon="6.34255">
        <ele>303.91394</ele>
        <time>2012-12-09T09:23:14Z</time>
      </trkpt>
      <trkpt lat="43.51678" lon="6.34264">
        <ele>306.797852</ele>
        <time>2012-12-09T09:23:24Z</time>
      </trkpt>
      <trkpt lat="43.51681" lon="6.34282">
        <ele>312.565796</ele>
        <time>2012-12-09T09:23:40Z</time>
      </trkpt>
      <trkpt lat="43.5168" lon="6.34296">
        <ele>314.969116</ele>
        <time>2012-12-09T09:23:52Z</time>
      </trkpt>
      <trkpt lat="43.51679" lon="6.34314">
        <ele>317.372437</ele>
        <time>2012-12-09T09:24:07Z</time>
      </trkpt>
      <trkpt lat="43.51678" lon="6.34319">
        <ele>317.372437</ele>
        <time>2012-12-09T09:24:12Z</time>
      </trkpt>
      <trkpt lat="43.51676" lon="6.34334">
        <ele>319.295044</ele>
        <time>2012-12-09T09:24:23Z</time>
      </trkpt>
      <trkpt lat="43.51674" lon="6.34349">
        <ele>320.256348</ele>
        <time>2012-12-09T09:24:35Z</time>
      </trkpt>
      <trkpt lat="43.51669" lon="6.34368">
        <ele>322.659668</ele>
        <time>2012-12-09T09:24:51Z</time>
      </trkpt>
      <trkpt lat="43.51654" lon="6.34383">
        <ele>319.295044</ele>
        <time>2012-12-09T09:25:14Z</time>
      </trkpt>
      <trkpt lat="43.51646" lon="6.34403">
        <ele>312.565796</ele>
        <time>2012-12-09T09:25:32Z</time>
      </trkpt>
      <trkpt lat="43.51639" lon="6.34418">
        <ele>310.162476</ele>
        <time>2012-12-09T09:25:48Z</time>
      </trkpt>
      <trkpt lat="43.51639" lon="6.34434">
        <ele>307.759277</ele>
        <time>2012-12-09T09:26:09Z</time>
      </trkpt>
      <trkpt lat="43.51643" lon="6.34454">
        <ele>305.83667</ele>
        <time>2012-12-09T09:26:35Z</time>
      </trkpt>
      <trkpt lat="43.51651" lon="6.3447">
        <ele>304.394653</ele>
        <time>2012-12-09T09:26:53Z</time>
      </trkpt>
      <trkpt lat="43.51656" lon="6.34496">
        <ele>301.991333</ele>
        <time>2012-12-09T09:27:14Z</time>
      </trkpt>
      <trkpt lat="43.51666" lon="6.34517">
        <ele>300.549316</ele>
        <time>2012-12-09T09:27:34Z</time>
      </trkpt>
      <trkpt lat="43.51674" lon="6.34529">
        <ele>301.029907</ele>
        <time>2012-12-09T09:27:46Z</time>
      </trkpt>
      <trkpt lat="43.51675" lon="6.34539">
        <ele>301.991333</ele>
        <time>2012-12-09T09:27:54Z</time>
      </trkpt>
      <trkpt lat="43.51681" lon="6.34554">
        <ele>305.83667</ele>
        <time>2012-12-09T09:28:10Z</time>
      </trkpt>
      <trkpt lat="43.51686" lon="6.3456">
        <ele>308.720459</ele>
        <time>2012-12-09T09:28:18Z</time>
      </trkpt>
      <trkpt lat="43.51707" lon="6.34568">
        <ele>316.891724</ele>
        <time>2012-12-09T09:28:39Z</time>
      </trkpt>
      <trkpt lat="43.51715" lon="6.34574">
        <ele>321.217773</ele>
        <time>2012-12-09T09:28:50Z</time>
      </trkpt>
      <trkpt lat="43.51726" lon="6.34588">
        <ele>327.466187</ele>
        <time>2012-12-09T09:29:07Z</time>
      </trkpt>
      <trkpt lat="43.51748" lon="6.34599">
        <ele>331.792114</ele>
        <time>2012-12-09T09:29:27Z</time>
      </trkpt>
      <trkpt lat="43.51765" lon="6.34615">
        <ele>333.714722</ele>
        <time>2012-12-09T09:29:49Z</time>
      </trkpt>
      <trkpt lat="43.51769" lon="6.34614">
        <ele>334.195435</ele>
        <time>2012-12-09T09:30:05Z</time>
      </trkpt>
      <trkpt lat="43.51779" lon="6.34615">
        <ele>334.676147</ele>
        <time>2012-12-09T09:30:24Z</time>
      </trkpt>
      <trkpt lat="43.51779" lon="6.34609">
        <ele>334.676147</ele>
        <time>2012-12-09T09:30:28Z</time>
      </trkpt>
      <trkpt lat="43.51778" lon="6.34603">
        <ele>334.676147</ele>
        <time>2012-12-09T09:30:32Z</time>
      </trkpt>
      <trkpt lat="43.51777" lon="6.34598">
        <ele>334.676147</ele>
        <time>2012-12-09T09:30:35Z</time>
      </trkpt>
      <trkpt lat="43.51776" lon="6.34592">
        <ele>334.676147</ele>
        <time>2012-12-09T09:30:38Z</time>
      </trkpt>
      <trkpt lat="43.51781" lon="6.34564">
        <ele>337.079468</ele>
        <time>2012-12-09T09:30:55Z</time>
      </trkpt>
      <trkpt lat="43.51779" lon="6.34556">
        <ele>336.118164</ele>
        <time>2012-12-09T09:31:02Z</time>
      </trkpt>
      <trkpt lat="43.51769" lon="6.34545">
        <ele>333.714722</ele>
        <time>2012-12-09T09:31:19Z</time>
      </trkpt>
      <trkpt lat="43.51768" lon="6.34545">
        <ele>333.714722</ele>
        <time>2012-12-09T09:31:20Z</time>
      </trkpt>
      <trkpt lat="43.51756" lon="6.34527">
        <ele>332.272827</ele>
        <time>2012-12-09T09:31:37Z</time>
      </trkpt>
      <trkpt lat="43.51753" lon="6.34516">
        <ele>332.272827</ele>
        <time>2012-12-09T09:31:44Z</time>
      </trkpt>
      <trkpt lat="43.51754" lon="6.34496">
        <ele>333.234131</ele>
        <time>2012-12-09T09:31:57Z</time>
      </trkpt>
      <trkpt lat="43.51753" lon="6.34488">
        <ele>332.272827</ele>
        <time>2012-12-09T09:32:01Z</time>
      </trkpt>
      <trkpt lat="43.51764" lon="6.34469">
        <ele>326.504883</ele>
        <time>2012-12-09T09:32:21Z</time>
      </trkpt>
      <trkpt lat="43.5177" lon="6.34454">
        <ele>321.698364</ele>
        <time>2012-12-09T09:32:37Z</time>
      </trkpt>
      <trkpt lat="43.51786" lon="6.34438">
        <ele>317.853027</ele>
        <time>2012-12-09T09:32:57Z</time>
      </trkpt>
      <trkpt lat="43.518" lon="6.34427">
        <ele>319.295044</ele>
        <time>2012-12-09T09:33:13Z</time>
      </trkpt>
      <trkpt lat="43.51802" lon="6.34423">
        <ele>318.814331</ele>
        <time>2012-12-09T09:33:16Z</time>
      </trkpt>
      <trkpt lat="43.51804" lon="6.34419">
        <ele>317.372437</ele>
        <time>2012-12-09T09:33:19Z</time>
      </trkpt>
      <trkpt lat="43.51806" lon="6.34413">
        <ele>315.93042</ele>
        <time>2012-12-09T09:33:23Z</time>
      </trkpt>
      <trkpt lat="43.51825" lon="6.34403">
        <ele>314.969116</ele>
        <time>2012-12-09T09:33:38Z</time>
      </trkpt>
      <trkpt lat="43.51836" lon="6.34397">
        <ele>316.411011</ele>
        <time>2012-12-09T09:33:50Z</time>
      </trkpt>
      <trkpt lat="43.51837" lon="6.34394">
        <ele>316.411011</ele>
        <time>2012-12-09T09:33:52Z</time>
      </trkpt>
      <trkpt lat="43.51838" lon="6.3439">
        <ele>316.411011</ele>
        <time>2012-12-09T09:33:55Z</time>
      </trkpt>
      <trkpt lat="43.51847" lon="6.34368">
        <ele>312.565796</ele>
        <time>2012-12-09T09:34:09Z</time>
      </trkpt>
      <trkpt lat="43.51848" lon="6.34363">
        <ele>310.643066</ele>
        <time>2012-12-09T09:34:13Z</time>
      </trkpt>
      <trkpt lat="43.51854" lon="6.34347">
        <ele>309.201172</ele>
        <time>2012-12-09T09:34:25Z</time>
      </trkpt>
      <trkpt lat="43.51856" lon="6.34346">
        <ele>309.201172</ele>
        <time>2012-12-09T09:34:27Z</time>
      </trkpt>
      <trkpt lat="43.51859" lon="6.34336">
        <ele>310.643066</ele>
        <time>2012-12-09T09:34:34Z</time>
      </trkpt>
      <trkpt lat="43.5186" lon="6.34331">
        <ele>311.123779</ele>
        <time>2012-12-09T09:34:38Z</time>
      </trkpt>
      <trkpt lat="43.51861" lon="6.34311">
        <ele>311.123779</ele>
        <time>2012-12-09T09:34:50Z</time>
      </trkpt>
      <trkpt lat="43.5186" lon="6.34296">
        <ele>310.643066</ele>
        <time>2012-12-09T09:34:58Z</time>
      </trkpt>
      <trkpt lat="43.51861" lon="6.34293">
        <ele>310.643066</ele>
        <time>2012-12-09T09:35:00Z</time>
      </trkpt>
      <trkpt lat="43.51861" lon="6.34287">
        <ele>310.643066</ele>
        <time>2012-12-09T09:35:04Z</time>
      </trkpt>
      <trkpt lat="43.51861" lon="6.34285">
        <ele>310.643066</ele>
        <time>2012-12-09T09:35:06Z</time>
      </trkpt>
      <trkpt lat="43.51863" lon="6.34276">
        <ele>310.643066</ele>
        <time>2012-12-09T09:35:13Z</time>
      </trkpt>
      <trkpt lat="43.51863" lon="6.34272">
        <ele>311.123779</ele>
        <time>2012-12-09T09:35:16Z</time>
      </trkpt>
      <trkpt lat="43.51865" lon="6.34266">
        <ele>311.604492</ele>
        <time>2012-12-09T09:35:23Z</time>
      </trkpt>
      <trkpt lat="43.51866" lon="6.34261">
        <ele>312.565796</ele>
        <time>2012-12-09T09:35:26Z</time>
      </trkpt>
      <trkpt lat="43.5187" lon="6.34255">
        <ele>312.565796</ele>
        <time>2012-12-09T09:35:33Z</time>
      </trkpt>
      <trkpt lat="43.51879" lon="6.34237">
        <ele>312.565796</ele>
        <time>2012-12-09T09:35:47Z</time>
      </trkpt>
      <trkpt lat="43.5188" lon="6.34231">
        <ele>312.085205</ele>
        <time>2012-12-09T09:35:51Z</time>
      </trkpt>
      <trkpt lat="43.51883" lon="6.34218">
        <ele>311.123779</ele>
        <time>2012-12-09T09:36:00Z</time>
      </trkpt>
      <trkpt lat="43.51883" lon="6.34213">
        <ele>311.123779</ele>
        <time>2012-12-09T09:36:03Z</time>
      </trkpt>
      <trkpt lat="43.51884" lon="6.3421">
        <ele>311.123779</ele>
        <time>2012-12-09T09:36:05Z</time>
      </trkpt>
      <trkpt lat="43.51887" lon="6.34201">
        <ele>312.085205</ele>
        <time>2012-12-09T09:36:17Z</time>
      </trkpt>
      <trkpt lat="43.5189" lon="6.34218">
        <ele>315.449829</ele>
        <time>2012-12-09T09:36:31Z</time>
      </trkpt>
      <trkpt lat="43.51894" lon="6.34226">
        <ele>316.411011</ele>
        <time>2012-12-09T09:36:36Z</time>
      </trkpt>
      <trkpt lat="43.51901" lon="6.34228">
        <ele>317.372437</ele>
        <time>2012-12-09T09:36:41Z</time>
      </trkpt>
      <trkpt lat="43.51918" lon="6.34218">
        <ele>316.411011</ele>
        <time>2012-12-09T09:36:57Z</time>
      </trkpt>
      <trkpt lat="43.51922" lon="6.34214">
        <ele>316.411011</ele>
        <time>2012-12-09T09:37:00Z</time>
      </trkpt>
      <trkpt lat="43.51936" lon="6.34191">
        <ele>315.449829</ele>
        <time>2012-12-09T09:37:17Z</time>
      </trkpt>
      <trkpt lat="43.51937" lon="6.34185">
        <ele>314.969116</ele>
        <time>2012-12-09T09:37:21Z</time>
      </trkpt>
      <trkpt lat="43.51944" lon="6.34174">
        <ele>314.007813</ele>
        <time>2012-12-09T09:37:36Z</time>
      </trkpt>
      <trkpt lat="43.51945" lon="6.34171">
        <ele>314.007813</ele>
        <time>2012-12-09T09:37:39Z</time>
      </trkpt>
      <trkpt lat="43.51947" lon="6.34168">
        <ele>314.007813</ele>
        <time>2012-12-09T09:37:41Z</time>
      </trkpt>
      <trkpt lat="43.51941" lon="6.34162">
        <ele>314.969116</ele>
        <time>2012-12-09T09:37:46Z</time>
      </trkpt>
      <trkpt lat="43.51938" lon="6.34147">
        <ele>316.411011</ele>
        <time>2012-12-09T09:38:00Z</time>
      </trkpt>
      <trkpt lat="43.51939" lon="6.34136">
        <ele>316.891724</ele>
        <time>2012-12-09T09:38:09Z</time>
      </trkpt>
      <trkpt lat="43.51939" lon="6.34135">
        <ele>317.372437</ele>
        <time>2012-12-09T09:38:10Z</time>
      </trkpt>
      <trkpt lat="43.51939" lon="6.3413">
        <ele>317.372437</ele>
        <time>2012-12-09T09:38:15Z</time>
      </trkpt>
      <trkpt lat="43.51944" lon="6.34118">
        <ele>316.891724</ele>
        <time>2012-12-09T09:38:23Z</time>
      </trkpt>
      <trkpt lat="43.51951" lon="6.34107">
        <ele>316.891724</ele>
        <time>2012-12-09T09:38:35Z</time>
      </trkpt>
      <trkpt lat="43.51952" lon="6.34098">
        <ele>316.891724</ele>
        <time>2012-12-09T09:38:42Z</time>
      </trkpt>
      <trkpt lat="43.51954" lon="6.34094">
        <ele>316.891724</ele>
        <time>2012-12-09T09:38:45Z</time>
      </trkpt>
      <trkpt lat="43.51956" lon="6.34076">
        <ele>317.372437</ele>
        <time>2012-12-09T09:38:56Z</time>
      </trkpt>
      <trkpt lat="43.51959" lon="6.34064">
        <ele>317.372437</ele>
        <time>2012-12-09T09:39:07Z</time>
      </trkpt>
      <trkpt lat="43.5196" lon="6.34059">
        <ele>316.891724</ele>
        <time>2012-12-09T09:39:09Z</time>
      </trkpt>
      <trkpt lat="43.51961" lon="6.34053">
        <ele>316.411011</ele>
        <time>2012-12-09T09:39:13Z</time>
      </trkpt>
      <trkpt lat="43.51964" lon="6.34048">
        <ele>316.411011</ele>
        <time>2012-12-09T09:39:16Z</time>
      </trkpt>
      <trkpt lat="43.5197" lon="6.34044">
        <ele>316.891724</ele>
        <time>2012-12-09T09:39:20Z</time>
      </trkpt>
      <trkpt lat="43.51975" lon="6.34031">
        <ele>317.853027</ele>
        <time>2012-12-09T09:39:28Z</time>
      </trkpt>
      <trkpt lat="43.51976" lon="6.34019">
        <ele>317.853027</ele>
        <time>2012-12-09T09:39:36Z</time>
      </trkpt>
      <trkpt lat="43.5198" lon="6.34009">
        <ele>316.891724</ele>
        <time>2012-12-09T09:39:44Z</time>
      </trkpt>
      <trkpt lat="43.51982" lon="6.34002">
        <ele>316.891724</ele>
        <time>2012-12-09T09:39:48Z</time>
      </trkpt>
      <trkpt lat="43.51984" lon="6.33996">
        <ele>316.411011</ele>
        <time>2012-12-09T09:39:51Z</time>
      </trkpt>
      <trkpt lat="43.51985" lon="6.33981">
        <ele>314.488403</ele>
        <time>2012-12-09T09:40:00Z</time>
      </trkpt>
      <trkpt lat="43.51984" lon="6.33971">
        <ele>313.527222</ele>
        <time>2012-12-09T09:40:08Z</time>
      </trkpt>
      <trkpt lat="43.51985" lon="6.33965">
        <ele>312.085205</ele>
        <time>2012-12-09T09:40:12Z</time>
      </trkpt>
      <trkpt lat="43.51986" lon="6.33961">
        <ele>312.085205</ele>
        <time>2012-12-09T09:40:15Z</time>
      </trkpt>
      <trkpt lat="43.51988" lon="6.33949">
        <ele>311.123779</ele>
        <time>2012-12-09T09:40:24Z</time>
      </trkpt>
      <trkpt lat="43.5199" lon="6.33944">
        <ele>311.604492</ele>
        <time>2012-12-09T09:40:29Z</time>
      </trkpt>
      <trkpt lat="43.51995" lon="6.33915">
        <ele>312.085205</ele>
        <time>2012-12-09T09:40:45Z</time>
      </trkpt>
      <trkpt lat="43.51996" lon="6.3391">
        <ele>312.565796</ele>
        <time>2012-12-09T09:40:48Z</time>
      </trkpt>
      <trkpt lat="43.52002" lon="6.33894">
        <ele>314.007813</ele>
        <time>2012-12-09T09:40:59Z</time>
      </trkpt>
      <trkpt lat="43.52008" lon="6.3387">
        <ele>314.007813</ele>
        <time>2012-12-09T09:41:16Z</time>
      </trkpt>
      <trkpt lat="43.52008" lon="6.33869">
        <ele>314.007813</ele>
        <time>2012-12-09T09:41:17Z</time>
      </trkpt>
      <trkpt lat="43.52018" lon="6.3385">
        <ele>314.488403</ele>
        <time>2012-12-09T09:41:32Z</time>
      </trkpt>
      <trkpt lat="43.52023" lon="6.33828">
        <ele>314.969116</ele>
        <time>2012-12-09T09:41:48Z</time>
      </trkpt>
      <trkpt lat="43.52034" lon="6.33806">
        <ele>315.449829</ele>
        <time>2012-12-09T09:42:03Z</time>
      </trkpt>
      <trkpt lat="43.52043" lon="6.33805">
        <ele>314.488403</ele>
        <time>2012-12-09T09:42:21Z</time>
      </trkpt>
      <trkpt lat="43.52047" lon="6.33807">
        <ele>314.488403</ele>
        <time>2012-12-09T09:42:25Z</time>
      </trkpt>
      <trkpt lat="43.52058" lon="6.33815">
        <ele>313.046509</ele>
        <time>2012-12-09T09:42:37Z</time>
      </trkpt>
      <trkpt lat="43.5207" lon="6.33821">
        <ele>311.604492</ele>
        <time>2012-12-09T09:42:48Z</time>
      </trkpt>
      <trkpt lat="43.52092" lon="6.33841">
        <ele>310.643066</ele>
        <time>2012-12-09T09:43:08Z</time>
      </trkpt>
      <trkpt lat="43.52117" lon="6.33857">
        <ele>309.201172</ele>
        <time>2012-12-09T09:43:31Z</time>
      </trkpt>
      <trkpt lat="43.52133" lon="6.3386">
        <ele>309.681885</ele>
        <time>2012-12-09T09:43:48Z</time>
      </trkpt>
      <trkpt lat="43.52136" lon="6.33858">
        <ele>309.201172</ele>
        <time>2012-12-09T09:43:51Z</time>
      </trkpt>
      <trkpt lat="43.52147" lon="6.33822">
        <ele>308.720459</ele>
        <time>2012-12-09T09:44:13Z</time>
      </trkpt>
      <trkpt lat="43.52153" lon="6.33811">
        <ele>308.239868</ele>
        <time>2012-12-09T09:44:23Z</time>
      </trkpt>
      <trkpt lat="43.52153" lon="6.33803">
        <ele>307.759277</ele>
        <time>2012-12-09T09:44:27Z</time>
      </trkpt>
      <trkpt lat="43.52157" lon="6.33801">
        <ele>308.239868</ele>
        <time>2012-12-09T09:44:31Z</time>
      </trkpt>
      <trkpt lat="43.52173" lon="6.33802">
        <ele>307.759277</ele>
        <time>2012-12-09T09:44:45Z</time>
      </trkpt>
      <trkpt lat="43.52183" lon="6.33803">
        <ele>307.759277</ele>
        <time>2012-12-09T09:45:01Z</time>
      </trkpt>
      <trkpt lat="43.52194" lon="6.33798">
        <ele>306.797852</ele>
        <time>2012-12-09T09:45:20Z</time>
      </trkpt>
      <trkpt lat="43.52199" lon="6.33797">
        <ele>306.317261</ele>
        <time>2012-12-09T09:45:35Z</time>
      </trkpt>
      <trkpt lat="43.52212" lon="6.33796">
        <ele>306.797852</ele>
        <time>2012-12-09T09:45:53Z</time>
      </trkpt>
      <trkpt lat="43.52212" lon="6.33795">
        <ele>306.797852</ele>
        <time>2012-12-09T09:45:56Z</time>
      </trkpt>
      <trkpt lat="43.52218" lon="6.33785">
        <ele>307.278564</ele>
        <time>2012-12-09T09:46:05Z</time>
      </trkpt>
      <trkpt lat="43.52221" lon="6.33783">
        <ele>307.278564</ele>
        <time>2012-12-09T09:46:08Z</time>
      </trkpt>
      <trkpt lat="43.52227" lon="6.33774">
        <ele>307.759277</ele>
        <time>2012-12-09T09:46:20Z</time>
      </trkpt>
      <trkpt lat="43.5223" lon="6.3377">
        <ele>307.278564</ele>
        <time>2012-12-09T09:46:24Z</time>
      </trkpt>
      <trkpt lat="43.52233" lon="6.3376">
        <ele>307.759277</ele>
        <time>2012-12-09T09:46:46Z</time>
      </trkpt>
      <trkpt lat="43.52232" lon="6.3376">
        <ele>307.759277</ele>
        <time>2012-12-09T09:47:47Z</time>
      </trkpt>
      <trkpt lat="43.52235" lon="6.33752">
        <ele>308.239868</ele>
        <time>2012-12-09T09:48:44Z</time>
      </trkpt>
      <trkpt lat="43.52241" lon="6.33741">
        <ele>309.201172</ele>
        <time>2012-12-09T09:49:00Z</time>
      </trkpt>
      <trkpt lat="43.52248" lon="6.33719">
        <ele>310.162476</ele>
        <time>2012-12-09T09:49:19Z</time>
      </trkpt>
      <trkpt lat="43.52248" lon="6.33715">
        <ele>310.643066</ele>
        <time>2012-12-09T09:49:23Z</time>
      </trkpt>
      <trkpt lat="43.52252" lon="6.33699">
        <ele>311.123779</ele>
        <time>2012-12-09T09:49:38Z</time>
      </trkpt>
      <trkpt lat="43.52257" lon="6.33684">
        <ele>310.643066</ele>
        <time>2012-12-09T09:49:55Z</time>
      </trkpt>
      <trkpt lat="43.52261" lon="6.33667">
        <ele>310.643066</ele>
        <time>2012-12-09T09:50:14Z</time>
      </trkpt>
      <trkpt lat="43.52265" lon="6.33658">
        <ele>311.123779</ele>
        <time>2012-12-09T09:50:27Z</time>
      </trkpt>
      <trkpt lat="43.52265" lon="6.33646">
        <ele>312.085205</ele>
        <time>2012-12-09T09:50:39Z</time>
      </trkpt>
      <trkpt lat="43.52265" lon="6.33643">
        <ele>312.085205</ele>
        <time>2012-12-09T09:50:41Z</time>
      </trkpt>
      <trkpt lat="43.52262" lon="6.3363">
        <ele>312.085205</ele>
        <time>2012-12-09T09:50:56Z</time>
      </trkpt>
      <trkpt lat="43.52262" lon="6.33645">
        <ele>312.565796</ele>
        <time>2012-12-09T09:51:34Z</time>
      </trkpt>
      <trkpt lat="43.52258" lon="6.33656">
        <ele>313.046509</ele>
        <time>2012-12-09T09:51:49Z</time>
      </trkpt>
      <trkpt lat="43.5226" lon="6.33658">
        <ele>312.565796</ele>
        <time>2012-12-09T09:52:04Z</time>
      </trkpt>
      <trkpt lat="43.52261" lon="6.33658">
        <ele>312.565796</ele>
        <time>2012-12-09T09:52:39Z</time>
      </trkpt>
      <trkpt lat="43.5226" lon="6.33657">
        <ele>313.046509</ele>
        <time>2012-12-09T09:53:02Z</time>
      </trkpt>
      <trkpt lat="43.52258" lon="6.33658">
        <ele>314.007813</ele>
        <time>2012-12-09T09:53:21Z</time>
      </trkpt>
      <trkpt lat="43.52261" lon="6.33663">
        <ele>314.007813</ele>
        <time>2012-12-09T09:53:49Z</time>
      </trkpt>
      <trkpt lat="43.52261" lon="6.33662">
        <ele>314.488403</ele>
        <time>2012-12-09T09:54:15Z</time>
      </trkpt>
      <trkpt lat="43.5226" lon="6.33663">
        <ele>314.488403</ele>
        <time>2012-12-09T09:54:51Z</time>
      </trkpt>
      <trkpt lat="43.52263" lon="6.3366">
        <ele>315.449829</ele>
        <time>2012-12-09T09:55:27Z</time>
      </trkpt>
      <trkpt lat="43.52262" lon="6.33658">
        <ele>315.93042</ele>
        <time>2012-12-09T09:55:49Z</time>
      </trkpt>
      <trkpt lat="43.52264" lon="6.33656">
        <ele>318.333618</ele>
        <time>2012-12-09T09:56:09Z</time>
      </trkpt>
      <trkpt lat="43.52267" lon="6.33657">
        <ele>319.295044</ele>
        <time>2012-12-09T09:56:22Z</time>
      </trkpt>
      <trkpt lat="43.52267" lon="6.33657">
        <ele>320.256348</ele>
        <time>2012-12-09T09:56:49Z</time>
      </trkpt>
      <trkpt lat="43.52266" lon="6.33658">
        <ele>321.698364</ele>
        <time>2012-12-09T09:57:43Z</time>
      </trkpt>
      <trkpt lat="43.52263" lon="6.33656">
        <ele>322.178955</ele>
        <time>2012-12-09T09:58:11Z</time>
      </trkpt>
      <trkpt lat="43.52262" lon="6.33656">
        <ele>322.178955</ele>
        <time>2012-12-09T09:58:41Z</time>
      </trkpt>
      <trkpt lat="43.52261" lon="6.33658">
        <ele>322.178955</ele>
        <time>2012-12-09T09:59:17Z</time>
      </trkpt>
      <trkpt lat="43.52262" lon="6.33658">
        <ele>321.217773</ele>
        <time>2012-12-09T10:00:05Z</time>
      </trkpt>
      <trkpt lat="43.52267" lon="6.33662">
        <ele>321.217773</ele>
        <time>2012-12-09T10:00:27Z</time>
      </trkpt>
      <trkpt lat="43.52274" lon="6.33667">
        <ele>320.256348</ele>
        <time>2012-12-09T10:00:47Z</time>
      </trkpt>
      <trkpt lat="43.52287" lon="6.33679">
        <ele>320.737061</ele>
        <time>2012-12-09T10:01:05Z</time>
      </trkpt>
      <trkpt lat="43.52295" lon="6.33687">
        <ele>321.698364</ele>
        <time>2012-12-09T10:01:18Z</time>
      </trkpt>
      <trkpt lat="43.52299" lon="6.33689">
        <ele>322.178955</ele>
        <time>2012-12-09T10:01:22Z</time>
      </trkpt>
      <trkpt lat="43.52303" lon="6.33691">
        <ele>322.659668</ele>
        <time>2012-12-09T10:01:27Z</time>
      </trkpt>
      <trkpt lat="43.52307" lon="6.33693">
        <ele>323.140381</ele>
        <time>2012-12-09T10:01:40Z</time>
      </trkpt>
      <trkpt lat="43.52311" lon="6.33696">
        <ele>322.178955</ele>
        <time>2012-12-09T10:01:52Z</time>
      </trkpt>
      <trkpt lat="43.52313" lon="6.33698">
        <ele>322.178955</ele>
        <time>2012-12-09T10:01:55Z</time>
      </trkpt>
      <trkpt lat="43.52323" lon="6.33702">
        <ele>323.620972</ele>
        <time>2012-12-09T10:02:05Z</time>
      </trkpt>
      <trkpt lat="43.52328" lon="6.33706">
        <ele>323.140381</ele>
        <time>2012-12-09T10:02:11Z</time>
      </trkpt>
      <trkpt lat="43.5234" lon="6.33716">
        <ele>322.659668</ele>
        <time>2012-12-09T10:02:24Z</time>
      </trkpt>
      <trkpt lat="43.52351" lon="6.3373">
        <ele>324.582275</ele>
        <time>2012-12-09T10:02:37Z</time>
      </trkpt>
      <trkpt lat="43.52353" lon="6.33736">
        <ele>324.101563</ele>
        <time>2012-12-09T10:02:41Z</time>
      </trkpt>
      <trkpt lat="43.52366" lon="6.33767">
        <ele>326.504883</ele>
        <time>2012-12-09T10:03:02Z</time>
      </trkpt>
      <trkpt lat="43.52376" lon="6.33787">
        <ele>330.35022</ele>
        <time>2012-12-09T10:03:17Z</time>
      </trkpt>
      <trkpt lat="43.52389" lon="6.33799">
        <ele>332.272827</ele>
        <time>2012-12-09T10:03:32Z</time>
      </trkpt>
      <trkpt lat="43.52405" lon="6.33804">
        <ele>332.75354</ele>
        <time>2012-12-09T10:03:44Z</time>
      </trkpt>
      <trkpt lat="43.52427" lon="6.33821">
        <ele>328.427612</ele>
        <time>2012-12-09T10:04:02Z</time>
      </trkpt>
      <trkpt lat="43.52454" lon="6.33839">
        <ele>326.02417</ele>
        <time>2012-12-09T10:04:25Z</time>
      </trkpt>
      <trkpt lat="43.52483" lon="6.33863">
        <ele>324.582275</ele>
        <time>2012-12-09T10:04:51Z</time>
      </trkpt>
      <trkpt lat="43.52495" lon="6.33873">
        <ele>324.582275</ele>
        <time>2012-12-09T10:05:03Z</time>
      </trkpt>
      <trkpt lat="43.52514" lon="6.33886">
        <ele>322.178955</ele>
        <time>2012-12-09T10:05:19Z</time>
      </trkpt>
      <trkpt lat="43.52541" lon="6.33885">
        <ele>320.737061</ele>
        <time>2012-12-09T10:05:40Z</time>
      </trkpt>
      <trkpt lat="43.52555" lon="6.33884">
        <ele>318.333618</ele>
        <time>2012-12-09T10:05:53Z</time>
      </trkpt>
      <trkpt lat="43.52583" lon="6.33895">
        <ele>315.449829</ele>
        <time>2012-12-09T10:06:16Z</time>
      </trkpt>
      <trkpt lat="43.52601" lon="6.33886">
        <ele>314.007813</ele>
        <time>2012-12-09T10:06:31Z</time>
      </trkpt>
      <trkpt lat="43.52612" lon="6.33881">
        <ele>312.565796</ele>
        <time>2012-12-09T10:06:43Z</time>
      </trkpt>
      <trkpt lat="43.52631" lon="6.3388">
        <ele>308.239868</ele>
        <time>2012-12-09T10:07:01Z</time>
      </trkpt>
      <trkpt lat="43.5265" lon="6.3388">
        <ele>305.83667</ele>
        <time>2012-12-09T10:07:17Z</time>
      </trkpt>
      <trkpt lat="43.5267" lon="6.3388">
        <ele>304.875244</ele>
        <time>2012-12-09T10:07:34Z</time>
      </trkpt>
      <trkpt lat="43.52672" lon="6.33878">
        <ele>305.355957</ele>
        <time>2012-12-09T10:07:50Z</time>
      </trkpt>
      <trkpt lat="43.52674" lon="6.33874">
        <ele>305.83667</ele>
        <time>2012-12-09T10:08:20Z</time>
      </trkpt>
      <trkpt lat="43.52675" lon="6.33867">
        <ele>305.83667</ele>
        <time>2012-12-09T10:08:56Z</time>
      </trkpt>
      <trkpt lat="43.52675" lon="6.33838">
        <ele>305.355957</ele>
        <time>2012-12-09T10:09:16Z</time>
      </trkpt>
      <trkpt lat="43.52667" lon="6.3382">
        <ele>305.83667</ele>
        <time>2012-12-09T10:09:30Z</time>
      </trkpt>
      <trkpt lat="43.52656" lon="6.33818">
        <ele>307.278564</ele>
        <time>2012-12-09T10:09:41Z</time>
      </trkpt>
      <trkpt lat="43.52654" lon="6.33818">
        <ele>307.759277</ele>
        <time>2012-12-09T10:09:43Z</time>
      </trkpt>
      <trkpt lat="43.52652" lon="6.33807">
        <ele>308.720459</ele>
        <time>2012-12-09T10:09:57Z</time>
      </trkpt>
      <trkpt lat="43.5266" lon="6.33802">
        <ele>307.278564</ele>
        <time>2012-12-09T10:10:08Z</time>
      </trkpt>
      <trkpt lat="43.52675" lon="6.33802">
        <ele>306.797852</ele>
        <time>2012-12-09T10:10:22Z</time>
      </trkpt>
      <trkpt lat="43.52677" lon="6.33799">
        <ele>307.759277</ele>
        <time>2012-12-09T10:10:25Z</time>
      </trkpt>
      <trkpt lat="43.52685" lon="6.33768">
        <ele>309.681885</ele>
        <time>2012-12-09T10:10:47Z</time>
      </trkpt>
      <trkpt lat="43.52687" lon="6.33756">
        <ele>310.162476</ele>
        <time>2012-12-09T10:10:58Z</time>
      </trkpt>
      <trkpt lat="43.52687" lon="6.33755">
        <ele>310.162476</ele>
        <time>2012-12-09T10:11:05Z</time>
      </trkpt>
      <trkpt lat="43.52684" lon="6.33748">
        <ele>310.643066</ele>
        <time>2012-12-09T10:11:21Z</time>
      </trkpt>
      <trkpt lat="43.52683" lon="6.33742">
        <ele>309.681885</ele>
        <time>2012-12-09T10:11:40Z</time>
      </trkpt>
      <trkpt lat="43.52677" lon="6.33725">
        <ele>309.201172</ele>
        <time>2012-12-09T10:11:56Z</time>
      </trkpt>
      <trkpt lat="43.52687" lon="6.33717">
        <ele>308.720459</ele>
        <time>2012-12-09T10:12:12Z</time>
      </trkpt>
      <trkpt lat="43.52692" lon="6.33717">
        <ele>309.201172</ele>
        <time>2012-12-09T10:12:16Z</time>
      </trkpt>
      <trkpt lat="43.52699" lon="6.33715">
        <ele>312.085205</ele>
        <time>2012-12-09T10:12:30Z</time>
      </trkpt>
      <trkpt lat="43.52701" lon="6.33714">
        <ele>312.085205</ele>
        <time>2012-12-09T10:12:32Z</time>
      </trkpt>
      <trkpt lat="43.5271" lon="6.33716">
        <ele>311.604492</ele>
        <time>2012-12-09T10:12:41Z</time>
      </trkpt>
      <trkpt lat="43.52712" lon="6.33729">
        <ele>313.046509</ele>
        <time>2012-12-09T10:12:50Z</time>
      </trkpt>
      <trkpt lat="43.52724" lon="6.3374">
        <ele>313.527222</ele>
        <time>2012-12-09T10:13:06Z</time>
      </trkpt>
      <trkpt lat="43.52742" lon="6.33732">
        <ele>314.969116</ele>
        <time>2012-12-09T10:13:23Z</time>
      </trkpt>
      <trkpt lat="43.52757" lon="6.33718">
        <ele>316.411011</ele>
        <time>2012-12-09T10:13:39Z</time>
      </trkpt>
      <trkpt lat="43.52762" lon="6.33716">
        <ele>317.853027</ele>
        <time>2012-12-09T10:13:43Z</time>
      </trkpt>
      <trkpt lat="43.52776" lon="6.3371">
        <ele>318.333618</ele>
        <time>2012-12-09T10:14:00Z</time>
      </trkpt>
      <trkpt lat="43.52784" lon="6.33709">
        <ele>316.411011</ele>
        <time>2012-12-09T10:14:10Z</time>
      </trkpt>
      <trkpt lat="43.52802" lon="6.33709">
        <ele>319.775635</ele>
        <time>2012-12-09T10:14:25Z</time>
      </trkpt>
      <trkpt lat="43.52823" lon="6.33706">
        <ele>322.659668</ele>
        <time>2012-12-09T10:14:44Z</time>
      </trkpt>
      <trkpt lat="43.52845" lon="6.33704">
        <ele>325.543579</ele>
        <time>2012-12-09T10:15:02Z</time>
      </trkpt>
      <trkpt lat="43.52864" lon="6.33707">
        <ele>328.427612</ele>
        <time>2012-12-09T10:15:21Z</time>
      </trkpt>
      <trkpt lat="43.52884" lon="6.33711">
        <ele>331.792114</ele>
        <time>2012-12-09T10:15:38Z</time>
      </trkpt>
      <trkpt lat="43.52908" lon="6.33713">
        <ele>334.195435</ele>
        <time>2012-12-09T10:16:00Z</time>
      </trkpt>
      <trkpt lat="43.5293" lon="6.33712">
        <ele>336.598877</ele>
        <time>2012-12-09T10:16:20Z</time>
      </trkpt>
      <trkpt lat="43.52945" lon="6.33716">
        <ele>337.560059</ele>
        <time>2012-12-09T10:16:34Z</time>
      </trkpt>
      <trkpt lat="43.52967" lon="6.33724">
        <ele>336.598877</ele>
        <time>2012-12-09T10:16:54Z</time>
      </trkpt>
      <trkpt lat="43.52988" lon="6.33716">
        <ele>337.560059</ele>
        <time>2012-12-09T10:17:11Z</time>
      </trkpt>
      <trkpt lat="43.53011" lon="6.33714">
        <ele>339.482666</ele>
        <time>2012-12-09T10:17:31Z</time>
      </trkpt>
      <trkpt lat="43.53033" lon="6.33703">
        <ele>340.924683</ele>
        <time>2012-12-09T10:17:50Z</time>
      </trkpt>
      <trkpt lat="43.53042" lon="6.33718">
        <ele>341.885986</ele>
        <time>2012-12-09T10:18:05Z</time>
      </trkpt>
      <trkpt lat="43.53049" lon="6.33734">
        <ele>341.885986</ele>
        <time>2012-12-09T10:18:23Z</time>
      </trkpt>
      <trkpt lat="43.53047" lon="6.33739">
        <ele>342.366699</ele>
        <time>2012-12-09T10:18:40Z</time>
      </trkpt>
      <trkpt lat="43.53058" lon="6.33751">
        <ele>342.366699</ele>
        <time>2012-12-09T10:19:17Z</time>
      </trkpt>
      <trkpt lat="43.53074" lon="6.33766">
        <ele>343.808594</ele>
        <time>2012-12-09T10:19:33Z</time>
      </trkpt>
      <trkpt lat="43.5309" lon="6.33768">
        <ele>342.84729</ele>
        <time>2012-12-09T10:19:49Z</time>
      </trkpt>
      <trkpt lat="43.5311" lon="6.33767">
        <ele>341.885986</ele>
        <time>2012-12-09T10:20:06Z</time>
      </trkpt>
      <trkpt lat="43.53131" lon="6.33763">
        <ele>342.366699</ele>
        <time>2012-12-09T10:20:23Z</time>
      </trkpt>
      <trkpt lat="43.53156" lon="6.33756">
        <ele>342.366699</ele>
        <time>2012-12-09T10:20:45Z</time>
      </trkpt>
      <trkpt lat="43.5318" lon="6.33745">
        <ele>343.327881</ele>
        <time>2012-12-09T10:21:06Z</time>
      </trkpt>
      <trkpt lat="43.53199" lon="6.3374">
        <ele>345.731323</ele>
        <time>2012-12-09T10:21:23Z</time>
      </trkpt>
      <trkpt lat="43.53219" lon="6.33738">
        <ele>344.77002</ele>
        <time>2012-12-09T10:21:42Z</time>
      </trkpt>
      <trkpt lat="43.53233" lon="6.33737">
        <ele>343.327881</ele>
        <time>2012-12-09T10:21:55Z</time>
      </trkpt>
      <trkpt lat="43.53254" lon="6.33732">
        <ele>343.808594</ele>
        <time>2012-12-09T10:22:17Z</time>
      </trkpt>
      <trkpt lat="43.53259" lon="6.33733">
        <ele>343.808594</ele>
        <time>2012-12-09T10:22:25Z</time>
      </trkpt>
      <trkpt lat="43.53281" lon="6.33736">
        <ele>346.692627</ele>
        <time>2012-12-09T10:22:41Z</time>
      </trkpt>
      <trkpt lat="43.53302" lon="6.33732">
        <ele>346.692627</ele>
        <time>2012-12-09T10:22:58Z</time>
      </trkpt>
      <trkpt lat="43.53309" lon="6.33724">
        <ele>347.653931</ele>
        <time>2012-12-09T10:23:07Z</time>
      </trkpt>
      <trkpt lat="43.53311" lon="6.33712">
        <ele>349.576538</ele>
        <time>2012-12-09T10:23:14Z</time>
      </trkpt>
      <trkpt lat="43.5331" lon="6.33701">
        <ele>351.018433</ele>
        <time>2012-12-09T10:23:21Z</time>
      </trkpt>
      <trkpt lat="43.53311" lon="6.33681">
        <ele>355.825195</ele>
        <time>2012-12-09T10:23:37Z</time>
      </trkpt>
      <trkpt lat="43.53305" lon="6.33657">
        <ele>357.26709</ele>
        <time>2012-12-09T10:23:53Z</time>
      </trkpt>
      <trkpt lat="43.53304" lon="6.33634">
        <ele>358.708984</ele>
        <time>2012-12-09T10:24:09Z</time>
      </trkpt>
      <trkpt lat="43.53304" lon="6.33633">
        <ele>358.708984</ele>
        <time>2012-12-09T10:24:10Z</time>
      </trkpt>
      <trkpt lat="43.53309" lon="6.33615">
        <ele>360.151123</ele>
        <time>2012-12-09T10:24:25Z</time>
      </trkpt>
      <trkpt lat="43.53319" lon="6.33603">
        <ele>359.67041</ele>
        <time>2012-12-09T10:24:38Z</time>
      </trkpt>
      <trkpt lat="43.53334" lon="6.33594">
        <ele>360.151123</ele>
        <time>2012-12-09T10:24:53Z</time>
      </trkpt>
      <trkpt lat="43.53351" lon="6.33583">
        <ele>362.07373</ele>
        <time>2012-12-09T10:25:10Z</time>
      </trkpt>
      <trkpt lat="43.53364" lon="6.33582">
        <ele>358.708984</ele>
        <time>2012-12-09T10:25:22Z</time>
      </trkpt>
      <trkpt lat="43.5338" lon="6.33582">
        <ele>358.708984</ele>
        <time>2012-12-09T10:25:35Z</time>
      </trkpt>
      <trkpt lat="43.53396" lon="6.33579">
        <ele>358.228394</ele>
        <time>2012-12-09T10:25:49Z</time>
      </trkpt>
      <trkpt lat="43.53413" lon="6.33573">
        <ele>357.26709</ele>
        <time>2012-12-09T10:26:06Z</time>
      </trkpt>
      <trkpt lat="43.53436" lon="6.33565">
        <ele>357.747803</ele>
        <time>2012-12-09T10:26:25Z</time>
      </trkpt>
      <trkpt lat="43.53441" lon="6.33564">
        <ele>358.708984</ele>
        <time>2012-12-09T10:26:30Z</time>
      </trkpt>
      <trkpt lat="43.53459" lon="6.3356">
        <ele>358.228394</ele>
        <time>2012-12-09T10:26:48Z</time>
      </trkpt>
      <trkpt lat="43.53466" lon="6.33558">
        <ele>357.26709</ele>
        <time>2012-12-09T10:26:54Z</time>
      </trkpt>
      <trkpt lat="43.53479" lon="6.33549">
        <ele>356.305786</ele>
        <time>2012-12-09T10:27:07Z</time>
      </trkpt>
      <trkpt lat="43.53498" lon="6.33537">
        <ele>357.26709</ele>
        <time>2012-12-09T10:27:25Z</time>
      </trkpt>
      <trkpt lat="43.53527" lon="6.33526">
        <ele>358.228394</ele>
        <time>2012-12-09T10:27:49Z</time>
      </trkpt>
      <trkpt lat="43.53549" lon="6.33524">
        <ele>356.305786</ele>
        <time>2012-12-09T10:28:10Z</time>
      </trkpt>
      <trkpt lat="43.53564" lon="6.33519">
        <ele>357.747803</ele>
        <time>2012-12-09T10:28:25Z</time>
      </trkpt>
      <trkpt lat="43.53568" lon="6.33517">
        <ele>357.747803</ele>
        <time>2012-12-09T10:28:43Z</time>
      </trkpt>
      <trkpt lat="43.53566" lon="6.33518">
        <ele>358.228394</ele>
        <time>2012-12-09T10:29:13Z</time>
      </trkpt>
      <trkpt lat="43.53565" lon="6.33512">
        <ele>357.747803</ele>
        <time>2012-12-09T10:29:46Z</time>
      </trkpt>
      <trkpt lat="43.53562" lon="6.33516">
        <ele>358.228394</ele>
        <time>2012-12-09T10:30:18Z</time>
      </trkpt>
      <trkpt lat="43.53565" lon="6.33517">
        <ele>357.747803</ele>
        <time>2012-12-09T10:30:39Z</time>
      </trkpt>
      <trkpt lat="43.53569" lon="6.33517">
        <ele>360.151123</ele>
        <time>2012-12-09T10:30:59Z</time>
      </trkpt>
      <trkpt lat="43.53569" lon="6.33516">
        <ele>360.631714</ele>
        <time>2012-12-09T10:31:46Z</time>
      </trkpt>
      <trkpt lat="43.53569" lon="6.33516">
        <ele>361.112427</ele>
        <time>2012-12-09T10:32:11Z</time>
      </trkpt>
      <trkpt lat="43.5357" lon="6.33518">
        <ele>361.59314</ele>
        <time>2012-12-09T10:32:43Z</time>
      </trkpt>
      <trkpt lat="43.53572" lon="6.33517">
        <ele>362.07373</ele>
        <time>2012-12-09T10:33:33Z</time>
      </trkpt>
      <trkpt lat="43.53574" lon="6.33517">
        <ele>360.151123</ele>
        <time>2012-12-09T10:33:48Z</time>
      </trkpt>
      <trkpt lat="43.53574" lon="6.33518">
        <ele>360.151123</ele>
        <time>2012-12-09T10:34:22Z</time>
      </trkpt>
      <trkpt lat="43.53575" lon="6.33508">
        <ele>358.708984</ele>
        <time>2012-12-09T10:35:51Z</time>
      </trkpt>
      <trkpt lat="43.5358" lon="6.33486">
        <ele>355.825195</ele>
        <time>2012-12-09T10:36:08Z</time>
      </trkpt>
      <trkpt lat="43.53584" lon="6.33461">
        <ele>357.26709</ele>
        <time>2012-12-09T10:36:26Z</time>
      </trkpt>
      <trkpt lat="43.53591" lon="6.3345">
        <ele>358.708984</ele>
        <time>2012-12-09T10:36:39Z</time>
      </trkpt>
      <trkpt lat="43.53601" lon="6.33448">
        <ele>361.112427</ele>
        <time>2012-12-09T10:36:50Z</time>
      </trkpt>
      <trkpt lat="43.53605" lon="6.33444">
        <ele>361.112427</ele>
        <time>2012-12-09T10:36:53Z</time>
      </trkpt>
      <trkpt lat="43.53618" lon="6.33436">
        <ele>362.07373</ele>
        <time>2012-12-09T10:37:03Z</time>
      </trkpt>
      <trkpt lat="43.53626" lon="6.33429">
        <ele>360.631714</ele>
        <time>2012-12-09T10:37:13Z</time>
      </trkpt>
      <trkpt lat="43.53632" lon="6.3342">
        <ele>361.59314</ele>
        <time>2012-12-09T10:37:21Z</time>
      </trkpt>
      <trkpt lat="43.53633" lon="6.33419">
        <ele>361.59314</ele>
        <time>2012-12-09T10:37:22Z</time>
      </trkpt>
      <trkpt lat="43.53648" lon="6.33406">
        <ele>362.554321</ele>
        <time>2012-12-09T10:37:37Z</time>
      </trkpt>
      <trkpt lat="43.53658" lon="6.33398">
        <ele>361.112427</ele>
        <time>2012-12-09T10:37:50Z</time>
      </trkpt>
      <trkpt lat="43.53674" lon="6.33381">
        <ele>359.189697</ele>
        <time>2012-12-09T10:38:09Z</time>
      </trkpt>
      <trkpt lat="43.53684" lon="6.33366">
        <ele>359.189697</ele>
        <time>2012-12-09T10:38:21Z</time>
      </trkpt>
      <trkpt lat="43.53692" lon="6.33355">
        <ele>360.151123</ele>
        <time>2012-12-09T10:38:31Z</time>
      </trkpt>
      <trkpt lat="43.53694" lon="6.33352">
        <ele>360.631714</ele>
        <time>2012-12-09T10:38:34Z</time>
      </trkpt>
      <trkpt lat="43.53702" lon="6.33339">
        <ele>362.554321</ele>
        <time>2012-12-09T10:38:44Z</time>
      </trkpt>
      <trkpt lat="43.53713" lon="6.33319">
        <ele>366.880249</ele>
        <time>2012-12-09T10:38:57Z</time>
      </trkpt>
      <trkpt lat="43.53721" lon="6.33306">
        <ele>368.802979</ele>
        <time>2012-12-09T10:39:08Z</time>
      </trkpt>
      <trkpt lat="43.53729" lon="6.33296">
        <ele>369.283691</ele>
        <time>2012-12-09T10:39:19Z</time>
      </trkpt>
      <trkpt lat="43.5373" lon="6.3329">
        <ele>369.764282</ele>
        <time>2012-12-09T10:39:23Z</time>
      </trkpt>
      <trkpt lat="43.53741" lon="6.33278">
        <ele>371.206299</ele>
        <time>2012-12-09T10:39:35Z</time>
      </trkpt>
      <trkpt lat="43.53745" lon="6.33274">
        <ele>371.68689</ele>
        <time>2012-12-09T10:39:37Z</time>
      </trkpt>
      <trkpt lat="43.53758" lon="6.33254">
        <ele>373.128906</ele>
        <time>2012-12-09T10:39:54Z</time>
      </trkpt>
      <trkpt lat="43.5376" lon="6.3325">
        <ele>373.609497</ele>
        <time>2012-12-09T10:39:57Z</time>
      </trkpt>
      <trkpt lat="43.53772" lon="6.33232">
        <ele>376.974243</ele>
        <time>2012-12-09T10:40:13Z</time>
      </trkpt>
      <trkpt lat="43.53773" lon="6.33231">
        <ele>376.974243</ele>
        <time>2012-12-09T10:40:14Z</time>
      </trkpt>
      <trkpt lat="43.53778" lon="6.33226">
        <ele>377.935425</ele>
        <time>2012-12-09T10:40:18Z</time>
      </trkpt>
      <trkpt lat="43.53782" lon="6.33222">
        <ele>376.974243</ele>
        <time>2012-12-09T10:40:22Z</time>
      </trkpt>
      <trkpt lat="43.53785" lon="6.33214">
        <ele>377.454834</ele>
        <time>2012-12-09T10:40:28Z</time>
      </trkpt>
      <trkpt lat="43.53789" lon="6.33206">
        <ele>377.454834</ele>
        <time>2012-12-09T10:40:34Z</time>
      </trkpt>
      <trkpt lat="43.53792" lon="6.33202">
        <ele>378.416138</ele>
        <time>2012-12-09T10:40:37Z</time>
      </trkpt>
      <trkpt lat="43.53799" lon="6.33188">
        <ele>376.974243</ele>
        <time>2012-12-09T10:40:48Z</time>
      </trkpt>
      <trkpt lat="43.53803" lon="6.33183">
        <ele>376.49353</ele>
        <time>2012-12-09T10:40:51Z</time>
      </trkpt>
      <trkpt lat="43.53817" lon="6.33174">
        <ele>375.532104</ele>
        <time>2012-12-09T10:41:02Z</time>
      </trkpt>
      <trkpt lat="43.53824" lon="6.33161">
        <ele>373.609497</ele>
        <time>2012-12-09T10:41:14Z</time>
      </trkpt>
      <trkpt lat="43.53838" lon="6.33147">
        <ele>373.128906</ele>
        <time>2012-12-09T10:41:29Z</time>
      </trkpt>
      <trkpt lat="43.53845" lon="6.33138">
        <ele>373.128906</ele>
        <time>2012-12-09T10:41:50Z</time>
      </trkpt>
      <trkpt lat="43.53852" lon="6.33134">
        <ele>373.128906</ele>
        <time>2012-12-09T10:42:02Z</time>
      </trkpt>
      <trkpt lat="43.53855" lon="6.33131">
        <ele>373.609497</ele>
        <time>2012-12-09T10:42:06Z</time>
      </trkpt>
      <trkpt lat="43.5386" lon="6.33122">
        <ele>374.090088</ele>
        <time>2012-12-09T10:42:18Z</time>
      </trkpt>
      <trkpt lat="43.53865" lon="6.33114">
        <ele>374.570801</ele>
        <time>2012-12-09T10:42:24Z</time>
      </trkpt>
      <trkpt lat="43.53867" lon="6.33112">
        <ele>374.090088</ele>
        <time>2012-12-09T10:42:26Z</time>
      </trkpt>
      <trkpt lat="43.53882" lon="6.33097">
        <ele>374.090088</ele>
        <time>2012-12-09T10:42:43Z</time>
      </trkpt>
      <trkpt lat="43.53887" lon="6.33093">
        <ele>374.090088</ele>
        <time>2012-12-09T10:42:47Z</time>
      </trkpt>
      <trkpt lat="43.53895" lon="6.33086">
        <ele>374.570801</ele>
        <time>2012-12-09T10:42:58Z</time>
      </trkpt>
      <trkpt lat="43.53901" lon="6.33082">
        <ele>374.570801</ele>
        <time>2012-12-09T10:43:02Z</time>
      </trkpt>
      <trkpt lat="43.53911" lon="6.33069">
        <ele>375.532104</ele>
        <time>2012-12-09T10:43:16Z</time>
      </trkpt>
      <trkpt lat="43.53911" lon="6.33065">
        <ele>376.012817</ele>
        <time>2012-12-09T10:43:20Z</time>
      </trkpt>
      <trkpt lat="43.53916" lon="6.3306">
        <ele>376.012817</ele>
        <time>2012-12-09T10:43:24Z</time>
      </trkpt>
      <trkpt lat="43.53925" lon="6.3305">
        <ele>374.570801</ele>
        <time>2012-12-09T10:43:34Z</time>
      </trkpt>
      <trkpt lat="43.53933" lon="6.33042">
        <ele>374.570801</ele>
        <time>2012-12-09T10:43:41Z</time>
      </trkpt>
      <trkpt lat="43.53935" lon="6.33042">
        <ele>375.051514</ele>
        <time>2012-12-09T10:43:43Z</time>
      </trkpt>
      <trkpt lat="43.53938" lon="6.33037">
        <ele>375.051514</ele>
        <time>2012-12-09T10:43:46Z</time>
      </trkpt>
      <trkpt lat="43.53945" lon="6.33025">
        <ele>376.012817</ele>
        <time>2012-12-09T10:43:58Z</time>
      </trkpt>
      <trkpt lat="43.53953" lon="6.33008">
        <ele>377.454834</ele>
        <time>2012-12-09T10:44:12Z</time>
      </trkpt>
      <trkpt lat="43.5396" lon="6.32996">
        <ele>380.338745</ele>
        <time>2012-12-09T10:44:25Z</time>
      </trkpt>
      <trkpt lat="43.53973" lon="6.32972">
        <ele>383.222656</ele>
        <time>2012-12-09T10:44:44Z</time>
      </trkpt>
      <trkpt lat="43.53976" lon="6.32968">
        <ele>382.742065</ele>
        <time>2012-12-09T10:44:48Z</time>
      </trkpt>
      <trkpt lat="43.53987" lon="6.32956">
        <ele>382.261353</ele>
        <time>2012-12-09T10:45:00Z</time>
      </trkpt>
      <trkpt lat="43.53996" lon="6.32947">
        <ele>381.300049</ele>
        <time>2012-12-09T10:45:12Z</time>
      </trkpt>
      <trkpt lat="43.54008" lon="6.32945">
        <ele>380.338745</ele>
        <time>2012-12-09T10:45:25Z</time>
      </trkpt>
      <trkpt lat="43.54013" lon="6.32944">
        <ele>379.858032</ele>
        <time>2012-12-09T10:45:31Z</time>
      </trkpt>
      <trkpt lat="43.54017" lon="6.32944">
        <ele>378.896851</ele>
        <time>2012-12-09T10:45:35Z</time>
      </trkpt>
      <trkpt lat="43.54029" lon="6.32946">
        <ele>378.896851</ele>
        <time>2012-12-09T10:45:47Z</time>
      </trkpt>
      <trkpt lat="43.54041" lon="6.32953">
        <ele>382.742065</ele>
        <time>2012-12-09T10:46:01Z</time>
      </trkpt>
      <trkpt lat="43.54052" lon="6.32957">
        <ele>380.819458</ele>
        <time>2012-12-09T10:46:15Z</time>
      </trkpt>
      <trkpt lat="43.54061" lon="6.32956">
        <ele>379.858032</ele>
        <time>2012-12-09T10:46:23Z</time>
      </trkpt>
      <trkpt lat="43.5407" lon="6.32948">
        <ele>380.819458</ele>
        <time>2012-12-09T10:46:36Z</time>
      </trkpt>
      <trkpt lat="43.54078" lon="6.32934">
        <ele>382.742065</ele>
        <time>2012-12-09T10:46:49Z</time>
      </trkpt>
      <trkpt lat="43.54089" lon="6.32909">
        <ele>382.261353</ele>
        <time>2012-12-09T10:47:07Z</time>
      </trkpt>
      <trkpt lat="43.54097" lon="6.329">
        <ele>381.78064</ele>
        <time>2012-12-09T10:47:20Z</time>
      </trkpt>
      <trkpt lat="43.54105" lon="6.32893">
        <ele>383.703247</ele>
        <time>2012-12-09T10:47:32Z</time>
      </trkpt>
      <trkpt lat="43.54115" lon="6.32888">
        <ele>385.625977</ele>
        <time>2012-12-09T10:47:45Z</time>
      </trkpt>
      <trkpt lat="43.54127" lon="6.32884">
        <ele>387.548584</ele>
        <time>2012-12-09T10:47:58Z</time>
      </trkpt>
      <trkpt lat="43.54134" lon="6.32882">
        <ele>388.51001</ele>
        <time>2012-12-09T10:48:06Z</time>
      </trkpt>
      <trkpt lat="43.54145" lon="6.32885">
        <ele>388.51001</ele>
        <time>2012-12-09T10:48:14Z</time>
      </trkpt>
      <trkpt lat="43.54148" lon="6.32883">
        <ele>388.990601</ele>
        <time>2012-12-09T10:48:19Z</time>
      </trkpt>
      <trkpt lat="43.54157" lon="6.32876">
        <ele>389.951904</ele>
        <time>2012-12-09T10:48:28Z</time>
      </trkpt>
      <trkpt lat="43.54165" lon="6.32868">
        <ele>388.029297</ele>
        <time>2012-12-09T10:48:43Z</time>
      </trkpt>
      <trkpt lat="43.54166" lon="6.3286">
        <ele>388.029297</ele>
        <time>2012-12-09T10:49:01Z</time>
      </trkpt>
      <trkpt lat="43.54168" lon="6.32864">
        <ele>388.990601</ele>
        <time>2012-12-09T10:49:17Z</time>
      </trkpt>
      <trkpt lat="43.54177" lon="6.32871">
        <ele>388.990601</ele>
        <time>2012-12-09T10:49:27Z</time>
      </trkpt>
      <trkpt lat="43.54181" lon="6.32875">
        <ele>388.51001</ele>
        <time>2012-12-09T10:49:31Z</time>
      </trkpt>
      <trkpt lat="43.54195" lon="6.32874">
        <ele>390.913208</ele>
        <time>2012-12-09T10:49:43Z</time>
      </trkpt>
      <trkpt lat="43.54206" lon="6.32875">
        <ele>389.471191</ele>
        <time>2012-12-09T10:49:53Z</time>
      </trkpt>
      <trkpt lat="43.54208" lon="6.32875">
        <ele>388.990601</ele>
        <time>2012-12-09T10:49:55Z</time>
      </trkpt>
      <trkpt lat="43.54223" lon="6.32873">
        <ele>388.51001</ele>
        <time>2012-12-09T10:50:09Z</time>
      </trkpt>
      <trkpt lat="43.54235" lon="6.32875">
        <ele>389.951904</ele>
        <time>2012-12-09T10:50:22Z</time>
      </trkpt>
      <trkpt lat="43.54249" lon="6.32879">
        <ele>391.393799</ele>
        <time>2012-12-09T10:50:33Z</time>
      </trkpt>
      <trkpt lat="43.54258" lon="6.32881">
        <ele>391.874512</ele>
        <time>2012-12-09T10:50:45Z</time>
      </trkpt>
      <trkpt lat="43.54272" lon="6.32883">
        <ele>390.432617</ele>
        <time>2012-12-09T10:50:58Z</time>
      </trkpt>
      <trkpt lat="43.54273" lon="6.32883">
        <ele>390.432617</ele>
        <time>2012-12-09T10:50:59Z</time>
      </trkpt>
      <trkpt lat="43.54293" lon="6.32893">
        <ele>389.471191</ele>
        <time>2012-12-09T10:51:15Z</time>
      </trkpt>
      <trkpt lat="43.54305" lon="6.32898">
        <ele>388.990601</ele>
        <time>2012-12-09T10:51:25Z</time>
      </trkpt>
      <trkpt lat="43.5432" lon="6.32896">
        <ele>385.145386</ele>
        <time>2012-12-09T10:51:38Z</time>
      </trkpt>
      <trkpt lat="43.54335" lon="6.32887">
        <ele>384.184082</ele>
        <time>2012-12-09T10:51:51Z</time>
      </trkpt>
      <trkpt lat="43.5435" lon="6.3288">
        <ele>384.664795</ele>
        <time>2012-12-09T10:52:04Z</time>
      </trkpt>
      <trkpt lat="43.54351" lon="6.32879">
        <ele>384.184082</ele>
        <time>2012-12-09T10:52:05Z</time>
      </trkpt>
      <trkpt lat="43.54367" lon="6.32867">
        <ele>384.664795</ele>
        <time>2012-12-09T10:52:22Z</time>
      </trkpt>
      <trkpt lat="43.54382" lon="6.32864">
        <ele>384.664795</ele>
        <time>2012-12-09T10:52:38Z</time>
      </trkpt>
      <trkpt lat="43.54388" lon="6.32865">
        <ele>385.145386</ele>
        <time>2012-12-09T10:52:44Z</time>
      </trkpt>
      <trkpt lat="43.54402" lon="6.32853">
        <ele>385.625977</ele>
        <time>2012-12-09T10:52:58Z</time>
      </trkpt>
      <trkpt lat="43.54405" lon="6.3285">
        <ele>386.106689</ele>
        <time>2012-12-09T10:53:01Z</time>
      </trkpt>
      <trkpt lat="43.5442" lon="6.32833">
        <ele>386.587402</ele>
        <time>2012-12-09T10:53:18Z</time>
      </trkpt>
      <trkpt lat="43.54434" lon="6.32814">
        <ele>385.625977</ele>
        <time>2012-12-09T10:53:36Z</time>
      </trkpt>
      <trkpt lat="43.54446" lon="6.32788">
        <ele>383.703247</ele>
        <time>2012-12-09T10:53:56Z</time>
      </trkpt>
      <trkpt lat="43.54457" lon="6.32771">
        <ele>379.858032</ele>
        <time>2012-12-09T10:54:13Z</time>
      </trkpt>
      <trkpt lat="43.54467" lon="6.32762">
        <ele>378.416138</ele>
        <time>2012-12-09T10:54:23Z</time>
      </trkpt>
      <trkpt lat="43.54482" lon="6.32752">
        <ele>377.935425</ele>
        <time>2012-12-09T10:54:39Z</time>
      </trkpt>
      <trkpt lat="43.54496" lon="6.3274">
        <ele>376.012817</ele>
        <time>2012-12-09T10:54:54Z</time>
      </trkpt>
      <trkpt lat="43.54502" lon="6.32737">
        <ele>376.012817</ele>
        <time>2012-12-09T10:55:03Z</time>
      </trkpt>
      <trkpt lat="43.54506" lon="6.3273">
        <ele>375.532104</ele>
        <time>2012-12-09T10:55:08Z</time>
      </trkpt>
      <trkpt lat="43.54525" lon="6.32701">
        <ele>376.49353</ele>
        <time>2012-12-09T10:55:29Z</time>
      </trkpt>
      <trkpt lat="43.5452" lon="6.32664">
        <ele>375.051514</ele>
        <time>2012-12-09T10:55:49Z</time>
      </trkpt>
      <trkpt lat="43.5452" lon="6.32661">
        <ele>375.532104</ele>
        <time>2012-12-09T10:55:50Z</time>
      </trkpt>
      <trkpt lat="43.54522" lon="6.32653">
        <ele>376.49353</ele>
        <time>2012-12-09T10:55:55Z</time>
      </trkpt>
      <trkpt lat="43.54526" lon="6.32645">
        <ele>377.935425</ele>
        <time>2012-12-09T10:56:01Z</time>
      </trkpt>
      <trkpt lat="43.54526" lon="6.32629">
        <ele>378.896851</ele>
        <time>2012-12-09T10:56:17Z</time>
      </trkpt>
      <trkpt lat="43.5453" lon="6.32628">
        <ele>378.896851</ele>
        <time>2012-12-09T10:56:36Z</time>
      </trkpt>
      <trkpt lat="43.54537" lon="6.32619">
        <ele>379.858032</ele>
        <time>2012-12-09T10:56:53Z</time>
      </trkpt>
      <trkpt lat="43.54543" lon="6.32622">
        <ele>381.300049</ele>
        <time>2012-12-09T10:57:02Z</time>
      </trkpt>
      <trkpt lat="43.54549" lon="6.32638">
        <ele>383.222656</ele>
        <time>2012-12-09T10:57:16Z</time>
      </trkpt>
      <trkpt lat="43.54551" lon="6.32645">
        <ele>381.78064</ele>
        <time>2012-12-09T10:57:21Z</time>
      </trkpt>
      <trkpt lat="43.54554" lon="6.32652">
        <ele>382.742065</ele>
        <time>2012-12-09T10:57:26Z</time>
      </trkpt>
      <trkpt lat="43.54567" lon="6.32658">
        <ele>385.145386</ele>
        <time>2012-12-09T10:57:43Z</time>
      </trkpt>
      <trkpt lat="43.54577" lon="6.32658">
        <ele>384.664795</ele>
        <time>2012-12-09T10:57:56Z</time>
      </trkpt>
      <trkpt lat="43.5459" lon="6.32661">
        <ele>384.664795</ele>
        <time>2012-12-09T10:58:08Z</time>
      </trkpt>
      <trkpt lat="43.54596" lon="6.32663">
        <ele>383.703247</ele>
        <time>2012-12-09T10:58:13Z</time>
      </trkpt>
      <trkpt lat="43.54603" lon="6.32669">
        <ele>383.703247</ele>
        <time>2012-12-09T10:58:21Z</time>
      </trkpt>
      <trkpt lat="43.54619" lon="6.32675">
        <ele>381.300049</ele>
        <time>2012-12-09T10:58:35Z</time>
      </trkpt>
      <trkpt lat="43.54629" lon="6.32685">
        <ele>382.742065</ele>
        <time>2012-12-09T10:58:48Z</time>
      </trkpt>
      <trkpt lat="43.54643" lon="6.32689">
        <ele>384.184082</ele>
        <time>2012-12-09T10:59:02Z</time>
      </trkpt>
      <trkpt lat="43.54646" lon="6.3269">
        <ele>385.145386</ele>
        <time>2012-12-09T10:59:05Z</time>
      </trkpt>
      <trkpt lat="43.54656" lon="6.32691">
        <ele>388.029297</ele>
        <time>2012-12-09T10:59:17Z</time>
      </trkpt>
      <trkpt lat="43.54673" lon="6.32696">
        <ele>388.990601</ele>
        <time>2012-12-09T10:59:34Z</time>
      </trkpt>
      <trkpt lat="43.54685" lon="6.32701">
        <ele>389.951904</ele>
        <time>2012-12-09T10:59:45Z</time>
      </trkpt>
      <trkpt lat="43.54686" lon="6.32702">
        <ele>390.913208</ele>
        <time>2012-12-09T10:59:46Z</time>
      </trkpt>
      <trkpt lat="43.54688" lon="6.32701">
        <ele>390.432617</ele>
        <time>2012-12-09T10:59:48Z</time>
      </trkpt>
      <trkpt lat="43.54702" lon="6.32703">
        <ele>388.990601</ele>
        <time>2012-12-09T11:00:02Z</time>
      </trkpt>
      <trkpt lat="43.54716" lon="6.32705">
        <ele>388.029297</ele>
        <time>2012-12-09T11:00:15Z</time>
      </trkpt>
      <trkpt lat="43.54725" lon="6.32701">
        <ele>387.548584</ele>
        <time>2012-12-09T11:00:26Z</time>
      </trkpt>
      <trkpt lat="43.5474" lon="6.32709">
        <ele>388.990601</ele>
        <time>2012-12-09T11:00:41Z</time>
      </trkpt>
      <trkpt lat="43.54756" lon="6.32716">
        <ele>388.990601</ele>
        <time>2012-12-09T11:00:57Z</time>
      </trkpt>
      <trkpt lat="43.54768" lon="6.32708">
        <ele>388.990601</ele>
        <time>2012-12-09T11:01:09Z</time>
      </trkpt>
      <trkpt lat="43.54784" lon="6.32697">
        <ele>390.913208</ele>
        <time>2012-12-09T11:01:29Z</time>
      </trkpt>
      <trkpt lat="43.54801" lon="6.32688">
        <ele>391.393799</ele>
        <time>2012-12-09T11:01:51Z</time>
      </trkpt>
      <trkpt lat="43.54805" lon="6.32685">
        <ele>391.393799</ele>
        <time>2012-12-09T11:01:55Z</time>
      </trkpt>
      <trkpt lat="43.54812" lon="6.32677">
        <ele>390.913208</ele>
        <time>2012-12-09T11:02:10Z</time>
      </trkpt>
      <trkpt lat="43.54819" lon="6.32673">
        <ele>389.951904</ele>
        <time>2012-12-09T11:02:32Z</time>
      </trkpt>
      <trkpt lat="43.54824" lon="6.32668">
        <ele>389.471191</ele>
        <time>2012-12-09T11:02:51Z</time>
      </trkpt>
      <trkpt lat="43.54835" lon="6.32649">
        <ele>388.029297</ele>
        <time>2012-12-09T11:03:09Z</time>
      </trkpt>
      <trkpt lat="43.54839" lon="6.32643">
        <ele>388.029297</ele>
        <time>2012-12-09T11:03:14Z</time>
      </trkpt>
      <trkpt lat="43.54841" lon="6.32638">
        <ele>387.548584</ele>
        <time>2012-12-09T11:03:17Z</time>
      </trkpt>
      <trkpt lat="43.54841" lon="6.32631">
        <ele>387.548584</ele>
        <time>2012-12-09T11:03:20Z</time>
      </trkpt>
      <trkpt lat="43.54846" lon="6.32612">
        <ele>387.067993</ele>
        <time>2012-12-09T11:03:33Z</time>
      </trkpt>
      <trkpt lat="43.5485" lon="6.32588">
        <ele>386.587402</ele>
        <time>2012-12-09T11:03:51Z</time>
      </trkpt>
      <trkpt lat="43.54851" lon="6.32579">
        <ele>386.587402</ele>
        <time>2012-12-09T11:03:57Z</time>
      </trkpt>
      <trkpt lat="43.54852" lon="6.32558">
        <ele>387.067993</ele>
        <time>2012-12-09T11:04:12Z</time>
      </trkpt>
      <trkpt lat="43.5486" lon="6.32538">
        <ele>387.067993</ele>
        <time>2012-12-09T11:04:29Z</time>
      </trkpt>
      <trkpt lat="43.54862" lon="6.32533">
        <ele>387.067993</ele>
        <time>2012-12-09T11:04:34Z</time>
      </trkpt>
      <trkpt lat="43.54863" lon="6.32528">
        <ele>386.587402</ele>
        <time>2012-12-09T11:04:36Z</time>
      </trkpt>
      <trkpt lat="43.54868" lon="6.32507">
        <ele>387.548584</ele>
        <time>2012-12-09T11:04:51Z</time>
      </trkpt>
      <trkpt lat="43.54868" lon="6.32504">
        <ele>388.029297</ele>
        <time>2012-12-09T11:04:52Z</time>
      </trkpt>
      <trkpt lat="43.54867" lon="6.32501">
        <ele>388.029297</ele>
        <time>2012-12-09T11:04:54Z</time>
      </trkpt>
      <trkpt lat="43.54866" lon="6.32479">
        <ele>388.990601</ele>
        <time>2012-12-09T11:05:09Z</time>
      </trkpt>
      <trkpt lat="43.54867" lon="6.32456">
        <ele>387.548584</ele>
        <time>2012-12-09T11:05:26Z</time>
      </trkpt>
      <trkpt lat="43.54868" lon="6.32452">
        <ele>388.029297</ele>
        <time>2012-12-09T11:05:29Z</time>
      </trkpt>
      <trkpt lat="43.54869" lon="6.32446">
        <ele>388.990601</ele>
        <time>2012-12-09T11:05:34Z</time>
      </trkpt>
      <trkpt lat="43.54877" lon="6.32434">
        <ele>390.432617</ele>
        <time>2012-12-09T11:05:45Z</time>
      </trkpt>
      <trkpt lat="43.54884" lon="6.32419">
        <ele>391.393799</ele>
        <time>2012-12-09T11:05:59Z</time>
      </trkpt>
      <trkpt lat="43.5489" lon="6.32401">
        <ele>388.990601</ele>
        <time>2012-12-09T11:06:16Z</time>
      </trkpt>
      <trkpt lat="43.54893" lon="6.32386">
        <ele>387.548584</ele>
        <time>2012-12-09T11:06:29Z</time>
      </trkpt>
      <trkpt lat="43.54903" lon="6.32367">
        <ele>382.261353</ele>
        <time>2012-12-09T11:06:46Z</time>
      </trkpt>
      <trkpt lat="43.5491" lon="6.32369">
        <ele>381.300049</ele>
        <time>2012-12-09T11:07:04Z</time>
      </trkpt>
      <trkpt lat="43.54925" lon="6.32381">
        <ele>380.338745</ele>
        <time>2012-12-09T11:07:24Z</time>
      </trkpt>
      <trkpt lat="43.54932" lon="6.32387">
        <ele>379.377441</ele>
        <time>2012-12-09T11:07:30Z</time>
      </trkpt>
      <trkpt lat="43.5494" lon="6.32396">
        <ele>378.416138</ele>
        <time>2012-12-09T11:07:43Z</time>
      </trkpt>
      <trkpt lat="43.54953" lon="6.32412">
        <ele>375.532104</ele>
        <time>2012-12-09T11:08:00Z</time>
      </trkpt>
      <trkpt lat="43.54968" lon="6.32424">
        <ele>373.609497</ele>
        <time>2012-12-09T11:08:15Z</time>
      </trkpt>
      <trkpt lat="43.54976" lon="6.32436">
        <ele>372.16748</ele>
        <time>2012-12-09T11:08:27Z</time>
      </trkpt>
      <trkpt lat="43.54986" lon="6.32458">
        <ele>371.206299</ele>
        <time>2012-12-09T11:08:44Z</time>
      </trkpt>
      <trkpt lat="43.54988" lon="6.3247">
        <ele>371.68689</ele>
        <time>2012-12-09T11:08:53Z</time>
      </trkpt>
      <trkpt lat="43.54988" lon="6.32475">
        <ele>371.68689</ele>
        <time>2012-12-09T11:08:56Z</time>
      </trkpt>
      <trkpt lat="43.54992" lon="6.32482">
        <ele>371.68689</ele>
        <time>2012-12-09T11:09:01Z</time>
      </trkpt>
      <trkpt lat="43.54996" lon="6.32493">
        <ele>373.128906</ele>
        <time>2012-12-09T11:09:08Z</time>
      </trkpt>
      <trkpt lat="43.54996" lon="6.32498">
        <ele>374.090088</ele>
        <time>2012-12-09T11:09:24Z</time>
      </trkpt>
      <trkpt lat="43.54997" lon="6.32498">
        <ele>374.570801</ele>
        <time>2012-12-09T11:12:04Z</time>
      </trkpt>
      <trkpt lat="43.54998" lon="6.32478">
        <ele>375.051514</ele>
        <time>2012-12-09T11:12:30Z</time>
      </trkpt>
      <trkpt lat="43.54997" lon="6.32456">
        <ele>375.051514</ele>
        <time>2012-12-09T11:12:46Z</time>
      </trkpt>
      <trkpt lat="43.54997" lon="6.32451">
        <ele>375.051514</ele>
        <time>2012-12-09T11:12:49Z</time>
      </trkpt>
      <trkpt lat="43.54996" lon="6.32449">
        <ele>375.051514</ele>
        <time>2012-12-09T11:12:51Z</time>
      </trkpt>
      <trkpt lat="43.54996" lon="6.32441">
        <ele>375.051514</ele>
        <time>2012-12-09T11:12:57Z</time>
      </trkpt>
      <trkpt lat="43.54996" lon="6.32434">
        <ele>375.051514</ele>
        <time>2012-12-09T11:13:02Z</time>
      </trkpt>
      <trkpt lat="43.54996" lon="6.32413">
        <ele>373.128906</ele>
        <time>2012-12-09T11:13:20Z</time>
      </trkpt>
      <trkpt lat="43.54999" lon="6.32401">
        <ele>373.128906</ele>
        <time>2012-12-09T11:13:35Z</time>
      </trkpt>
      <trkpt lat="43.54996" lon="6.32395">
        <ele>373.128906</ele>
        <time>2012-12-09T11:14:13Z</time>
      </trkpt>
      <trkpt lat="43.54995" lon="6.32379">
        <ele>373.128906</ele>
        <time>2012-12-09T11:14:35Z</time>
      </trkpt>
      <trkpt lat="43.55005" lon="6.32369">
        <ele>370.244873</ele>
        <time>2012-12-09T11:14:53Z</time>
      </trkpt>
      <trkpt lat="43.55006" lon="6.32369">
        <ele>370.244873</ele>
        <time>2012-12-09T11:14:54Z</time>
      </trkpt>
      <trkpt lat="43.55011" lon="6.3235">
        <ele>369.764282</ele>
        <time>2012-12-09T11:15:07Z</time>
      </trkpt>
      <trkpt lat="43.55014" lon="6.32341">
        <ele>369.764282</ele>
        <time>2012-12-09T11:15:14Z</time>
      </trkpt>
      <trkpt lat="43.55016" lon="6.3232">
        <ele>369.283691</ele>
        <time>2012-12-09T11:15:33Z</time>
      </trkpt>
      <trkpt lat="43.55018" lon="6.32311">
        <ele>369.764282</ele>
        <time>2012-12-09T11:16:01Z</time>
      </trkpt>
      <trkpt lat="43.55026" lon="6.32295">
        <ele>370.725586</ele>
        <time>2012-12-09T11:16:29Z</time>
      </trkpt>
      <trkpt lat="43.55032" lon="6.32278">
        <ele>370.725586</ele>
        <time>2012-12-09T11:16:54Z</time>
      </trkpt>
      <trkpt lat="43.55036" lon="6.32259">
        <ele>370.725586</ele>
        <time>2012-12-09T11:17:09Z</time>
      </trkpt>
      <trkpt lat="43.55041" lon="6.32235">
        <ele>370.244873</ele>
        <time>2012-12-09T11:17:33Z</time>
      </trkpt>
      <trkpt lat="43.55049" lon="6.3223">
        <ele>370.244873</ele>
        <time>2012-12-09T11:17:51Z</time>
      </trkpt>
      <trkpt lat="43.55067" lon="6.32213">
        <ele>368.802979</ele>
        <time>2012-12-09T11:18:19Z</time>
      </trkpt>
      <trkpt lat="43.55073" lon="6.32208">
        <ele>367.841553</ele>
        <time>2012-12-09T11:18:38Z</time>
      </trkpt>
      <trkpt lat="43.55087" lon="6.32193">
        <ele>367.841553</ele>
        <time>2012-12-09T11:18:57Z</time>
      </trkpt>
      <trkpt lat="43.55099" lon="6.32176">
        <ele>367.360962</ele>
        <time>2012-12-09T11:19:19Z</time>
      </trkpt>
      <trkpt lat="43.55101" lon="6.32174">
        <ele>367.841553</ele>
        <time>2012-12-09T11:19:35Z</time>
      </trkpt>
      <trkpt lat="43.55102" lon="6.32172">
        <ele>368.802979</ele>
        <time>2012-12-09T11:19:56Z</time>
      </trkpt>
      <trkpt lat="43.55106" lon="6.32163">
        <ele>368.322266</ele>
        <time>2012-12-09T11:20:16Z</time>
      </trkpt>
      <trkpt lat="43.55113" lon="6.32146">
        <ele>367.360962</ele>
        <time>2012-12-09T11:20:37Z</time>
      </trkpt>
      <trkpt lat="43.5513" lon="6.32132">
        <ele>366.880249</ele>
        <time>2012-12-09T11:20:57Z</time>
      </trkpt>
      <trkpt lat="43.5514" lon="6.32122">
        <ele>367.360962</ele>
        <time>2012-12-09T11:21:17Z</time>
      </trkpt>
      <trkpt lat="43.55143" lon="6.32128">
        <ele>367.841553</ele>
        <time>2012-12-09T11:21:30Z</time>
      </trkpt>
      <trkpt lat="43.55142" lon="6.32132">
        <ele>367.841553</ele>
        <time>2012-12-09T11:21:57Z</time>
      </trkpt>
      <trkpt lat="43.55142" lon="6.32139">
        <ele>366.399536</ele>
        <time>2012-12-09T11:22:09Z</time>
      </trkpt>
      <trkpt lat="43.55147" lon="6.32136">
        <ele>365.438354</ele>
        <time>2012-12-09T11:22:28Z</time>
      </trkpt>
      <trkpt lat="43.55168" lon="6.32134">
        <ele>364.476929</ele>
        <time>2012-12-09T11:22:53Z</time>
      </trkpt>
      <trkpt lat="43.55179" lon="6.32126">
        <ele>363.515747</ele>
        <time>2012-12-09T11:23:09Z</time>
      </trkpt>
      <trkpt lat="43.55187" lon="6.32118">
        <ele>363.515747</ele>
        <time>2012-12-09T11:23:19Z</time>
      </trkpt>
      <trkpt lat="43.55194" lon="6.32093">
        <ele>362.554321</ele>
        <time>2012-12-09T11:23:35Z</time>
      </trkpt>
      <trkpt lat="43.55194" lon="6.32088">
        <ele>360.631714</ele>
        <time>2012-12-09T11:23:59Z</time>
      </trkpt>
      <trkpt lat="43.55192" lon="6.32086">
        <ele>360.151123</ele>
        <time>2012-12-09T11:24:20Z</time>
      </trkpt>
      <trkpt lat="43.55192" lon="6.32086">
        <ele>361.112427</ele>
        <time>2012-12-09T11:26:06Z</time>
      </trkpt>
      <trkpt lat="43.55192" lon="6.32089">
        <ele>359.189697</ele>
        <time>2012-12-09T11:27:00Z</time>
      </trkpt>
      <trkpt lat="43.55191" lon="6.32092">
        <ele>357.747803</ele>
        <time>2012-12-09T11:28:39Z</time>
      </trkpt>
      <trkpt lat="43.55204" lon="6.32093">
        <ele>357.747803</ele>
        <time>2012-12-09T11:29:42Z</time>
      </trkpt>
      <trkpt lat="43.55209" lon="6.32089">
        <ele>357.747803</ele>
        <time>2012-12-09T11:30:42Z</time>
      </trkpt>
      <trkpt lat="43.55203" lon="6.32089">
        <ele>357.747803</ele>
        <time>2012-12-09T11:31:06Z</time>
      </trkpt>
      <trkpt lat="43.5521" lon="6.32094">
        <ele>351.979858</ele>
        <time>2012-12-09T11:32:32Z</time>
      </trkpt>
      <trkpt lat="43.55209" lon="6.32101">
        <ele>351.979858</ele>
        <time>2012-12-09T11:32:50Z</time>
      </trkpt>
      <trkpt lat="43.55217" lon="6.32093">
        <ele>351.979858</ele>
        <time>2012-12-09T11:33:23Z</time>
      </trkpt>
      <trkpt lat="43.55219" lon="6.32083">
        <ele>350.057251</ele>
        <time>2012-12-09T11:33:38Z</time>
      </trkpt>
      <trkpt lat="43.55209" lon="6.32084">
        <ele>347.653931</ele>
        <time>2012-12-09T11:33:52Z</time>
      </trkpt>
      <trkpt lat="43.55209" lon="6.32084">
        <ele>347.173218</ele>
        <time>2012-12-09T11:34:02Z</time>
      </trkpt>
      <trkpt lat="43.55217" lon="6.3209">
        <ele>349.576538</ele>
        <time>2012-12-09T11:34:18Z</time>
      </trkpt>
      <trkpt lat="43.55228" lon="6.32087">
        <ele>352.460571</ele>
        <time>2012-12-09T11:34:34Z</time>
      </trkpt>
      <trkpt lat="43.55228" lon="6.32087">
        <ele>353.902588</ele>
        <time>2012-12-09T11:35:06Z</time>
      </trkpt>
      <trkpt lat="43.55224" lon="6.32085">
        <ele>354.86377</ele>
        <time>2012-12-09T11:35:22Z</time>
      </trkpt>
      <trkpt lat="43.55224" lon="6.3209">
        <ele>355.344482</ele>
        <time>2012-12-09T11:35:26Z</time>
      </trkpt>
      <trkpt lat="43.55223" lon="6.32107">
        <ele>356.786377</ele>
        <time>2012-12-09T11:35:43Z</time>
      </trkpt>
      <trkpt lat="43.55231" lon="6.32122">
        <ele>354.86377</ele>
        <time>2012-12-09T11:35:55Z</time>
      </trkpt>
      <trkpt lat="43.55224" lon="6.32117">
        <ele>353.421875</ele>
        <time>2012-12-09T11:36:11Z</time>
      </trkpt>
      <trkpt lat="43.55226" lon="6.32103">
        <ele>351.018433</ele>
        <time>2012-12-09T11:36:25Z</time>
      </trkpt>
      <trkpt lat="43.55223" lon="6.32101">
        <ele>349.576538</ele>
        <time>2012-12-09T11:36:39Z</time>
      </trkpt>
      <trkpt lat="43.55224" lon="6.32113">
        <ele>349.576538</ele>
        <time>2012-12-09T11:36:57Z</time>
      </trkpt>
      <trkpt lat="43.55226" lon="6.32121">
        <ele>347.173218</ele>
        <time>2012-12-09T11:37:17Z</time>
      </trkpt>
      <trkpt lat="43.55229" lon="6.32123">
        <ele>346.692627</ele>
        <time>2012-12-09T11:38:04Z</time>
      </trkpt>
      <trkpt lat="43.55232" lon="6.32128">
        <ele>346.212036</ele>
        <time>2012-12-09T11:38:18Z</time>
      </trkpt>
      <trkpt lat="43.55227" lon="6.32137">
        <ele>348.615234</ele>
        <time>2012-12-09T11:38:37Z</time>
      </trkpt>
      <trkpt lat="43.55222" lon="6.32136">
        <ele>349.095825</ele>
        <time>2012-12-09T11:38:52Z</time>
      </trkpt>
      <trkpt lat="43.55215" lon="6.32137">
        <ele>350.057251</ele>
        <time>2012-12-09T11:39:09Z</time>
      </trkpt>
      <trkpt lat="43.55217" lon="6.32146">
        <ele>351.499146</ele>
        <time>2012-12-09T11:39:22Z</time>
      </trkpt>
      <trkpt lat="43.55217" lon="6.32142">
        <ele>350.537842</ele>
        <time>2012-12-09T11:39:36Z</time>
      </trkpt>
      <trkpt lat="43.55217" lon="6.32137">
        <ele>349.576538</ele>
        <time>2012-12-09T11:39:58Z</time>
      </trkpt>
      <trkpt lat="43.55214" lon="6.32139">
        <ele>349.576538</ele>
        <time>2012-12-09T11:40:13Z</time>
      </trkpt>
      <trkpt lat="43.55211" lon="6.32137">
        <ele>349.576538</ele>
        <time>2012-12-09T11:40:16Z</time>
      </trkpt>
      <trkpt lat="43.552" lon="6.32128">
        <ele>352.941162</ele>
        <time>2012-12-09T11:40:36Z</time>
      </trkpt>
      <trkpt lat="43.55201" lon="6.32128">
        <ele>352.460571</ele>
        <time>2012-12-09T11:40:55Z</time>
      </trkpt>
      <trkpt lat="43.55191" lon="6.32116">
        <ele>353.902588</ele>
        <time>2012-12-09T11:41:18Z</time>
      </trkpt>
      <trkpt lat="43.55187" lon="6.32114">
        <ele>352.460571</ele>
        <time>2012-12-09T11:41:36Z</time>
      </trkpt>
      <trkpt lat="43.55186" lon="6.32117">
        <ele>351.499146</ele>
        <time>2012-12-09T11:41:56Z</time>
      </trkpt>
      <trkpt lat="43.55185" lon="6.32115">
        <ele>352.460571</ele>
        <time>2012-12-09T11:42:30Z</time>
      </trkpt>
      <trkpt lat="43.55188" lon="6.32118">
        <ele>352.941162</ele>
        <time>2012-12-09T11:43:57Z</time>
      </trkpt>
      <trkpt lat="43.55186" lon="6.32132">
        <ele>353.902588</ele>
        <time>2012-12-09T11:44:18Z</time>
      </trkpt>
      <trkpt lat="43.55174" lon="6.32133">
        <ele>355.344482</ele>
        <time>2012-12-09T11:44:41Z</time>
      </trkpt>
      <trkpt lat="43.55183" lon="6.32134">
        <ele>354.383179</ele>
        <time>2012-12-09T11:45:04Z</time>
      </trkpt>
      <trkpt lat="43.55181" lon="6.32135">
        <ele>354.383179</ele>
        <time>2012-12-09T11:45:20Z</time>
      </trkpt>
      <trkpt lat="43.55184" lon="6.32138">
        <ele>354.383179</ele>
        <time>2012-12-09T11:45:42Z</time>
      </trkpt>
      <trkpt lat="43.55186" lon="6.32132">
        <ele>354.86377</ele>
        <time>2012-12-09T11:46:00Z</time>
      </trkpt>
      <trkpt lat="43.55184" lon="6.32121">
        <ele>355.825195</ele>
        <time>2012-12-09T11:46:21Z</time>
      </trkpt>
      <trkpt lat="43.55191" lon="6.32106">
        <ele>351.018433</ele>
        <time>2012-12-09T11:47:17Z</time>
      </trkpt>
      <trkpt lat="43.55204" lon="6.32095">
        <ele>346.212036</ele>
        <time>2012-12-09T11:47:34Z</time>
      </trkpt>
      <trkpt lat="43.55214" lon="6.32093">
        <ele>346.212036</ele>
        <time>2012-12-09T11:47:50Z</time>
      </trkpt>
      <trkpt lat="43.55233" lon="6.3209">
        <ele>350.057251</ele>
        <time>2012-12-09T11:48:12Z</time>
      </trkpt>
      <trkpt lat="43.55233" lon="6.32088">
        <ele>350.537842</ele>
        <time>2012-12-09T11:48:23Z</time>
      </trkpt>
      <trkpt lat="43.55228" lon="6.32085">
        <ele>347.653931</ele>
        <time>2012-12-09T11:49:48Z</time>
      </trkpt>
      <trkpt lat="43.55227" lon="6.32088">
        <ele>348.134644</ele>
        <time>2012-12-09T11:50:08Z</time>
      </trkpt>
      <trkpt lat="43.55228" lon="6.32088">
        <ele>347.653931</ele>
        <time>2012-12-09T11:51:05Z</time>
      </trkpt>
      <trkpt lat="43.55232" lon="6.32089">
        <ele>347.653931</ele>
        <time>2012-12-09T11:51:27Z</time>
      </trkpt>
      <trkpt lat="43.55234" lon="6.32089">
        <ele>345.731323</ele>
        <time>2012-12-09T11:52:09Z</time>
      </trkpt>
      <trkpt lat="43.55234" lon="6.3209">
        <ele>344.289429</ele>
        <time>2012-12-09T11:54:49Z</time>
      </trkpt>
      <trkpt lat="43.55234" lon="6.32091">
        <ele>342.84729</ele>
        <time>2012-12-09T11:55:32Z</time>
      </trkpt>
      <trkpt lat="43.55234" lon="6.3209">
        <ele>341.405273</ele>
        <time>2012-12-09T11:55:58Z</time>
      </trkpt>
      <trkpt lat="43.55234" lon="6.3209">
        <ele>340.924683</ele>
        <time>2012-12-09T11:56:34Z</time>
      </trkpt>
      <trkpt lat="43.55234" lon="6.3209">
        <ele>340.444092</ele>
        <time>2012-12-09T11:57:14Z</time>
      </trkpt>
      <trkpt lat="43.5523" lon="6.3209">
        <ele>341.405273</ele>
        <time>2012-12-09T11:58:28Z</time>
      </trkpt>
      <trkpt lat="43.55233" lon="6.32087">
        <ele>340.924683</ele>
        <time>2012-12-09T11:58:44Z</time>
      </trkpt>
      <trkpt lat="43.55232" lon="6.32087">
        <ele>341.405273</ele>
        <time>2012-12-09T11:59:16Z</time>
      </trkpt>
      <trkpt lat="43.55232" lon="6.32086">
        <ele>338.521484</ele>
        <time>2012-12-09T11:59:39Z</time>
      </trkpt>
      <trkpt lat="43.55233" lon="6.32086">
        <ele>339.002075</ele>
        <time>2012-12-09T12:00:07Z</time>
      </trkpt>
      <trkpt lat="43.55232" lon="6.32087">
        <ele>340.924683</ele>
        <time>2012-12-09T12:00:32Z</time>
      </trkpt>
      <trkpt lat="43.55233" lon="6.32087">
        <ele>339.963379</ele>
        <time>2012-12-09T12:00:47Z</time>
      </trkpt>
      <trkpt lat="43.55233" lon="6.32087">
        <ele>339.482666</ele>
        <time>2012-12-09T12:01:31Z</time>
      </trkpt>
      <trkpt lat="43.55232" lon="6.32087">
        <ele>339.482666</ele>
        <time>2012-12-09T12:02:16Z</time>
      </trkpt>
      <trkpt lat="43.55231" lon="6.32087">
        <ele>339.002075</ele>
        <time>2012-12-09T12:02:59Z</time>
      </trkpt>
      <trkpt lat="43.55231" lon="6.32085">
        <ele>339.482666</ele>
        <time>2012-12-09T12:03:28Z</time>
      </trkpt>
      <trkpt lat="43.55231" lon="6.32088">
        <ele>339.002075</ele>
        <time>2012-12-09T12:03:53Z</time>
      </trkpt>
      <trkpt lat="43.55232" lon="6.32086">
        <ele>339.482666</ele>
        <time>2012-12-09T12:04:44Z</time>
      </trkpt>
      <trkpt lat="43.55233" lon="6.32087">
        <ele>339.482666</ele>
        <time>2012-12-09T12:05:21Z</time>
      </trkpt>
      <trkpt lat="43.55233" lon="6.32088">
        <ele>338.040771</ele>
        <time>2012-12-09T12:08:01Z</time>
      </trkpt>
      <trkpt lat="43.55234" lon="6.32088">
        <ele>339.002075</ele>
        <time>2012-12-09T12:08:35Z</time>
      </trkpt>
      <trkpt lat="43.55235" lon="6.32087">
        <ele>340.444092</ele>
        <time>2012-12-09T12:09:26Z</time>
      </trkpt>
      <trkpt lat="43.55235" lon="6.32088">
        <ele>339.963379</ele>
        <time>2012-12-09T12:09:55Z</time>
      </trkpt>
      <trkpt lat="43.55232" lon="6.32086">
        <ele>340.924683</ele>
        <time>2012-12-09T12:13:13Z</time>
      </trkpt>
      <trkpt lat="43.55233" lon="6.32086">
        <ele>339.963379</ele>
        <time>2012-12-09T12:13:37Z</time>
      </trkpt>
      <trkpt lat="43.55233" lon="6.32087">
        <ele>340.444092</ele>
        <time>2012-12-09T12:13:55Z</time>
      </trkpt>
      <trkpt lat="43.55231" lon="6.32083">
        <ele>341.405273</ele>
        <time>2012-12-09T12:14:50Z</time>
      </trkpt>
      <trkpt lat="43.55232" lon="6.32085">
        <ele>341.885986</ele>
        <time>2012-12-09T12:15:25Z</time>
      </trkpt>
      <trkpt lat="43.55233" lon="6.32089">
        <ele>340.924683</ele>
        <time>2012-12-09T12:15:36Z</time>
      </trkpt>
      <trkpt lat="43.55233" lon="6.32088">
        <ele>340.924683</ele>
        <time>2012-12-09T12:16:18Z</time>
      </trkpt>
      <trkpt lat="43.55235" lon="6.32089">
        <ele>341.885986</ele>
        <time>2012-12-09T12:17:17Z</time>
      </trkpt>
      <trkpt lat="43.55236" lon="6.32088">
        <ele>340.444092</ele>
        <time>2012-12-09T12:17:47Z</time>
      </trkpt>
      <trkpt lat="43.55235" lon="6.32089">
        <ele>342.366699</ele>
        <time>2012-12-09T12:20:01Z</time>
      </trkpt>
      <trkpt lat="43.55235" lon="6.32089">
        <ele>342.366699</ele>
        <time>2012-12-09T12:21:03Z</time>
      </trkpt>
      <trkpt lat="43.55235" lon="6.32089">
        <ele>342.366699</ele>
        <time>2012-12-09T12:22:04Z</time>
      </trkpt>
      <trkpt lat="43.55235" lon="6.32089">
        <ele>341.405273</ele>
        <time>2012-12-09T12:24:32Z</time>
      </trkpt>
      <trkpt lat="43.55235" lon="6.32089">
        <ele>341.405273</ele>
        <time>2012-12-09T12:26:01Z</time>
      </trkpt>
      <trkpt lat="43.55235" lon="6.32089">
        <ele>341.885986</ele>
        <time>2012-12-09T12:27:08Z</time>
      </trkpt>
      <trkpt lat="43.55235" lon="6.3209">
        <ele>341.885986</ele>
        <time>2012-12-09T12:27:30Z</time>
      </trkpt>
      <trkpt lat="43.55235" lon="6.32091">
        <ele>341.405273</ele>
        <time>2012-12-09T12:27:54Z</time>
      </trkpt>
      <trkpt lat="43.55235" lon="6.32091">
        <ele>341.405273</ele>
        <time>2012-12-09T12:28:30Z</time>
      </trkpt>
      <trkpt lat="43.55235" lon="6.32092">
        <ele>340.444092</ele>
        <time>2012-12-09T12:29:37Z</time>
      </trkpt>
      <trkpt lat="43.55235" lon="6.32091">
        <ele>340.444092</ele>
        <time>2012-12-09T12:30:06Z</time>
      </trkpt>
      <trkpt lat="43.55235" lon="6.32091">
        <ele>339.482666</ele>
        <time>2012-12-09T12:30:49Z</time>
      </trkpt>
      <trkpt lat="43.55234" lon="6.32091">
        <ele>338.521484</ele>
        <time>2012-12-09T12:32:48Z</time>
      </trkpt>
      <trkpt lat="43.55234" lon="6.32092">
        <ele>338.040771</ele>
        <time>2012-12-09T12:33:25Z</time>
      </trkpt>
      <trkpt lat="43.55234" lon="6.32093">
        <ele>338.040771</ele>
        <time>2012-12-09T12:34:36Z</time>
      </trkpt>
      <trkpt lat="43.55235" lon="6.32092">
        <ele>335.637329</ele>
        <time>2012-12-09T12:35:12Z</time>
      </trkpt>
      <trkpt lat="43.55236" lon="6.32093">
        <ele>334.676147</ele>
        <time>2012-12-09T12:36:26Z</time>
      </trkpt>
      <trkpt lat="43.55236" lon="6.32094">
        <ele>334.195435</ele>
        <time>2012-12-09T12:36:52Z</time>
      </trkpt>
      <trkpt lat="43.55236" lon="6.32093">
        <ele>333.714722</ele>
        <time>2012-12-09T12:38:41Z</time>
      </trkpt>
      <trkpt lat="43.55233" lon="6.32093">
        <ele>334.676147</ele>
        <time>2012-12-09T12:40:10Z</time>
      </trkpt>
      <trkpt lat="43.55233" lon="6.32092">
        <ele>333.714722</ele>
        <time>2012-12-09T12:40:37Z</time>
      </trkpt>
      <trkpt lat="43.55232" lon="6.32091">
        <ele>334.195435</ele>
        <time>2012-12-09T12:41:12Z</time>
      </trkpt>
      <trkpt lat="43.55232" lon="6.3209">
        <ele>333.714722</ele>
        <time>2012-12-09T12:41:29Z</time>
      </trkpt>
      <trkpt lat="43.55232" lon="6.3209">
        <ele>333.234131</ele>
        <time>2012-12-09T12:41:46Z</time>
      </trkpt>
      <trkpt lat="43.55232" lon="6.3209">
        <ele>332.75354</ele>
        <time>2012-12-09T12:42:54Z</time>
      </trkpt>
      <trkpt lat="43.55231" lon="6.32089">
        <ele>332.75354</ele>
        <time>2012-12-09T12:43:48Z</time>
      </trkpt>
      <trkpt lat="43.55233" lon="6.32088">
        <ele>332.75354</ele>
        <time>2012-12-09T12:44:08Z</time>
      </trkpt>
      <trkpt lat="43.55231" lon="6.32088">
        <ele>331.792114</ele>
        <time>2012-12-09T12:45:25Z</time>
      </trkpt>
      <trkpt lat="43.55231" lon="6.32086">
        <ele>331.792114</ele>
        <time>2012-12-09T12:46:49Z</time>
      </trkpt>
      <trkpt lat="43.55231" lon="6.32085">
        <ele>332.75354</ele>
        <time>2012-12-09T12:47:10Z</time>
      </trkpt>
      <trkpt lat="43.55223" lon="6.32088">
        <ele>330.830933</ele>
        <time>2012-12-09T12:47:57Z</time>
      </trkpt>
      <trkpt lat="43.55221" lon="6.3209">
        <ele>328.908325</ele>
        <time>2012-12-09T12:48:25Z</time>
      </trkpt>
      <trkpt lat="43.55219" lon="6.32088">
        <ele>328.427612</ele>
        <time>2012-12-09T12:48:38Z</time>
      </trkpt>
      <trkpt lat="43.5522" lon="6.32088">
        <ele>329.869507</ele>
        <time>2012-12-09T12:49:02Z</time>
      </trkpt>
      <trkpt lat="43.55224" lon="6.32088">
        <ele>330.35022</ele>
        <time>2012-12-09T12:49:17Z</time>
      </trkpt>
      <trkpt lat="43.55221" lon="6.32089">
        <ele>330.830933</ele>
        <time>2012-12-09T12:49:56Z</time>
      </trkpt>
      <trkpt lat="43.55217" lon="6.32092">
        <ele>334.195435</ele>
        <time>2012-12-09T12:50:14Z</time>
      </trkpt>
      <trkpt lat="43.55203" lon="6.32091">
        <ele>336.118164</ele>
        <time>2012-12-09T12:50:32Z</time>
      </trkpt>
      <trkpt lat="43.55196" lon="6.32093">
        <ele>337.079468</ele>
        <time>2012-12-09T12:50:56Z</time>
      </trkpt>
      <trkpt lat="43.5519" lon="6.32096">
        <ele>336.598877</ele>
        <time>2012-12-09T12:51:11Z</time>
      </trkpt>
      <trkpt lat="43.55184" lon="6.32105">
        <ele>338.040771</ele>
        <time>2012-12-09T12:51:25Z</time>
      </trkpt>
      <trkpt lat="43.55188" lon="6.32122">
        <ele>338.521484</ele>
        <time>2012-12-09T12:51:41Z</time>
      </trkpt>
      <trkpt lat="43.55184" lon="6.32143">
        <ele>337.560059</ele>
        <time>2012-12-09T12:52:01Z</time>
      </trkpt>
      <trkpt lat="43.5519" lon="6.32157">
        <ele>339.482666</ele>
        <time>2012-12-09T12:52:16Z</time>
      </trkpt>
      <trkpt lat="43.55205" lon="6.32171">
        <ele>340.924683</ele>
        <time>2012-12-09T12:52:38Z</time>
      </trkpt>
      <trkpt lat="43.55216" lon="6.32181">
        <ele>341.405273</ele>
        <time>2012-12-09T12:52:50Z</time>
      </trkpt>
      <trkpt lat="43.55229" lon="6.32192">
        <ele>338.521484</ele>
        <time>2012-12-09T12:53:05Z</time>
      </trkpt>
      <trkpt lat="43.5524" lon="6.32203">
        <ele>339.002075</ele>
        <time>2012-12-09T12:53:20Z</time>
      </trkpt>
      <trkpt lat="43.55251" lon="6.32214">
        <ele>344.77002</ele>
        <time>2012-12-09T12:53:35Z</time>
      </trkpt>
      <trkpt lat="43.55258" lon="6.32229">
        <ele>346.212036</ele>
        <time>2012-12-09T12:53:47Z</time>
      </trkpt>
      <trkpt lat="43.55264" lon="6.32248">
        <ele>346.692627</ele>
        <time>2012-12-09T12:54:01Z</time>
      </trkpt>
      <trkpt lat="43.55266" lon="6.32262">
        <ele>351.018433</ele>
        <time>2012-12-09T12:54:15Z</time>
      </trkpt>
      <trkpt lat="43.55264" lon="6.32278">
        <ele>354.86377</ele>
        <time>2012-12-09T12:54:29Z</time>
      </trkpt>
      <trkpt lat="43.55264" lon="6.32282">
        <ele>354.86377</ele>
        <time>2012-12-09T12:54:32Z</time>
      </trkpt>
      <trkpt lat="43.55259" lon="6.32297">
        <ele>356.786377</ele>
        <time>2012-12-09T12:54:42Z</time>
      </trkpt>
      <trkpt lat="43.55253" lon="6.32321">
        <ele>354.383179</ele>
        <time>2012-12-09T12:54:59Z</time>
      </trkpt>
      <trkpt lat="43.55246" lon="6.32348">
        <ele>353.421875</ele>
        <time>2012-12-09T12:55:17Z</time>
      </trkpt>
      <trkpt lat="43.55252" lon="6.32366">
        <ele>352.460571</ele>
        <time>2012-12-09T12:55:34Z</time>
      </trkpt>
      <trkpt lat="43.55256" lon="6.32387">
        <ele>352.460571</ele>
        <time>2012-12-09T12:55:50Z</time>
      </trkpt>
      <trkpt lat="43.55256" lon="6.32396">
        <ele>352.941162</ele>
        <time>2012-12-09T12:55:56Z</time>
      </trkpt>
      <trkpt lat="43.55256" lon="6.32418">
        <ele>355.825195</ele>
        <time>2012-12-09T12:56:12Z</time>
      </trkpt>
      <trkpt lat="43.55256" lon="6.32451">
        <ele>363.515747</ele>
        <time>2012-12-09T12:56:34Z</time>
      </trkpt>
      <trkpt lat="43.55255" lon="6.32475">
        <ele>366.880249</ele>
        <time>2012-12-09T12:56:51Z</time>
      </trkpt>
      <trkpt lat="43.55256" lon="6.3249">
        <ele>368.802979</ele>
        <time>2012-12-09T12:57:00Z</time>
      </trkpt>
      <trkpt lat="43.55253" lon="6.32513">
        <ele>365.438354</ele>
        <time>2012-12-09T12:57:14Z</time>
      </trkpt>
      <trkpt lat="43.55253" lon="6.32528">
        <ele>365.918945</ele>
        <time>2012-12-09T12:57:23Z</time>
      </trkpt>
      <trkpt lat="43.55255" lon="6.32551">
        <ele>367.841553</ele>
        <time>2012-12-09T12:57:37Z</time>
      </trkpt>
      <trkpt lat="43.55262" lon="6.32565">
        <ele>364.476929</ele>
        <time>2012-12-09T12:57:53Z</time>
      </trkpt>
      <trkpt lat="43.55266" lon="6.32579">
        <ele>364.476929</ele>
        <time>2012-12-09T12:58:05Z</time>
      </trkpt>
      <trkpt lat="43.55271" lon="6.3261">
        <ele>366.399536</ele>
        <time>2012-12-09T12:58:23Z</time>
      </trkpt>
      <trkpt lat="43.5527" lon="6.32611">
        <ele>366.399536</ele>
        <time>2012-12-09T12:58:25Z</time>
      </trkpt>
      <trkpt lat="43.55269" lon="6.32615">
        <ele>366.399536</ele>
        <time>2012-12-09T12:58:27Z</time>
      </trkpt>
      <trkpt lat="43.55271" lon="6.32618">
        <ele>366.880249</ele>
        <time>2012-12-09T12:58:29Z</time>
      </trkpt>
      <trkpt lat="43.55266" lon="6.32627">
        <ele>368.322266</ele>
        <time>2012-12-09T12:58:40Z</time>
      </trkpt>
      <trkpt lat="43.55253" lon="6.32635">
        <ele>369.764282</ele>
        <time>2012-12-09T12:59:00Z</time>
      </trkpt>
      <trkpt lat="43.55241" lon="6.32634">
        <ele>368.322266</ele>
        <time>2012-12-09T12:59:18Z</time>
      </trkpt>
      <trkpt lat="43.55224" lon="6.32641">
        <ele>370.244873</ele>
        <time>2012-12-09T12:59:36Z</time>
      </trkpt>
      <trkpt lat="43.55213" lon="6.32657">
        <ele>373.128906</ele>
        <time>2012-12-09T12:59:50Z</time>
      </trkpt>
      <trkpt lat="43.55206" lon="6.32678">
        <ele>376.49353</ele>
        <time>2012-12-09T13:00:06Z</time>
      </trkpt>
      <trkpt lat="43.55209" lon="6.32699">
        <ele>378.416138</ele>
        <time>2012-12-09T13:00:21Z</time>
      </trkpt>
      <trkpt lat="43.5521" lon="6.32705">
        <ele>378.896851</ele>
        <time>2012-12-09T13:00:24Z</time>
      </trkpt>
      <trkpt lat="43.55208" lon="6.32716">
        <ele>377.454834</ele>
        <time>2012-12-09T13:00:31Z</time>
      </trkpt>
      <trkpt lat="43.55205" lon="6.32735">
        <ele>377.935425</ele>
        <time>2012-12-09T13:00:44Z</time>
      </trkpt>
      <trkpt lat="43.55196" lon="6.32754">
        <ele>377.454834</ele>
        <time>2012-12-09T13:01:01Z</time>
      </trkpt>
      <trkpt lat="43.55182" lon="6.32771">
        <ele>380.819458</ele>
        <time>2012-12-09T13:01:17Z</time>
      </trkpt>
      <trkpt lat="43.55179" lon="6.32774">
        <ele>380.819458</ele>
        <time>2012-12-09T13:01:20Z</time>
      </trkpt>
      <trkpt lat="43.55169" lon="6.32793">
        <ele>377.454834</ele>
        <time>2012-12-09T13:01:38Z</time>
      </trkpt>
      <trkpt lat="43.55167" lon="6.32801">
        <ele>378.416138</ele>
        <time>2012-12-09T13:01:53Z</time>
      </trkpt>
      <trkpt lat="43.55169" lon="6.32804">
        <ele>377.935425</ele>
        <time>2012-12-09T13:02:32Z</time>
      </trkpt>
      <trkpt lat="43.55174" lon="6.32812">
        <ele>377.935425</ele>
        <time>2012-12-09T13:02:47Z</time>
      </trkpt>
      <trkpt lat="43.55182" lon="6.32824">
        <ele>376.49353</ele>
        <time>2012-12-09T13:03:00Z</time>
      </trkpt>
      <trkpt lat="43.55195" lon="6.32834">
        <ele>377.454834</ele>
        <time>2012-12-09T13:03:21Z</time>
      </trkpt>
      <trkpt lat="43.55209" lon="6.32851">
        <ele>379.377441</ele>
        <time>2012-12-09T13:03:40Z</time>
      </trkpt>
      <trkpt lat="43.55217" lon="6.32865">
        <ele>381.300049</ele>
        <time>2012-12-09T13:03:54Z</time>
      </trkpt>
      <trkpt lat="43.55229" lon="6.32878">
        <ele>383.222656</ele>
        <time>2012-12-09T13:04:08Z</time>
      </trkpt>
      <trkpt lat="43.55232" lon="6.32889">
        <ele>384.184082</ele>
        <time>2012-12-09T13:04:18Z</time>
      </trkpt>
      <trkpt lat="43.55232" lon="6.32893">
        <ele>384.184082</ele>
        <time>2012-12-09T13:04:21Z</time>
      </trkpt>
      <trkpt lat="43.55234" lon="6.32907">
        <ele>386.587402</ele>
        <time>2012-12-09T13:04:32Z</time>
      </trkpt>
      <trkpt lat="43.55244" lon="6.32928">
        <ele>385.145386</ele>
        <time>2012-12-09T13:04:48Z</time>
      </trkpt>
      <trkpt lat="43.55251" lon="6.32942">
        <ele>385.625977</ele>
        <time>2012-12-09T13:05:01Z</time>
      </trkpt>
      <trkpt lat="43.55251" lon="6.32949">
        <ele>384.664795</ele>
        <time>2012-12-09T13:05:06Z</time>
      </trkpt>
      <trkpt lat="43.55255" lon="6.32975">
        <ele>386.106689</ele>
        <time>2012-12-09T13:05:25Z</time>
      </trkpt>
      <trkpt lat="43.55264" lon="6.32988">
        <ele>387.548584</ele>
        <time>2012-12-09T13:05:39Z</time>
      </trkpt>
      <trkpt lat="43.5527" lon="6.33014">
        <ele>387.067993</ele>
        <time>2012-12-09T13:05:56Z</time>
      </trkpt>
      <trkpt lat="43.55275" lon="6.33036">
        <ele>387.548584</ele>
        <time>2012-12-09T13:06:13Z</time>
      </trkpt>
      <trkpt lat="43.55279" lon="6.33056">
        <ele>387.548584</ele>
        <time>2012-12-09T13:06:27Z</time>
      </trkpt>
      <trkpt lat="43.55282" lon="6.33062">
        <ele>387.548584</ele>
        <time>2012-12-09T13:06:32Z</time>
      </trkpt>
      <trkpt lat="43.55284" lon="6.33078">
        <ele>386.587402</ele>
        <time>2012-12-09T13:06:41Z</time>
      </trkpt>
      <trkpt lat="43.5529" lon="6.33102">
        <ele>385.145386</ele>
        <time>2012-12-09T13:06:57Z</time>
      </trkpt>
      <trkpt lat="43.55295" lon="6.33117">
        <ele>384.184082</ele>
        <time>2012-12-09T13:07:12Z</time>
      </trkpt>
      <trkpt lat="43.55295" lon="6.33133">
        <ele>381.78064</ele>
        <time>2012-12-09T13:07:27Z</time>
      </trkpt>
      <trkpt lat="43.553" lon="6.33148">
        <ele>380.338745</ele>
        <time>2012-12-09T13:07:42Z</time>
      </trkpt>
      <trkpt lat="43.5531" lon="6.33162">
        <ele>379.858032</ele>
        <time>2012-12-09T13:07:58Z</time>
      </trkpt>
      <trkpt lat="43.55312" lon="6.33178">
        <ele>379.858032</ele>
        <time>2012-12-09T13:08:13Z</time>
      </trkpt>
      <trkpt lat="43.55313" lon="6.33195">
        <ele>378.896851</ele>
        <time>2012-12-09T13:08:35Z</time>
      </trkpt>
      <trkpt lat="43.55311" lon="6.33195">
        <ele>377.454834</ele>
        <time>2012-12-09T13:08:58Z</time>
      </trkpt>
      <trkpt lat="43.55314" lon="6.33207">
        <ele>376.974243</ele>
        <time>2012-12-09T13:09:20Z</time>
      </trkpt>
      <trkpt lat="43.5531" lon="6.33246">
        <ele>374.090088</ele>
        <time>2012-12-09T13:09:48Z</time>
      </trkpt>
      <trkpt lat="43.55308" lon="6.33259">
        <ele>374.570801</ele>
        <time>2012-12-09T13:10:00Z</time>
      </trkpt>
      <trkpt lat="43.55305" lon="6.33273">
        <ele>377.454834</ele>
        <time>2012-12-09T13:10:13Z</time>
      </trkpt>
      <trkpt lat="43.55302" lon="6.33295">
        <ele>380.338745</ele>
        <time>2012-12-09T13:10:33Z</time>
      </trkpt>
      <trkpt lat="43.553" lon="6.33312">
        <ele>380.819458</ele>
        <time>2012-12-09T13:10:50Z</time>
      </trkpt>
      <trkpt lat="43.55304" lon="6.33332">
        <ele>381.300049</ele>
        <time>2012-12-09T13:11:09Z</time>
      </trkpt>
      <trkpt lat="43.55306" lon="6.33351">
        <ele>380.819458</ele>
        <time>2012-12-09T13:11:25Z</time>
      </trkpt>
      <trkpt lat="43.55312" lon="6.33366">
        <ele>378.416138</ele>
        <time>2012-12-09T13:11:40Z</time>
      </trkpt>
      <trkpt lat="43.55316" lon="6.33378">
        <ele>376.974243</ele>
        <time>2012-12-09T13:11:50Z</time>
      </trkpt>
      <trkpt lat="43.55318" lon="6.3338">
        <ele>376.974243</ele>
        <time>2012-12-09T13:11:52Z</time>
      </trkpt>
      <trkpt lat="43.55328" lon="6.33404">
        <ele>375.532104</ele>
        <time>2012-12-09T13:12:13Z</time>
      </trkpt>
      <trkpt lat="43.55331" lon="6.33424">
        <ele>374.090088</ele>
        <time>2012-12-09T13:12:26Z</time>
      </trkpt>
      <trkpt lat="43.55334" lon="6.33441">
        <ele>372.16748</ele>
        <time>2012-12-09T13:12:44Z</time>
      </trkpt>
      <trkpt lat="43.55326" lon="6.33454">
        <ele>372.648193</ele>
        <time>2012-12-09T13:12:58Z</time>
      </trkpt>
      <trkpt lat="43.55323" lon="6.33454">
        <ele>374.090088</ele>
        <time>2012-12-09T13:13:21Z</time>
      </trkpt>
      <trkpt lat="43.55316" lon="6.33466">
        <ele>374.570801</ele>
        <time>2012-12-09T13:13:47Z</time>
      </trkpt>
      <trkpt lat="43.55314" lon="6.33471">
        <ele>375.051514</ele>
        <time>2012-12-09T13:13:51Z</time>
      </trkpt>
      <trkpt lat="43.55312" lon="6.3348">
        <ele>372.648193</ele>
        <time>2012-12-09T13:14:02Z</time>
      </trkpt>
      <trkpt lat="43.55313" lon="6.33513">
        <ele>371.206299</ele>
        <time>2012-12-09T13:14:24Z</time>
      </trkpt>
      <trkpt lat="43.55316" lon="6.33532">
        <ele>368.802979</ele>
        <time>2012-12-09T13:14:39Z</time>
      </trkpt>
      <trkpt lat="43.55316" lon="6.33549">
        <ele>365.438354</ele>
        <time>2012-12-09T13:14:56Z</time>
      </trkpt>
      <trkpt lat="43.55313" lon="6.33564">
        <ele>360.631714</ele>
        <time>2012-12-09T13:15:09Z</time>
      </trkpt>
      <trkpt lat="43.55303" lon="6.33594">
        <ele>361.59314</ele>
        <time>2012-12-09T13:15:28Z</time>
      </trkpt>
      <trkpt lat="43.553" lon="6.33618">
        <ele>360.631714</ele>
        <time>2012-12-09T13:15:48Z</time>
      </trkpt>
      <trkpt lat="43.55296" lon="6.33633">
        <ele>361.59314</ele>
        <time>2012-12-09T13:15:57Z</time>
      </trkpt>
      <trkpt lat="43.55296" lon="6.33634">
        <ele>361.112427</ele>
        <time>2012-12-09T13:15:59Z</time>
      </trkpt>
      <trkpt lat="43.55283" lon="6.33654">
        <ele>359.189697</ele>
        <time>2012-12-09T13:16:18Z</time>
      </trkpt>
      <trkpt lat="43.55279" lon="6.33671">
        <ele>355.825195</ele>
        <time>2012-12-09T13:16:34Z</time>
      </trkpt>
      <trkpt lat="43.55279" lon="6.33676">
        <ele>354.86377</ele>
        <time>2012-12-09T13:16:37Z</time>
      </trkpt>
      <trkpt lat="43.55268" lon="6.33699">
        <ele>352.941162</ele>
        <time>2012-12-09T13:16:56Z</time>
      </trkpt>
      <trkpt lat="43.55261" lon="6.33707">
        <ele>351.018433</ele>
        <time>2012-12-09T13:17:03Z</time>
      </trkpt>
      <trkpt lat="43.55252" lon="6.33702">
        <ele>350.537842</ele>
        <time>2012-12-09T13:17:14Z</time>
      </trkpt>
      <trkpt lat="43.55249" lon="6.33701">
        <ele>350.057251</ele>
        <time>2012-12-09T13:17:16Z</time>
      </trkpt>
      <trkpt lat="43.55245" lon="6.33705">
        <ele>350.057251</ele>
        <time>2012-12-09T13:17:22Z</time>
      </trkpt>
      <trkpt lat="43.55225" lon="6.33729">
        <ele>348.134644</ele>
        <time>2012-12-09T13:17:46Z</time>
      </trkpt>
      <trkpt lat="43.55223" lon="6.33732">
        <ele>347.653931</ele>
        <time>2012-12-09T13:17:49Z</time>
      </trkpt>
      <trkpt lat="43.55207" lon="6.33743">
        <ele>343.808594</ele>
        <time>2012-12-09T13:18:07Z</time>
      </trkpt>
      <trkpt lat="43.552" lon="6.33752">
        <ele>340.444092</ele>
        <time>2012-12-09T13:18:17Z</time>
      </trkpt>
      <trkpt lat="43.55193" lon="6.33759">
        <ele>339.482666</ele>
        <time>2012-12-09T13:18:25Z</time>
      </trkpt>
      <trkpt lat="43.5517" lon="6.33781">
        <ele>341.405273</ele>
        <time>2012-12-09T13:18:46Z</time>
      </trkpt>
      <trkpt lat="43.55154" lon="6.33779">
        <ele>341.885986</ele>
        <time>2012-12-09T13:19:02Z</time>
      </trkpt>
      <trkpt lat="43.55141" lon="6.33776">
        <ele>341.405273</ele>
        <time>2012-12-09T13:19:16Z</time>
      </trkpt>
      <trkpt lat="43.55136" lon="6.33782">
        <ele>342.366699</ele>
        <time>2012-12-09T13:19:27Z</time>
      </trkpt>
      <trkpt lat="43.55131" lon="6.33802">
        <ele>342.84729</ele>
        <time>2012-12-09T13:19:42Z</time>
      </trkpt>
      <trkpt lat="43.55134" lon="6.33822">
        <ele>341.405273</ele>
        <time>2012-12-09T13:19:57Z</time>
      </trkpt>
      <trkpt lat="43.55139" lon="6.33829">
        <ele>341.885986</ele>
        <time>2012-12-09T13:20:04Z</time>
      </trkpt>
      <trkpt lat="43.55147" lon="6.3384">
        <ele>338.040771</ele>
        <time>2012-12-09T13:20:17Z</time>
      </trkpt>
      <trkpt lat="43.55156" lon="6.33857">
        <ele>333.234131</ele>
        <time>2012-12-09T13:20:34Z</time>
      </trkpt>
      <trkpt lat="43.5516" lon="6.3387">
        <ele>333.234131</ele>
        <time>2012-12-09T13:20:46Z</time>
      </trkpt>
      <trkpt lat="43.55157" lon="6.33889">
        <ele>336.118164</ele>
        <time>2012-12-09T13:21:03Z</time>
      </trkpt>
      <trkpt lat="43.55153" lon="6.33901">
        <ele>337.079468</ele>
        <time>2012-12-09T13:21:14Z</time>
      </trkpt>
      <trkpt lat="43.55151" lon="6.33907">
        <ele>337.079468</ele>
        <time>2012-12-09T13:21:17Z</time>
      </trkpt>
      <trkpt lat="43.55153" lon="6.33922">
        <ele>346.692627</ele>
        <time>2012-12-09T13:21:30Z</time>
      </trkpt>
      <trkpt lat="43.55154" lon="6.33923">
        <ele>347.173218</ele>
        <time>2012-12-09T13:21:31Z</time>
      </trkpt>
      <trkpt lat="43.55151" lon="6.33939">
        <ele>347.173218</ele>
        <time>2012-12-09T13:21:43Z</time>
      </trkpt>
      <trkpt lat="43.55148" lon="6.33953">
        <ele>348.615234</ele>
        <time>2012-12-09T13:21:58Z</time>
      </trkpt>
      <trkpt lat="43.55142" lon="6.33972">
        <ele>348.134644</ele>
        <time>2012-12-09T13:22:13Z</time>
      </trkpt>
      <trkpt lat="43.55141" lon="6.33974">
        <ele>348.134644</ele>
        <time>2012-12-09T13:22:14Z</time>
      </trkpt>
      <trkpt lat="43.55137" lon="6.33991">
        <ele>344.77002</ele>
        <time>2012-12-09T13:22:30Z</time>
      </trkpt>
      <trkpt lat="43.55138" lon="6.34009">
        <ele>344.289429</ele>
        <time>2012-12-09T13:22:47Z</time>
      </trkpt>
      <trkpt lat="43.5514" lon="6.34031">
        <ele>343.327881</ele>
        <time>2012-12-09T13:23:05Z</time>
      </trkpt>
      <trkpt lat="43.55144" lon="6.34047">
        <ele>341.405273</ele>
        <time>2012-12-09T13:23:18Z</time>
      </trkpt>
      <trkpt lat="43.55146" lon="6.34064">
        <ele>342.84729</ele>
        <time>2012-12-09T13:23:32Z</time>
      </trkpt>
      <trkpt lat="43.55149" lon="6.34085">
        <ele>344.289429</ele>
        <time>2012-12-09T13:23:48Z</time>
      </trkpt>
      <trkpt lat="43.55148" lon="6.34111">
        <ele>344.77002</ele>
        <time>2012-12-09T13:24:05Z</time>
      </trkpt>
      <trkpt lat="43.55149" lon="6.34136">
        <ele>345.25061</ele>
        <time>2012-12-09T13:24:22Z</time>
      </trkpt>
      <trkpt lat="43.55149" lon="6.34156">
        <ele>344.289429</ele>
        <time>2012-12-09T13:24:37Z</time>
      </trkpt>
      <trkpt lat="43.55144" lon="6.34167">
        <ele>343.327881</ele>
        <time>2012-12-09T13:24:46Z</time>
      </trkpt>
      <trkpt lat="43.55139" lon="6.34188">
        <ele>338.521484</ele>
        <time>2012-12-09T13:25:02Z</time>
      </trkpt>
      <trkpt lat="43.55132" lon="6.34208">
        <ele>336.118164</ele>
        <time>2012-12-09T13:25:18Z</time>
      </trkpt>
      <trkpt lat="43.55123" lon="6.34211">
        <ele>335.156738</ele>
        <time>2012-12-09T13:25:34Z</time>
      </trkpt>
      <trkpt lat="43.55114" lon="6.34206">
        <ele>335.156738</ele>
        <time>2012-12-09T13:25:50Z</time>
      </trkpt>
      <trkpt lat="43.551" lon="6.34208">
        <ele>337.079468</ele>
        <time>2012-12-09T13:26:05Z</time>
      </trkpt>
      <trkpt lat="43.55082" lon="6.34216">
        <ele>339.963379</ele>
        <time>2012-12-09T13:26:23Z</time>
      </trkpt>
      <trkpt lat="43.55075" lon="6.34222">
        <ele>339.482666</ele>
        <time>2012-12-09T13:26:39Z</time>
      </trkpt>
      <trkpt lat="43.55068" lon="6.34228">
        <ele>339.002075</ele>
        <time>2012-12-09T13:26:49Z</time>
      </trkpt>
      <trkpt lat="43.5505" lon="6.34236">
        <ele>336.598877</ele>
        <time>2012-12-09T13:27:11Z</time>
      </trkpt>
      <trkpt lat="43.55039" lon="6.3424">
        <ele>332.272827</ele>
        <time>2012-12-09T13:27:23Z</time>
      </trkpt>
      <trkpt lat="43.55038" lon="6.34242">
        <ele>332.272827</ele>
        <time>2012-12-09T13:27:25Z</time>
      </trkpt>
      <trkpt lat="43.5501" lon="6.34259">
        <ele>328.427612</ele>
        <time>2012-12-09T13:27:50Z</time>
      </trkpt>
      <trkpt lat="43.54992" lon="6.34269">
        <ele>327.946777</ele>
        <time>2012-12-09T13:28:08Z</time>
      </trkpt>
      <trkpt lat="43.54988" lon="6.34272">
        <ele>328.427612</ele>
        <time>2012-12-09T13:28:12Z</time>
      </trkpt>
      <trkpt lat="43.54972" lon="6.34282">
        <ele>328.427612</ele>
        <time>2012-12-09T13:28:30Z</time>
      </trkpt>
      <trkpt lat="43.54966" lon="6.34285">
        <ele>327.946777</ele>
        <time>2012-12-09T13:28:37Z</time>
      </trkpt>
      <trkpt lat="43.54953" lon="6.34285">
        <ele>328.908325</ele>
        <time>2012-12-09T13:28:52Z</time>
      </trkpt>
      <trkpt lat="43.54948" lon="6.3428">
        <ele>328.908325</ele>
        <time>2012-12-09T13:29:06Z</time>
      </trkpt>
      <trkpt lat="43.54943" lon="6.34281">
        <ele>330.35022</ele>
        <time>2012-12-09T13:29:25Z</time>
      </trkpt>
      <trkpt lat="43.54936" lon="6.34287">
        <ele>331.311523</ele>
        <time>2012-12-09T13:29:42Z</time>
      </trkpt>
      <trkpt lat="43.5493" lon="6.34291">
        <ele>331.792114</ele>
        <time>2012-12-09T13:29:54Z</time>
      </trkpt>
      <trkpt lat="43.54925" lon="6.34297">
        <ele>335.637329</ele>
        <time>2012-12-09T13:30:00Z</time>
      </trkpt>
      <trkpt lat="43.54913" lon="6.34307">
        <ele>339.002075</ele>
        <time>2012-12-09T13:30:15Z</time>
      </trkpt>
      <trkpt lat="43.54896" lon="6.34316">
        <ele>341.885986</ele>
        <time>2012-12-09T13:30:35Z</time>
      </trkpt>
      <trkpt lat="43.54875" lon="6.34326">
        <ele>339.482666</ele>
        <time>2012-12-09T13:30:57Z</time>
      </trkpt>
      <trkpt lat="43.54871" lon="6.3433">
        <ele>337.079468</ele>
        <time>2012-12-09T13:31:04Z</time>
      </trkpt>
      <trkpt lat="43.54868" lon="6.3433">
        <ele>334.676147</ele>
        <time>2012-12-09T13:31:07Z</time>
      </trkpt>
      <trkpt lat="43.54866" lon="6.34333">
        <ele>334.195435</ele>
        <time>2012-12-09T13:31:10Z</time>
      </trkpt>
      <trkpt lat="43.54864" lon="6.34346">
        <ele>330.35022</ele>
        <time>2012-12-09T13:31:23Z</time>
      </trkpt>
      <trkpt lat="43.54857" lon="6.3437">
        <ele>323.140381</ele>
        <time>2012-12-09T13:31:43Z</time>
      </trkpt>
      <trkpt lat="43.54852" lon="6.34378">
        <ele>320.737061</ele>
        <time>2012-12-09T13:31:52Z</time>
      </trkpt>
      <trkpt lat="43.54833" lon="6.34392">
        <ele>318.814331</ele>
        <time>2012-12-09T13:32:08Z</time>
      </trkpt>
      <trkpt lat="43.54815" lon="6.34393">
        <ele>318.814331</ele>
        <time>2012-12-09T13:32:26Z</time>
      </trkpt>
      <trkpt lat="43.54809" lon="6.34397">
        <ele>319.295044</ele>
        <time>2012-12-09T13:32:32Z</time>
      </trkpt>
      <trkpt lat="43.54791" lon="6.34407">
        <ele>325.543579</ele>
        <time>2012-12-09T13:32:49Z</time>
      </trkpt>
      <trkpt lat="43.54782" lon="6.34408">
        <ele>326.02417</ele>
        <time>2012-12-09T13:32:57Z</time>
      </trkpt>
      <trkpt lat="43.54777" lon="6.34406">
        <ele>325.543579</ele>
        <time>2012-12-09T13:33:02Z</time>
      </trkpt>
      <trkpt lat="43.54768" lon="6.34399">
        <ele>324.582275</ele>
        <time>2012-12-09T13:33:12Z</time>
      </trkpt>
      <trkpt lat="43.5475" lon="6.3439">
        <ele>327.466187</ele>
        <time>2012-12-09T13:33:31Z</time>
      </trkpt>
      <trkpt lat="43.54733" lon="6.34377">
        <ele>329.388916</ele>
        <time>2012-12-09T13:33:48Z</time>
      </trkpt>
      <trkpt lat="43.54714" lon="6.3437">
        <ele>330.830933</ele>
        <time>2012-12-09T13:34:09Z</time>
      </trkpt>
      <trkpt lat="43.54702" lon="6.34358">
        <ele>331.792114</ele>
        <time>2012-12-09T13:34:21Z</time>
      </trkpt>
      <trkpt lat="43.54686" lon="6.34351">
        <ele>333.714722</ele>
        <time>2012-12-09T13:34:37Z</time>
      </trkpt>
      <trkpt lat="43.54668" lon="6.34339">
        <ele>334.676147</ele>
        <time>2012-12-09T13:34:56Z</time>
      </trkpt>
      <trkpt lat="43.54653" lon="6.34321">
        <ele>336.118164</ele>
        <time>2012-12-09T13:35:12Z</time>
      </trkpt>
      <trkpt lat="43.54642" lon="6.34304">
        <ele>334.676147</ele>
        <time>2012-12-09T13:35:27Z</time>
      </trkpt>
      <trkpt lat="43.54637" lon="6.34294">
        <ele>336.118164</ele>
        <time>2012-12-09T13:35:34Z</time>
      </trkpt>
      <trkpt lat="43.54622" lon="6.34286">
        <ele>334.195435</ele>
        <time>2012-12-09T13:35:50Z</time>
      </trkpt>
      <trkpt lat="43.54618" lon="6.34282">
        <ele>332.75354</ele>
        <time>2012-12-09T13:35:56Z</time>
      </trkpt>
      <trkpt lat="43.546" lon="6.34278">
        <ele>333.714722</ele>
        <time>2012-12-09T13:36:13Z</time>
      </trkpt>
      <trkpt lat="43.54594" lon="6.34278">
        <ele>335.156738</ele>
        <time>2012-12-09T13:36:20Z</time>
      </trkpt>
      <trkpt lat="43.54578" lon="6.34269">
        <ele>335.637329</ele>
        <time>2012-12-09T13:36:36Z</time>
      </trkpt>
      <trkpt lat="43.54559" lon="6.34265">
        <ele>332.75354</ele>
        <time>2012-12-09T13:36:54Z</time>
      </trkpt>
      <trkpt lat="43.54547" lon="6.34271">
        <ele>328.908325</ele>
        <time>2012-12-09T13:37:05Z</time>
      </trkpt>
      <trkpt lat="43.54539" lon="6.34275">
        <ele>325.062988</ele>
        <time>2012-12-09T13:37:13Z</time>
      </trkpt>
      <trkpt lat="43.54526" lon="6.34287">
        <ele>324.582275</ele>
        <time>2012-12-09T13:37:27Z</time>
      </trkpt>
      <trkpt lat="43.54509" lon="6.3429">
        <ele>323.140381</ele>
        <time>2012-12-09T13:37:43Z</time>
      </trkpt>
      <trkpt lat="43.545" lon="6.34271">
        <ele>323.140381</ele>
        <time>2012-12-09T13:37:59Z</time>
      </trkpt>
      <trkpt lat="43.54498" lon="6.34269">
        <ele>323.620972</ele>
        <time>2012-12-09T13:38:02Z</time>
      </trkpt>
      <trkpt lat="43.5449" lon="6.34259">
        <ele>325.062988</ele>
        <time>2012-12-09T13:38:19Z</time>
      </trkpt>
      <trkpt lat="43.5449" lon="6.3426">
        <ele>325.543579</ele>
        <time>2012-12-09T13:38:45Z</time>
      </trkpt>
      <trkpt lat="43.54487" lon="6.34259">
        <ele>325.062988</ele>
        <time>2012-12-09T13:38:55Z</time>
      </trkpt>
      <trkpt lat="43.54485" lon="6.34254">
        <ele>326.504883</ele>
        <time>2012-12-09T13:39:08Z</time>
      </trkpt>
      <trkpt lat="43.54488" lon="6.34254">
        <ele>325.543579</ele>
        <time>2012-12-09T13:39:25Z</time>
      </trkpt>
      <trkpt lat="43.54488" lon="6.34249">
        <ele>326.02417</ele>
        <time>2012-12-09T13:39:29Z</time>
      </trkpt>
      <trkpt lat="43.54489" lon="6.34227">
        <ele>323.620972</ele>
        <time>2012-12-09T13:39:46Z</time>
      </trkpt>
      <trkpt lat="43.54486" lon="6.34227">
        <ele>324.582275</ele>
        <time>2012-12-09T13:39:49Z</time>
      </trkpt>
      <trkpt lat="43.54477" lon="6.34238">
        <ele>324.101563</ele>
        <time>2012-12-09T13:40:03Z</time>
      </trkpt>
      <trkpt lat="43.54473" lon="6.34244">
        <ele>325.062988</ele>
        <time>2012-12-09T13:40:10Z</time>
      </trkpt>
      <trkpt lat="43.54457" lon="6.34265">
        <ele>325.543579</ele>
        <time>2012-12-09T13:40:28Z</time>
      </trkpt>
      <trkpt lat="43.54442" lon="6.34273">
        <ele>325.543579</ele>
        <time>2012-12-09T13:40:44Z</time>
      </trkpt>
      <trkpt lat="43.54426" lon="6.34279">
        <ele>326.504883</ele>
        <time>2012-12-09T13:40:59Z</time>
      </trkpt>
      <trkpt lat="43.54408" lon="6.34284">
        <ele>326.504883</ele>
        <time>2012-12-09T13:41:18Z</time>
      </trkpt>
      <trkpt lat="43.54392" lon="6.34292">
        <ele>327.466187</ele>
        <time>2012-12-09T13:41:31Z</time>
      </trkpt>
      <trkpt lat="43.54371" lon="6.34299">
        <ele>332.272827</ele>
        <time>2012-12-09T13:41:49Z</time>
      </trkpt>
      <trkpt lat="43.54367" lon="6.34304">
        <ele>333.234131</ele>
        <time>2012-12-09T13:41:55Z</time>
      </trkpt>
      <trkpt lat="43.54353" lon="6.34316">
        <ele>332.272827</ele>
        <time>2012-12-09T13:42:07Z</time>
      </trkpt>
      <trkpt lat="43.54338" lon="6.34328">
        <ele>331.792114</ele>
        <time>2012-12-09T13:42:22Z</time>
      </trkpt>
      <trkpt lat="43.54332" lon="6.34329">
        <ele>329.869507</ele>
        <time>2012-12-09T13:42:29Z</time>
      </trkpt>
      <trkpt lat="43.54321" lon="6.34314">
        <ele>332.75354</ele>
        <time>2012-12-09T13:42:44Z</time>
      </trkpt>
      <trkpt lat="43.54317" lon="6.34304">
        <ele>333.714722</ele>
        <time>2012-12-09T13:42:51Z</time>
      </trkpt>
      <trkpt lat="43.54306" lon="6.3428">
        <ele>333.714722</ele>
        <time>2012-12-09T13:43:07Z</time>
      </trkpt>
      <trkpt lat="43.54292" lon="6.3427">
        <ele>332.75354</ele>
        <time>2012-12-09T13:43:22Z</time>
      </trkpt>
      <trkpt lat="43.54282" lon="6.34266">
        <ele>331.792114</ele>
        <time>2012-12-09T13:43:30Z</time>
      </trkpt>
      <trkpt lat="43.54265" lon="6.34263">
        <ele>330.35022</ele>
        <time>2012-12-09T13:43:44Z</time>
      </trkpt>
      <trkpt lat="43.54262" lon="6.34262">
        <ele>329.869507</ele>
        <time>2012-12-09T13:43:46Z</time>
      </trkpt>
      <trkpt lat="43.54256" lon="6.34265">
        <ele>328.908325</ele>
        <time>2012-12-09T13:43:53Z</time>
      </trkpt>
      <trkpt lat="43.54243" lon="6.34281">
        <ele>323.140381</ele>
        <time>2012-12-09T13:44:08Z</time>
      </trkpt>
      <trkpt lat="43.54232" lon="6.34298">
        <ele>323.140381</ele>
        <time>2012-12-09T13:44:21Z</time>
      </trkpt>
      <trkpt lat="43.5421" lon="6.34315">
        <ele>326.02417</ele>
        <time>2012-12-09T13:44:41Z</time>
      </trkpt>
      <trkpt lat="43.54192" lon="6.34317">
        <ele>326.02417</ele>
        <time>2012-12-09T13:44:57Z</time>
      </trkpt>
      <trkpt lat="43.54181" lon="6.34319">
        <ele>325.543579</ele>
        <time>2012-12-09T13:45:07Z</time>
      </trkpt>
      <trkpt lat="43.54162" lon="6.34318">
        <ele>326.504883</ele>
        <time>2012-12-09T13:45:22Z</time>
      </trkpt>
      <trkpt lat="43.54147" lon="6.3432">
        <ele>330.35022</ele>
        <time>2012-12-09T13:45:35Z</time>
      </trkpt>
      <trkpt lat="43.54133" lon="6.34309">
        <ele>331.792114</ele>
        <time>2012-12-09T13:45:52Z</time>
      </trkpt>
      <trkpt lat="43.54116" lon="6.34304">
        <ele>332.75354</ele>
        <time>2012-12-09T13:46:08Z</time>
      </trkpt>
      <trkpt lat="43.54101" lon="6.34304">
        <ele>335.637329</ele>
        <time>2012-12-09T13:46:24Z</time>
      </trkpt>
      <trkpt lat="43.541" lon="6.34304">
        <ele>336.598877</ele>
        <time>2012-12-09T13:46:25Z</time>
      </trkpt>
      <trkpt lat="43.54089" lon="6.34308">
        <ele>338.521484</ele>
        <time>2012-12-09T13:46:41Z</time>
      </trkpt>
      <trkpt lat="43.54073" lon="6.3433">
        <ele>339.482666</ele>
        <time>2012-12-09T13:47:03Z</time>
      </trkpt>
      <trkpt lat="43.54055" lon="6.34355">
        <ele>340.444092</ele>
        <time>2012-12-09T13:47:22Z</time>
      </trkpt>
      <trkpt lat="43.54042" lon="6.34369">
        <ele>341.405273</ele>
        <time>2012-12-09T13:47:37Z</time>
      </trkpt>
      <trkpt lat="43.54024" lon="6.34381">
        <ele>342.84729</ele>
        <time>2012-12-09T13:47:55Z</time>
      </trkpt>
      <trkpt lat="43.53998" lon="6.34397">
        <ele>345.25061</ele>
        <time>2012-12-09T13:48:16Z</time>
      </trkpt>
      <trkpt lat="43.53995" lon="6.34397">
        <ele>345.25061</ele>
        <time>2012-12-09T13:48:18Z</time>
      </trkpt>
      <trkpt lat="43.53979" lon="6.34409">
        <ele>346.692627</ele>
        <time>2012-12-09T13:48:34Z</time>
      </trkpt>
      <trkpt lat="43.53976" lon="6.34413">
        <ele>346.692627</ele>
        <time>2012-12-09T13:48:39Z</time>
      </trkpt>
      <trkpt lat="43.53971" lon="6.34416">
        <ele>347.653931</ele>
        <time>2012-12-09T13:48:44Z</time>
      </trkpt>
      <trkpt lat="43.53959" lon="6.34425">
        <ele>349.576538</ele>
        <time>2012-12-09T13:48:55Z</time>
      </trkpt>
      <trkpt lat="43.53943" lon="6.34451">
        <ele>351.979858</ele>
        <time>2012-12-09T13:49:14Z</time>
      </trkpt>
      <trkpt lat="43.53925" lon="6.34468">
        <ele>353.421875</ele>
        <time>2012-12-09T13:49:31Z</time>
      </trkpt>
      <trkpt lat="43.53914" lon="6.34479">
        <ele>353.902588</ele>
        <time>2012-12-09T13:49:46Z</time>
      </trkpt>
      <trkpt lat="43.53905" lon="6.34498">
        <ele>353.902588</ele>
        <time>2012-12-09T13:50:00Z</time>
      </trkpt>
      <trkpt lat="43.53893" lon="6.34513">
        <ele>354.383179</ele>
        <time>2012-12-09T13:50:14Z</time>
      </trkpt>
      <trkpt lat="43.53878" lon="6.34533">
        <ele>352.460571</ele>
        <time>2012-12-09T13:50:30Z</time>
      </trkpt>
      <trkpt lat="43.53877" lon="6.34534">
        <ele>352.460571</ele>
        <time>2012-12-09T13:50:31Z</time>
      </trkpt>
      <trkpt lat="43.53858" lon="6.3456">
        <ele>350.537842</ele>
        <time>2012-12-09T13:50:53Z</time>
      </trkpt>
      <trkpt lat="43.53838" lon="6.34588">
        <ele>347.653931</ele>
        <time>2012-12-09T13:51:16Z</time>
      </trkpt>
      <trkpt lat="43.53823" lon="6.3461">
        <ele>344.289429</ele>
        <time>2012-12-09T13:51:36Z</time>
      </trkpt>
      <trkpt lat="43.53821" lon="6.34615">
        <ele>344.289429</ele>
        <time>2012-12-09T13:51:40Z</time>
      </trkpt>
      <trkpt lat="43.53817" lon="6.34623">
        <ele>342.84729</ele>
        <time>2012-12-09T13:51:46Z</time>
      </trkpt>
      <trkpt lat="43.53806" lon="6.34645">
        <ele>340.924683</ele>
        <time>2012-12-09T13:52:01Z</time>
      </trkpt>
      <trkpt lat="43.53795" lon="6.34652">
        <ele>339.482666</ele>
        <time>2012-12-09T13:52:25Z</time>
      </trkpt>
      <trkpt lat="43.53791" lon="6.34636">
        <ele>339.963379</ele>
        <time>2012-12-09T13:52:56Z</time>
      </trkpt>
      <trkpt lat="43.53795" lon="6.34663">
        <ele>342.366699</ele>
        <time>2012-12-09T13:54:46Z</time>
      </trkpt>
      <trkpt lat="43.53794" lon="6.34667">
        <ele>342.84729</ele>
        <time>2012-12-09T13:56:10Z</time>
      </trkpt>
      <trkpt lat="43.53787" lon="6.34679">
        <ele>346.212036</ele>
        <time>2012-12-09T14:00:16Z</time>
      </trkpt>
      <trkpt lat="43.53773" lon="6.34696">
        <ele>342.84729</ele>
        <time>2012-12-09T14:00:36Z</time>
      </trkpt>
      <trkpt lat="43.53762" lon="6.34712">
        <ele>339.963379</ele>
        <time>2012-12-09T14:00:48Z</time>
      </trkpt>
      <trkpt lat="43.53747" lon="6.34723">
        <ele>334.195435</ele>
        <time>2012-12-09T14:01:06Z</time>
      </trkpt>
      <trkpt lat="43.53729" lon="6.34738">
        <ele>330.35022</ele>
        <time>2012-12-09T14:01:26Z</time>
      </trkpt>
      <trkpt lat="43.53702" lon="6.34749">
        <ele>328.427612</ele>
        <time>2012-12-09T14:01:48Z</time>
      </trkpt>
      <trkpt lat="43.5369" lon="6.34755">
        <ele>329.388916</ele>
        <time>2012-12-09T14:01:58Z</time>
      </trkpt>
      <trkpt lat="43.53682" lon="6.34761">
        <ele>330.35022</ele>
        <time>2012-12-09T14:02:05Z</time>
      </trkpt>
      <trkpt lat="43.53676" lon="6.34769">
        <ele>331.311523</ele>
        <time>2012-12-09T14:02:12Z</time>
      </trkpt>
      <trkpt lat="43.53671" lon="6.34775">
        <ele>332.272827</ele>
        <time>2012-12-09T14:02:19Z</time>
      </trkpt>
      <trkpt lat="43.53656" lon="6.34788">
        <ele>326.02417</ele>
        <time>2012-12-09T14:02:38Z</time>
      </trkpt>
      <trkpt lat="43.53652" lon="6.34801">
        <ele>323.620972</ele>
        <time>2012-12-09T14:02:55Z</time>
      </trkpt>
      <trkpt lat="43.53649" lon="6.34803">
        <ele>323.620972</ele>
        <time>2012-12-09T14:02:59Z</time>
      </trkpt>
      <trkpt lat="43.53645" lon="6.34806">
        <ele>322.659668</ele>
        <time>2012-12-09T14:03:04Z</time>
      </trkpt>
      <trkpt lat="43.53634" lon="6.34822">
        <ele>325.062988</ele>
        <time>2012-12-09T14:03:19Z</time>
      </trkpt>
      <trkpt lat="43.5362" lon="6.34842">
        <ele>327.466187</ele>
        <time>2012-12-09T14:03:37Z</time>
      </trkpt>
      <trkpt lat="43.536" lon="6.34864">
        <ele>329.388916</ele>
        <time>2012-12-09T14:03:56Z</time>
      </trkpt>
      <trkpt lat="43.5359" lon="6.34878">
        <ele>328.427612</ele>
        <time>2012-12-09T14:04:12Z</time>
      </trkpt>
      <trkpt lat="43.53577" lon="6.34899">
        <ele>330.35022</ele>
        <time>2012-12-09T14:04:30Z</time>
      </trkpt>
      <trkpt lat="43.53569" lon="6.34907">
        <ele>327.946777</ele>
        <time>2012-12-09T14:04:45Z</time>
      </trkpt>
      <trkpt lat="43.53561" lon="6.34918">
        <ele>327.466187</ele>
        <time>2012-12-09T14:04:56Z</time>
      </trkpt>
      <trkpt lat="43.53544" lon="6.34937">
        <ele>323.620972</ele>
        <time>2012-12-09T14:05:15Z</time>
      </trkpt>
      <trkpt lat="43.53528" lon="6.34938">
        <ele>322.659668</ele>
        <time>2012-12-09T14:05:34Z</time>
      </trkpt>
      <trkpt lat="43.53508" lon="6.34939">
        <ele>322.659668</ele>
        <time>2012-12-09T14:05:56Z</time>
      </trkpt>
      <trkpt lat="43.53496" lon="6.34941">
        <ele>324.582275</ele>
        <time>2012-12-09T14:06:19Z</time>
      </trkpt>
      <trkpt lat="43.53478" lon="6.34957">
        <ele>325.543579</ele>
        <time>2012-12-09T14:07:01Z</time>
      </trkpt>
      <trkpt lat="43.53465" lon="6.3497">
        <ele>324.582275</ele>
        <time>2012-12-09T14:07:22Z</time>
      </trkpt>
      <trkpt lat="43.53459" lon="6.3498">
        <ele>323.620972</ele>
        <time>2012-12-09T14:07:37Z</time>
      </trkpt>
      <trkpt lat="43.5345" lon="6.34984">
        <ele>323.140381</ele>
        <time>2012-12-09T14:07:52Z</time>
      </trkpt>
      <trkpt lat="43.53443" lon="6.34975">
        <ele>321.217773</ele>
        <time>2012-12-09T14:08:07Z</time>
      </trkpt>
      <trkpt lat="43.5344" lon="6.34973">
        <ele>320.256348</ele>
        <time>2012-12-09T14:08:10Z</time>
      </trkpt>
      <trkpt lat="43.53439" lon="6.3497">
        <ele>320.256348</ele>
        <time>2012-12-09T14:08:12Z</time>
      </trkpt>
      <trkpt lat="43.53433" lon="6.34958">
        <ele>318.333618</ele>
        <time>2012-12-09T14:08:25Z</time>
      </trkpt>
      <trkpt lat="43.53433" lon="6.34955">
        <ele>318.333618</ele>
        <time>2012-12-09T14:08:27Z</time>
      </trkpt>
      <trkpt lat="43.53422" lon="6.34942">
        <ele>316.411011</ele>
        <time>2012-12-09T14:08:41Z</time>
      </trkpt>
      <trkpt lat="43.53409" lon="6.34924">
        <ele>312.085205</ele>
        <time>2012-12-09T14:09:01Z</time>
      </trkpt>
      <trkpt lat="43.53397" lon="6.34918">
        <ele>311.123779</ele>
        <time>2012-12-09T14:09:17Z</time>
      </trkpt>
      <trkpt lat="43.53383" lon="6.34906">
        <ele>308.720459</ele>
        <time>2012-12-09T14:09:35Z</time>
      </trkpt>
      <trkpt lat="43.53368" lon="6.34901">
        <ele>308.239868</ele>
        <time>2012-12-09T14:09:52Z</time>
      </trkpt>
      <trkpt lat="43.53362" lon="6.34903">
        <ele>306.797852</ele>
        <time>2012-12-09T14:10:07Z</time>
      </trkpt>
      <trkpt lat="43.53361" lon="6.34902">
        <ele>304.875244</ele>
        <time>2012-12-09T14:11:26Z</time>
      </trkpt>
      <trkpt lat="43.53373" lon="6.34897">
        <ele>305.355957</ele>
        <time>2012-12-09T14:11:56Z</time>
      </trkpt>
      <trkpt lat="43.5338" lon="6.34907">
        <ele>307.278564</ele>
        <time>2012-12-09T14:12:17Z</time>
      </trkpt>
      <trkpt lat="43.53394" lon="6.34914">
        <ele>307.278564</ele>
        <time>2012-12-09T14:12:35Z</time>
      </trkpt>
      <trkpt lat="43.53409" lon="6.34922">
        <ele>308.239868</ele>
        <time>2012-12-09T14:12:52Z</time>
      </trkpt>
      <trkpt lat="43.53424" lon="6.34944">
        <ele>308.239868</ele>
        <time>2012-12-09T14:13:11Z</time>
      </trkpt>
      <trkpt lat="43.5343" lon="6.34955">
        <ele>309.681885</ele>
        <time>2012-12-09T14:13:25Z</time>
      </trkpt>
      <trkpt lat="43.53436" lon="6.34961">
        <ele>310.643066</ele>
        <time>2012-12-09T14:13:38Z</time>
      </trkpt>
      <trkpt lat="43.53447" lon="6.34977">
        <ele>312.565796</ele>
        <time>2012-12-09T14:13:53Z</time>
      </trkpt>
      <trkpt lat="43.5346" lon="6.34992">
        <ele>313.046509</ele>
        <time>2012-12-09T14:14:12Z</time>
      </trkpt>
      <trkpt lat="43.53476" lon="6.35012">
        <ele>314.488403</ele>
        <time>2012-12-09T14:14:36Z</time>
      </trkpt>
      <trkpt lat="43.53495" lon="6.35003">
        <ele>316.411011</ele>
        <time>2012-12-09T14:14:57Z</time>
      </trkpt>
      <trkpt lat="43.53512" lon="6.34989">
        <ele>314.969116</ele>
        <time>2012-12-09T14:15:12Z</time>
      </trkpt>
      <trkpt lat="43.53524" lon="6.34983">
        <ele>315.93042</ele>
        <time>2012-12-09T14:15:28Z</time>
      </trkpt>
      <trkpt lat="43.53537" lon="6.34985">
        <ele>316.411011</ele>
        <time>2012-12-09T14:15:45Z</time>
      </trkpt>
      <trkpt lat="43.53551" lon="6.34992">
        <ele>316.411011</ele>
        <time>2012-12-09T14:15:58Z</time>
      </trkpt>
      <trkpt lat="43.53563" lon="6.35002">
        <ele>318.333618</ele>
        <time>2012-12-09T14:16:10Z</time>
      </trkpt>
      <trkpt lat="43.53564" lon="6.35004">
        <ele>317.853027</ele>
        <time>2012-12-09T14:16:12Z</time>
      </trkpt>
      <trkpt lat="43.53575" lon="6.35015">
        <ele>312.565796</ele>
        <time>2012-12-09T14:16:24Z</time>
      </trkpt>
      <trkpt lat="43.53583" lon="6.35038">
        <ele>309.681885</ele>
        <time>2012-12-09T14:16:41Z</time>
      </trkpt>
      <trkpt lat="43.53595" lon="6.35057">
        <ele>309.681885</ele>
        <time>2012-12-09T14:16:58Z</time>
      </trkpt>
      <trkpt lat="43.53595" lon="6.35061">
        <ele>310.162476</ele>
        <time>2012-12-09T14:17:00Z</time>
      </trkpt>
      <trkpt lat="43.53599" lon="6.35064">
        <ele>308.239868</ele>
        <time>2012-12-09T14:17:04Z</time>
      </trkpt>
      <trkpt lat="43.5361" lon="6.35083">
        <ele>309.681885</ele>
        <time>2012-12-09T14:17:21Z</time>
      </trkpt>
      <trkpt lat="43.53618" lon="6.35095">
        <ele>307.278564</ele>
        <time>2012-12-09T14:17:34Z</time>
      </trkpt>
      <trkpt lat="43.53624" lon="6.35099">
        <ele>306.317261</ele>
        <time>2012-12-09T14:17:40Z</time>
      </trkpt>
      <trkpt lat="43.53633" lon="6.35109">
        <ele>304.394653</ele>
        <time>2012-12-09T14:17:55Z</time>
      </trkpt>
      <trkpt lat="43.53637" lon="6.35111">
        <ele>303.91394</ele>
        <time>2012-12-09T14:17:59Z</time>
      </trkpt>
      <trkpt lat="43.53639" lon="6.35113">
        <ele>303.433228</ele>
        <time>2012-12-09T14:18:02Z</time>
      </trkpt>
      <trkpt lat="43.53649" lon="6.35126">
        <ele>300.549316</ele>
        <time>2012-12-09T14:18:16Z</time>
      </trkpt>
      <trkpt lat="43.53652" lon="6.35128">
        <ele>300.549316</ele>
        <time>2012-12-09T14:18:19Z</time>
      </trkpt>
      <trkpt lat="43.53664" lon="6.35144">
        <ele>300.549316</ele>
        <time>2012-12-09T14:18:34Z</time>
      </trkpt>
      <trkpt lat="43.53676" lon="6.35163">
        <ele>299.588013</ele>
        <time>2012-12-09T14:18:51Z</time>
      </trkpt>
      <trkpt lat="43.53691" lon="6.35182">
        <ele>297.665405</ele>
        <time>2012-12-09T14:19:10Z</time>
      </trkpt>
      <trkpt lat="43.53703" lon="6.35196">
        <ele>295.742676</ele>
        <time>2012-12-09T14:19:26Z</time>
      </trkpt>
      <trkpt lat="43.53708" lon="6.35202">
        <ele>296.223511</ele>
        <time>2012-12-09T14:19:31Z</time>
      </trkpt>
      <trkpt lat="43.53718" lon="6.35222">
        <ele>294.781372</ele>
        <time>2012-12-09T14:19:50Z</time>
      </trkpt>
      <trkpt lat="43.53729" lon="6.35237">
        <ele>290.936157</ele>
        <time>2012-12-09T14:20:08Z</time>
      </trkpt>
      <trkpt lat="43.53739" lon="6.35253">
        <ele>285.648804</ele>
        <time>2012-12-09T14:20:27Z</time>
      </trkpt>
      <trkpt lat="43.53743" lon="6.35264">
        <ele>282.284302</ele>
        <time>2012-12-09T14:20:42Z</time>
      </trkpt>
      <trkpt lat="43.53734" lon="6.35279">
        <ele>279.400269</ele>
        <time>2012-12-09T14:20:59Z</time>
      </trkpt>
      <trkpt lat="43.53723" lon="6.35294">
        <ele>278.438965</ele>
        <time>2012-12-09T14:21:14Z</time>
      </trkpt>
      <trkpt lat="43.53715" lon="6.35303">
        <ele>280.842407</ele>
        <time>2012-12-09T14:21:24Z</time>
      </trkpt>
      <trkpt lat="43.53705" lon="6.35319">
        <ele>281.322998</ele>
        <time>2012-12-09T14:21:37Z</time>
      </trkpt>
      <trkpt lat="43.53709" lon="6.35326">
        <ele>280.842407</ele>
        <time>2012-12-09T14:21:52Z</time>
      </trkpt>
      <trkpt lat="43.53711" lon="6.35327">
        <ele>280.842407</ele>
        <time>2012-12-09T14:22:10Z</time>
      </trkpt>
      <trkpt lat="43.53703" lon="6.35325">
        <ele>279.880859</ele>
        <time>2012-12-09T14:22:30Z</time>
      </trkpt>
      <trkpt lat="43.53694" lon="6.35318">
        <ele>278.919678</ele>
        <time>2012-12-09T14:22:43Z</time>
      </trkpt>
      <trkpt lat="43.53686" lon="6.35312">
        <ele>279.400269</ele>
        <time>2012-12-09T14:22:54Z</time>
      </trkpt>
      <trkpt lat="43.53674" lon="6.35315">
        <ele>279.880859</ele>
        <time>2012-12-09T14:23:05Z</time>
      </trkpt>
      <trkpt lat="43.53659" lon="6.35328">
        <ele>282.765015</ele>
        <time>2012-12-09T14:23:21Z</time>
      </trkpt>
      <trkpt lat="43.53651" lon="6.35334">
        <ele>284.206909</ele>
        <time>2012-12-09T14:23:29Z</time>
      </trkpt>
      <trkpt lat="43.53645" lon="6.35336">
        <ele>283.726196</ele>
        <time>2012-12-09T14:23:34Z</time>
      </trkpt>
      <trkpt lat="43.53638" lon="6.35335">
        <ele>284.206909</ele>
        <time>2012-12-09T14:23:40Z</time>
      </trkpt>
      <trkpt lat="43.53623" lon="6.35337">
        <ele>284.687622</ele>
        <time>2012-12-09T14:23:57Z</time>
      </trkpt>
      <trkpt lat="43.53603" lon="6.35338">
        <ele>282.284302</ele>
        <time>2012-12-09T14:24:16Z</time>
      </trkpt>
      <trkpt lat="43.53595" lon="6.35339">
        <ele>285.168213</ele>
        <time>2012-12-09T14:24:23Z</time>
      </trkpt>
      <trkpt lat="43.53579" lon="6.35338">
        <ele>284.687622</ele>
        <time>2012-12-09T14:24:42Z</time>
      </trkpt>
      <trkpt lat="43.53572" lon="6.35337">
        <ele>285.648804</ele>
        <time>2012-12-09T14:24:59Z</time>
      </trkpt>
      <trkpt lat="43.53555" lon="6.35336">
        <ele>290.936157</ele>
        <time>2012-12-09T14:25:15Z</time>
      </trkpt>
      <trkpt lat="43.5354" lon="6.35324">
        <ele>294.781372</ele>
        <time>2012-12-09T14:25:31Z</time>
      </trkpt>
      <trkpt lat="43.53524" lon="6.35314">
        <ele>293.339355</ele>
        <time>2012-12-09T14:25:47Z</time>
      </trkpt>
      <trkpt lat="43.53515" lon="6.35308">
        <ele>293.820068</ele>
        <time>2012-12-09T14:25:54Z</time>
      </trkpt>
      <trkpt lat="43.53498" lon="6.35295">
        <ele>289.494141</ele>
        <time>2012-12-09T14:26:13Z</time>
      </trkpt>
      <trkpt lat="43.53497" lon="6.35294">
        <ele>289.494141</ele>
        <time>2012-12-09T14:26:15Z</time>
      </trkpt>
      <trkpt lat="43.53483" lon="6.3528">
        <ele>286.129517</ele>
        <time>2012-12-09T14:26:30Z</time>
      </trkpt>
      <trkpt lat="43.53473" lon="6.35272">
        <ele>280.842407</ele>
        <time>2012-12-09T14:26:44Z</time>
      </trkpt>
      <trkpt lat="43.53459" lon="6.35257">
        <ele>275.555054</ele>
        <time>2012-12-09T14:27:02Z</time>
      </trkpt>
      <trkpt lat="43.53449" lon="6.35252">
        <ele>272.671143</ele>
        <time>2012-12-09T14:27:17Z</time>
      </trkpt>
      <trkpt lat="43.53438" lon="6.3524">
        <ele>270.748413</ele>
        <time>2012-12-09T14:27:32Z</time>
      </trkpt>
      <trkpt lat="43.53433" lon="6.35233">
        <ele>270.2677</ele>
        <time>2012-12-09T14:27:39Z</time>
      </trkpt>
      <trkpt lat="43.53424" lon="6.35219">
        <ele>268.825806</ele>
        <time>2012-12-09T14:27:54Z</time>
      </trkpt>
      <trkpt lat="43.53413" lon="6.35197">
        <ele>268.345093</ele>
        <time>2012-12-09T14:28:09Z</time>
      </trkpt>
      <trkpt lat="43.53402" lon="6.35187">
        <ele>271.229126</ele>
        <time>2012-12-09T14:28:22Z</time>
      </trkpt>
      <trkpt lat="43.53386" lon="6.3517">
        <ele>272.19043</ele>
        <time>2012-12-09T14:28:39Z</time>
      </trkpt>
      <trkpt lat="43.53369" lon="6.35162">
        <ele>275.074463</ele>
        <time>2012-12-09T14:28:56Z</time>
      </trkpt>
      <trkpt lat="43.53367" lon="6.35163">
        <ele>275.074463</ele>
        <time>2012-12-09T14:28:58Z</time>
      </trkpt>
      <trkpt lat="43.53346" lon="6.35158">
        <ele>282.284302</ele>
        <time>2012-12-09T14:29:16Z</time>
      </trkpt>
      <trkpt lat="43.53338" lon="6.35158">
        <ele>285.168213</ele>
        <time>2012-12-09T14:29:24Z</time>
      </trkpt>
      <trkpt lat="43.53323" lon="6.35147">
        <ele>289.494141</ele>
        <time>2012-12-09T14:29:37Z</time>
      </trkpt>
      <trkpt lat="43.53321" lon="6.35145">
        <ele>289.974854</ele>
        <time>2012-12-09T14:29:39Z</time>
      </trkpt>
      <trkpt lat="43.53303" lon="6.35133">
        <ele>290.936157</ele>
        <time>2012-12-09T14:29:57Z</time>
      </trkpt>
      <trkpt lat="43.53301" lon="6.35132">
        <ele>290.455566</ele>
        <time>2012-12-09T14:29:59Z</time>
      </trkpt>
      <trkpt lat="43.53297" lon="6.35133">
        <ele>290.455566</ele>
        <time>2012-12-09T14:30:03Z</time>
      </trkpt>
      <trkpt lat="43.53284" lon="6.35132">
        <ele>289.974854</ele>
        <time>2012-12-09T14:30:15Z</time>
      </trkpt>
      <trkpt lat="43.53277" lon="6.35138">
        <ele>291.416748</ele>
        <time>2012-12-09T14:30:23Z</time>
      </trkpt>
      <trkpt lat="43.53267" lon="6.35135">
        <ele>293.820068</ele>
        <time>2012-12-09T14:30:33Z</time>
      </trkpt>
      <trkpt lat="43.53254" lon="6.35117">
        <ele>293.339355</ele>
        <time>2012-12-09T14:30:48Z</time>
      </trkpt>
      <trkpt lat="43.53237" lon="6.35102">
        <ele>291.416748</ele>
        <time>2012-12-09T14:31:04Z</time>
      </trkpt>
      <trkpt lat="43.53222" lon="6.35095">
        <ele>297.665405</ele>
        <time>2012-12-09T14:31:19Z</time>
      </trkpt>
      <trkpt lat="43.53206" lon="6.35077">
        <ele>296.223511</ele>
        <time>2012-12-09T14:31:40Z</time>
      </trkpt>
      <trkpt lat="43.53197" lon="6.35059">
        <ele>294.300781</ele>
        <time>2012-12-09T14:31:53Z</time>
      </trkpt>
      <trkpt lat="43.53185" lon="6.35036">
        <ele>294.300781</ele>
        <time>2012-12-09T14:32:11Z</time>
      </trkpt>
      <trkpt lat="43.53169" lon="6.35013">
        <ele>292.378174</ele>
        <time>2012-12-09T14:32:32Z</time>
      </trkpt>
      <trkpt lat="43.53157" lon="6.3499">
        <ele>285.648804</ele>
        <time>2012-12-09T14:32:48Z</time>
      </trkpt>
      <trkpt lat="43.53143" lon="6.34974">
        <ele>288.532959</ele>
        <time>2012-12-09T14:33:02Z</time>
      </trkpt>
      <trkpt lat="43.53135" lon="6.34962">
        <ele>288.052246</ele>
        <time>2012-12-09T14:33:13Z</time>
      </trkpt>
      <trkpt lat="43.53119" lon="6.3494">
        <ele>286.610229</ele>
        <time>2012-12-09T14:33:33Z</time>
      </trkpt>
      <trkpt lat="43.53108" lon="6.34925">
        <ele>287.571411</ele>
        <time>2012-12-09T14:33:49Z</time>
      </trkpt>
      <trkpt lat="43.53098" lon="6.34901">
        <ele>286.610229</ele>
        <time>2012-12-09T14:34:07Z</time>
      </trkpt>
      <trkpt lat="43.53095" lon="6.34881">
        <ele>289.974854</ele>
        <time>2012-12-09T14:34:20Z</time>
      </trkpt>
      <trkpt lat="43.53092" lon="6.34876">
        <ele>290.936157</ele>
        <time>2012-12-09T14:34:23Z</time>
      </trkpt>
      <trkpt lat="43.53085" lon="6.34868">
        <ele>289.974854</ele>
        <time>2012-12-09T14:34:31Z</time>
      </trkpt>
      <trkpt lat="43.53077" lon="6.34865">
        <ele>287.09082</ele>
        <time>2012-12-09T14:34:38Z</time>
      </trkpt>
      <trkpt lat="43.53073" lon="6.3486">
        <ele>286.129517</ele>
        <time>2012-12-09T14:34:43Z</time>
      </trkpt>
      <trkpt lat="43.53065" lon="6.34856">
        <ele>285.168213</ele>
        <time>2012-12-09T14:34:49Z</time>
      </trkpt>
      <trkpt lat="43.53048" lon="6.34858">
        <ele>282.765015</ele>
        <time>2012-12-09T14:35:05Z</time>
      </trkpt>
      <trkpt lat="43.53025" lon="6.34871">
        <ele>278.919678</ele>
        <time>2012-12-09T14:35:26Z</time>
      </trkpt>
      <trkpt lat="43.53002" lon="6.34888">
        <ele>274.113037</ele>
        <time>2012-12-09T14:35:50Z</time>
      </trkpt>
      <trkpt lat="43.52981" lon="6.34901">
        <ele>275.074463</ele>
        <time>2012-12-09T14:36:13Z</time>
      </trkpt>
      <trkpt lat="43.52964" lon="6.34911">
        <ele>278.438965</ele>
        <time>2012-12-09T14:36:30Z</time>
      </trkpt>
      <trkpt lat="43.52953" lon="6.34915">
        <ele>277.958252</ele>
        <time>2012-12-09T14:36:39Z</time>
      </trkpt>
      <trkpt lat="43.52935" lon="6.34925">
        <ele>281.322998</ele>
        <time>2012-12-09T14:36:57Z</time>
      </trkpt>
      <trkpt lat="43.52926" lon="6.34925">
        <ele>281.803589</ele>
        <time>2012-12-09T14:37:04Z</time>
      </trkpt>
      <trkpt lat="43.52916" lon="6.3492">
        <ele>281.803589</ele>
        <time>2012-12-09T14:37:21Z</time>
      </trkpt>
      <trkpt lat="43.5291" lon="6.34921">
        <ele>283.245605</ele>
        <time>2012-12-09T14:37:48Z</time>
      </trkpt>
      <trkpt lat="43.5289" lon="6.34917">
        <ele>284.206909</ele>
        <time>2012-12-09T14:38:04Z</time>
      </trkpt>
      <trkpt lat="43.52882" lon="6.34913">
        <ele>285.168213</ele>
        <time>2012-12-09T14:38:15Z</time>
      </trkpt>
      <trkpt lat="43.52873" lon="6.34912">
        <ele>283.726196</ele>
        <time>2012-12-09T14:38:24Z</time>
      </trkpt>
      <trkpt lat="43.52857" lon="6.3491">
        <ele>289.494141</ele>
        <time>2012-12-09T14:38:39Z</time>
      </trkpt>
      <trkpt lat="43.52835" lon="6.34916">
        <ele>291.897461</ele>
        <time>2012-12-09T14:38:59Z</time>
      </trkpt>
      <trkpt lat="43.52814" lon="6.34919">
        <ele>290.936157</ele>
        <time>2012-12-09T14:39:18Z</time>
      </trkpt>
      <trkpt lat="43.52798" lon="6.34928">
        <ele>289.494141</ele>
        <time>2012-12-09T14:39:34Z</time>
      </trkpt>
      <trkpt lat="43.52786" lon="6.34928">
        <ele>288.532959</ele>
        <time>2012-12-09T14:39:42Z</time>
      </trkpt>
      <trkpt lat="43.52775" lon="6.34916">
        <ele>291.416748</ele>
        <time>2012-12-09T14:39:53Z</time>
      </trkpt>
      <trkpt lat="43.52771" lon="6.3489">
        <ele>292.858765</ele>
        <time>2012-12-09T14:40:10Z</time>
      </trkpt>
      <trkpt lat="43.52767" lon="6.34862">
        <ele>292.858765</ele>
        <time>2012-12-09T14:40:25Z</time>
      </trkpt>
      <trkpt lat="43.5276" lon="6.34823">
        <ele>294.300781</ele>
        <time>2012-12-09T14:40:48Z</time>
      </trkpt>
      <trkpt lat="43.52747" lon="6.34799">
        <ele>295.261963</ele>
        <time>2012-12-09T14:41:06Z</time>
      </trkpt>
      <trkpt lat="43.52738" lon="6.34783">
        <ele>294.300781</ele>
        <time>2012-12-09T14:41:16Z</time>
      </trkpt>
      <trkpt lat="43.52727" lon="6.34766">
        <ele>295.261963</ele>
        <time>2012-12-09T14:41:32Z</time>
      </trkpt>
      <trkpt lat="43.52715" lon="6.3474">
        <ele>297.184692</ele>
        <time>2012-12-09T14:41:50Z</time>
      </trkpt>
      <trkpt lat="43.52699" lon="6.3472">
        <ele>294.781372</ele>
        <time>2012-12-09T14:42:09Z</time>
      </trkpt>
      <trkpt lat="43.52683" lon="6.34694">
        <ele>290.936157</ele>
        <time>2012-12-09T14:42:29Z</time>
      </trkpt>
      <trkpt lat="43.52678" lon="6.34658">
        <ele>289.494141</ele>
        <time>2012-12-09T14:42:48Z</time>
      </trkpt>
      <trkpt lat="43.52677" lon="6.34638">
        <ele>291.416748</ele>
        <time>2012-12-09T14:43:00Z</time>
      </trkpt>
      <trkpt lat="43.52673" lon="6.34631">
        <ele>291.416748</ele>
        <time>2012-12-09T14:43:05Z</time>
      </trkpt>
      <trkpt lat="43.52655" lon="6.34629">
        <ele>286.129517</ele>
        <time>2012-12-09T14:43:21Z</time>
      </trkpt>
      <trkpt lat="43.52638" lon="6.34635">
        <ele>284.206909</ele>
        <time>2012-12-09T14:43:38Z</time>
      </trkpt>
      <trkpt lat="43.52629" lon="6.34638">
        <ele>284.206909</ele>
        <time>2012-12-09T14:43:52Z</time>
      </trkpt>
      <trkpt lat="43.52624" lon="6.34638">
        <ele>285.168213</ele>
        <time>2012-12-09T14:43:57Z</time>
      </trkpt>
      <trkpt lat="43.52599" lon="6.34645">
        <ele>290.455566</ele>
        <time>2012-12-09T14:44:21Z</time>
      </trkpt>
      <trkpt lat="43.52591" lon="6.34646">
        <ele>292.378174</ele>
        <time>2012-12-09T14:44:28Z</time>
      </trkpt>
      <trkpt lat="43.52572" lon="6.3464">
        <ele>295.261963</ele>
        <time>2012-12-09T14:44:48Z</time>
      </trkpt>
      <trkpt lat="43.52567" lon="6.34638">
        <ele>295.742676</ele>
        <time>2012-12-09T14:45:07Z</time>
      </trkpt>
      <trkpt lat="43.52546" lon="6.34629">
        <ele>298.626709</ele>
        <time>2012-12-09T14:45:27Z</time>
      </trkpt>
      <trkpt lat="43.52526" lon="6.34619">
        <ele>300.549316</ele>
        <time>2012-12-09T14:45:46Z</time>
      </trkpt>
      <trkpt lat="43.52518" lon="6.34616">
        <ele>300.549316</ele>
        <time>2012-12-09T14:46:01Z</time>
      </trkpt>
      <trkpt lat="43.52511" lon="6.34618">
        <ele>299.588013</ele>
        <time>2012-12-09T14:46:10Z</time>
      </trkpt>
      <trkpt lat="43.52507" lon="6.34621">
        <ele>299.1073</ele>
        <time>2012-12-09T14:46:27Z</time>
      </trkpt>
      <trkpt lat="43.52505" lon="6.34623">
        <ele>298.626709</ele>
        <time>2012-12-09T14:46:44Z</time>
      </trkpt>
      <trkpt lat="43.525" lon="6.34617">
        <ele>297.665405</ele>
        <time>2012-12-09T14:47:01Z</time>
      </trkpt>
      <trkpt lat="43.52502" lon="6.34617">
        <ele>297.184692</ele>
        <time>2012-12-09T14:47:41Z</time>
      </trkpt>
      <trkpt lat="43.52503" lon="6.34618">
        <ele>296.704102</ele>
        <time>2012-12-09T14:48:15Z</time>
      </trkpt>
      <trkpt lat="43.52495" lon="6.34624">
        <ele>297.184692</ele>
        <time>2012-12-09T14:49:11Z</time>
      </trkpt>
      <trkpt lat="43.52483" lon="6.34632">
        <ele>297.184692</ele>
        <time>2012-12-09T14:49:27Z</time>
      </trkpt>
      <trkpt lat="43.52481" lon="6.34634">
        <ele>296.704102</ele>
        <time>2012-12-09T14:49:29Z</time>
      </trkpt>
      <trkpt lat="43.52465" lon="6.34648">
        <ele>297.665405</ele>
        <time>2012-12-09T14:49:49Z</time>
      </trkpt>
      <trkpt lat="43.52456" lon="6.3465">
        <ele>296.704102</ele>
        <time>2012-12-09T14:50:01Z</time>
      </trkpt>
      <trkpt lat="43.52444" lon="6.3465">
        <ele>297.184692</ele>
        <time>2012-12-09T14:50:15Z</time>
      </trkpt>
      <trkpt lat="43.5243" lon="6.34644">
        <ele>299.1073</ele>
        <time>2012-12-09T14:50:30Z</time>
      </trkpt>
      <trkpt lat="43.52415" lon="6.34636">
        <ele>300.068726</ele>
        <time>2012-12-09T14:50:45Z</time>
      </trkpt>
      <trkpt lat="43.52412" lon="6.34634">
        <ele>300.068726</ele>
        <time>2012-12-09T14:50:47Z</time>
      </trkpt>
      <trkpt lat="43.52398" lon="6.34624">
        <ele>301.991333</ele>
        <time>2012-12-09T14:51:03Z</time>
      </trkpt>
      <trkpt lat="43.52387" lon="6.34619">
        <ele>301.991333</ele>
        <time>2012-12-09T14:51:12Z</time>
      </trkpt>
      <trkpt lat="43.52384" lon="6.34616">
        <ele>302.471924</ele>
        <time>2012-12-09T14:51:14Z</time>
      </trkpt>
      <trkpt lat="43.52365" lon="6.34602">
        <ele>301.991333</ele>
        <time>2012-12-09T14:51:34Z</time>
      </trkpt>
      <trkpt lat="43.52357" lon="6.34595">
        <ele>301.029907</ele>
        <time>2012-12-09T14:51:40Z</time>
      </trkpt>
      <trkpt lat="43.52343" lon="6.34586">
        <ele>298.626709</ele>
        <time>2012-12-09T14:51:53Z</time>
      </trkpt>
      <trkpt lat="43.52337" lon="6.34582">
        <ele>298.146118</ele>
        <time>2012-12-09T14:51:58Z</time>
      </trkpt>
      <trkpt lat="43.52327" lon="6.34585">
        <ele>296.704102</ele>
        <time>2012-12-09T14:52:07Z</time>
      </trkpt>
      <trkpt lat="43.52324" lon="6.34585">
        <ele>295.742676</ele>
        <time>2012-12-09T14:52:09Z</time>
      </trkpt>
      <trkpt lat="43.52312" lon="6.34577">
        <ele>292.378174</ele>
        <time>2012-12-09T14:52:22Z</time>
      </trkpt>
      <trkpt lat="43.52302" lon="6.3457">
        <ele>292.858765</ele>
        <time>2012-12-09T14:52:29Z</time>
      </trkpt>
      <trkpt lat="43.52298" lon="6.34568">
        <ele>292.378174</ele>
        <time>2012-12-09T14:52:32Z</time>
      </trkpt>
      <trkpt lat="43.52289" lon="6.3456">
        <ele>296.223511</ele>
        <time>2012-12-09T14:52:41Z</time>
      </trkpt>
      <trkpt lat="43.52288" lon="6.34558">
        <ele>296.704102</ele>
        <time>2012-12-09T14:52:43Z</time>
      </trkpt>
      <trkpt lat="43.5228" lon="6.34548">
        <ele>299.1073</ele>
        <time>2012-12-09T14:52:55Z</time>
      </trkpt>
      <trkpt lat="43.52266" lon="6.34533">
        <ele>301.029907</ele>
        <time>2012-12-09T14:53:08Z</time>
      </trkpt>
      <trkpt lat="43.52263" lon="6.34532">
        <ele>301.029907</ele>
        <time>2012-12-09T14:53:10Z</time>
      </trkpt>
      <trkpt lat="43.52252" lon="6.34513">
        <ele>303.433228</ele>
        <time>2012-12-09T14:53:28Z</time>
      </trkpt>
      <trkpt lat="43.5224" lon="6.34483">
        <ele>307.278564</ele>
        <time>2012-12-09T14:53:47Z</time>
      </trkpt>
      <trkpt lat="43.52244" lon="6.34452">
        <ele>310.162476</ele>
        <time>2012-12-09T14:54:07Z</time>
      </trkpt>
      <trkpt lat="43.52245" lon="6.34425">
        <ele>313.046509</ele>
        <time>2012-12-09T14:54:26Z</time>
      </trkpt>
      <trkpt lat="43.52252" lon="6.34385">
        <ele>316.411011</ele>
        <time>2012-12-09T14:54:49Z</time>
      </trkpt>
      <trkpt lat="43.52249" lon="6.34375">
        <ele>317.853027</ele>
        <time>2012-12-09T14:55:05Z</time>
      </trkpt>
      <trkpt lat="43.5224" lon="6.34372">
        <ele>318.333618</ele>
        <time>2012-12-09T14:55:18Z</time>
      </trkpt>
      <trkpt lat="43.52234" lon="6.34371">
        <ele>318.814331</ele>
        <time>2012-12-09T14:55:41Z</time>
      </trkpt>
      <trkpt lat="43.52225" lon="6.34365">
        <ele>318.814331</ele>
        <time>2012-12-09T14:56:03Z</time>
      </trkpt>
      <trkpt lat="43.522" lon="6.34343">
        <ele>318.814331</ele>
        <time>2012-12-09T14:56:26Z</time>
      </trkpt>
      <trkpt lat="43.5217" lon="6.34328">
        <ele>318.814331</ele>
        <time>2012-12-09T14:56:53Z</time>
      </trkpt>
      <trkpt lat="43.52143" lon="6.34314">
        <ele>316.891724</ele>
        <time>2012-12-09T14:57:18Z</time>
      </trkpt>
      <trkpt lat="43.52132" lon="6.34293">
        <ele>315.93042</ele>
        <time>2012-12-09T14:57:34Z</time>
      </trkpt>
      <trkpt lat="43.52131" lon="6.34292">
        <ele>315.449829</ele>
        <time>2012-12-09T14:57:35Z</time>
      </trkpt>
      <trkpt lat="43.52124" lon="6.34282">
        <ele>314.969116</ele>
        <time>2012-12-09T14:57:43Z</time>
      </trkpt>
      <trkpt lat="43.52111" lon="6.3427">
        <ele>315.449829</ele>
        <time>2012-12-09T14:57:56Z</time>
      </trkpt>
      <trkpt lat="43.52108" lon="6.34269">
        <ele>314.969116</ele>
        <time>2012-12-09T14:57:59Z</time>
      </trkpt>
      <trkpt lat="43.52092" lon="6.34255">
        <ele>315.93042</ele>
        <time>2012-12-09T14:58:16Z</time>
      </trkpt>
      <trkpt lat="43.52069" lon="6.34234">
        <ele>320.256348</ele>
        <time>2012-12-09T14:58:38Z</time>
      </trkpt>
      <trkpt lat="43.52053" lon="6.34214">
        <ele>317.372437</ele>
        <time>2012-12-09T14:58:52Z</time>
      </trkpt>
      <trkpt lat="43.52049" lon="6.34218">
        <ele>314.969116</ele>
        <time>2012-12-09T14:58:58Z</time>
      </trkpt>
      <trkpt lat="43.5203" lon="6.34215">
        <ele>309.681885</ele>
        <time>2012-12-09T14:59:14Z</time>
      </trkpt>
      <trkpt lat="43.52021" lon="6.34221">
        <ele>304.875244</ele>
        <time>2012-12-09T14:59:24Z</time>
      </trkpt>
      <trkpt lat="43.5201" lon="6.34236">
        <ele>304.394653</ele>
        <time>2012-12-09T14:59:36Z</time>
      </trkpt>
      <trkpt lat="43.51989" lon="6.34248">
        <ele>302.952515</ele>
        <time>2012-12-09T14:59:52Z</time>
      </trkpt>
      <trkpt lat="43.5198" lon="6.34253">
        <ele>301.51062</ele>
        <time>2012-12-09T15:00:06Z</time>
      </trkpt>
      <trkpt lat="43.51979" lon="6.34252">
        <ele>301.51062</ele>
        <time>2012-12-09T15:00:24Z</time>
      </trkpt>
      <trkpt lat="43.51974" lon="6.34257">
        <ele>299.588013</ele>
        <time>2012-12-09T15:01:15Z</time>
      </trkpt>
      <trkpt lat="43.51987" lon="6.34264">
        <ele>296.704102</ele>
        <time>2012-12-09T15:01:37Z</time>
      </trkpt>
      <trkpt lat="43.51991" lon="6.34267">
        <ele>294.781372</ele>
        <time>2012-12-09T15:01:42Z</time>
      </trkpt>
      <trkpt lat="43.52007" lon="6.34278">
        <ele>293.820068</ele>
        <time>2012-12-09T15:01:57Z</time>
      </trkpt>
      <trkpt lat="43.52011" lon="6.34284">
        <ele>293.820068</ele>
        <time>2012-12-09T15:02:04Z</time>
      </trkpt>
      <trkpt lat="43.52014" lon="6.34293">
        <ele>294.300781</ele>
        <time>2012-12-09T15:02:09Z</time>
      </trkpt>
      <trkpt lat="43.52015" lon="6.34306">
        <ele>293.820068</ele>
        <time>2012-12-09T15:02:16Z</time>
      </trkpt>
      <trkpt lat="43.52015" lon="6.34336">
        <ele>294.781372</ele>
        <time>2012-12-09T15:02:39Z</time>
      </trkpt>
      <trkpt lat="43.52011" lon="6.34361">
        <ele>294.781372</ele>
        <time>2012-12-09T15:02:55Z</time>
      </trkpt>
      <trkpt lat="43.52005" lon="6.34386">
        <ele>294.300781</ele>
        <time>2012-12-09T15:03:16Z</time>
      </trkpt>
      <trkpt lat="43.51998" lon="6.34405">
        <ele>291.897461</ele>
        <time>2012-12-09T15:03:26Z</time>
      </trkpt>
      <trkpt lat="43.51986" lon="6.34439">
        <ele>286.129517</ele>
        <time>2012-12-09T15:03:48Z</time>
      </trkpt>
      <trkpt lat="43.51979" lon="6.34458">
        <ele>284.206909</ele>
        <time>2012-12-09T15:04:01Z</time>
      </trkpt>
      <trkpt lat="43.51979" lon="6.34482">
        <ele>284.687622</ele>
        <time>2012-12-09T15:04:15Z</time>
      </trkpt>
      <trkpt lat="43.51988" lon="6.34493">
        <ele>285.168213</ele>
        <time>2012-12-09T15:04:27Z</time>
      </trkpt>
      <trkpt lat="43.52002" lon="6.34504">
        <ele>284.206909</ele>
        <time>2012-12-09T15:04:41Z</time>
      </trkpt>
      <trkpt lat="43.52004" lon="6.34505">
        <ele>284.206909</ele>
        <time>2012-12-09T15:04:42Z</time>
      </trkpt>
      <trkpt lat="43.52016" lon="6.34523">
        <ele>283.245605</ele>
        <time>2012-12-09T15:04:56Z</time>
      </trkpt>
      <trkpt lat="43.52033" lon="6.34538">
        <ele>283.245605</ele>
        <time>2012-12-09T15:05:16Z</time>
      </trkpt>
      <trkpt lat="43.52047" lon="6.34545">
        <ele>283.245605</ele>
        <time>2012-12-09T15:05:28Z</time>
      </trkpt>
      <trkpt lat="43.52058" lon="6.34549">
        <ele>284.206909</ele>
        <time>2012-12-09T15:05:35Z</time>
      </trkpt>
      <trkpt lat="43.52076" lon="6.34544">
        <ele>286.610229</ele>
        <time>2012-12-09T15:05:52Z</time>
      </trkpt>
      <trkpt lat="43.52093" lon="6.3455">
        <ele>288.052246</ele>
        <time>2012-12-09T15:06:05Z</time>
      </trkpt>
      <trkpt lat="43.52103" lon="6.34555">
        <ele>289.01355</ele>
        <time>2012-12-09T15:06:14Z</time>
      </trkpt>
      <trkpt lat="43.5211" lon="6.34573">
        <ele>290.936157</ele>
        <time>2012-12-09T15:06:26Z</time>
      </trkpt>
      <trkpt lat="43.5212" lon="6.34593">
        <ele>292.858765</ele>
        <time>2012-12-09T15:06:43Z</time>
      </trkpt>
      <trkpt lat="43.52116" lon="6.34609">
        <ele>297.184692</ele>
        <time>2012-12-09T15:07:00Z</time>
      </trkpt>
      <trkpt lat="43.52103" lon="6.34629">
        <ele>301.991333</ele>
        <time>2012-12-09T15:07:16Z</time>
      </trkpt>
      <trkpt lat="43.52089" lon="6.34645">
        <ele>304.394653</ele>
        <time>2012-12-09T15:07:33Z</time>
      </trkpt>
      <trkpt lat="43.52067" lon="6.34667">
        <ele>306.797852</ele>
        <time>2012-12-09T15:07:55Z</time>
      </trkpt>
      <trkpt lat="43.52062" lon="6.34668">
        <ele>307.278564</ele>
        <time>2012-12-09T15:08:00Z</time>
      </trkpt>
      <trkpt lat="43.52054" lon="6.34671">
        <ele>307.759277</ele>
        <time>2012-12-09T15:08:06Z</time>
      </trkpt>
      <trkpt lat="43.5205" lon="6.34689">
        <ele>310.643066</ele>
        <time>2012-12-09T15:08:21Z</time>
      </trkpt>
      <trkpt lat="43.52043" lon="6.34714">
        <ele>312.085205</ele>
        <time>2012-12-09T15:08:36Z</time>
      </trkpt>
      <trkpt lat="43.52036" lon="6.34738">
        <ele>312.085205</ele>
        <time>2012-12-09T15:08:52Z</time>
      </trkpt>
      <trkpt lat="43.52026" lon="6.3477">
        <ele>316.411011</ele>
        <time>2012-12-09T15:09:12Z</time>
      </trkpt>
      <trkpt lat="43.5202" lon="6.34794">
        <ele>316.891724</ele>
        <time>2012-12-09T15:09:26Z</time>
      </trkpt>
      <trkpt lat="43.52007" lon="6.34813">
        <ele>317.853027</ele>
        <time>2012-12-09T15:09:43Z</time>
      </trkpt>
      <trkpt lat="43.52001" lon="6.34822">
        <ele>317.853027</ele>
        <time>2012-12-09T15:10:01Z</time>
      </trkpt>
      <trkpt lat="43.51998" lon="6.34824">
        <ele>316.891724</ele>
        <time>2012-12-09T15:11:15Z</time>
      </trkpt>
      <trkpt lat="43.51984" lon="6.34838">
        <ele>315.93042</ele>
        <time>2012-12-09T15:11:36Z</time>
      </trkpt>
      <trkpt lat="43.51961" lon="6.34861">
        <ele>314.488403</ele>
        <time>2012-12-09T15:11:59Z</time>
      </trkpt>
      <trkpt lat="43.51953" lon="6.34865">
        <ele>314.488403</ele>
        <time>2012-12-09T15:12:06Z</time>
      </trkpt>
      <trkpt lat="43.51945" lon="6.34885">
        <ele>314.007813</ele>
        <time>2012-12-09T15:12:23Z</time>
      </trkpt>
      <trkpt lat="43.51942" lon="6.34903">
        <ele>314.007813</ele>
        <time>2012-12-09T15:12:38Z</time>
      </trkpt>
      <trkpt lat="43.51941" lon="6.34923">
        <ele>314.488403</ele>
        <time>2012-12-09T15:12:50Z</time>
      </trkpt>
      <trkpt lat="43.51932" lon="6.3494">
        <ele>314.488403</ele>
        <time>2012-12-09T15:13:08Z</time>
      </trkpt>
      <trkpt lat="43.51918" lon="6.34954">
        <ele>315.449829</ele>
        <time>2012-12-09T15:13:25Z</time>
      </trkpt>
      <trkpt lat="43.51915" lon="6.34954">
        <ele>315.449829</ele>
        <time>2012-12-09T15:13:27Z</time>
      </trkpt>
      <trkpt lat="43.51905" lon="6.3496">
        <ele>316.891724</ele>
        <time>2012-12-09T15:13:43Z</time>
      </trkpt>
      <trkpt lat="43.51906" lon="6.34969">
        <ele>316.411011</ele>
        <time>2012-12-09T15:14:03Z</time>
      </trkpt>
      <trkpt lat="43.51907" lon="6.34982">
        <ele>316.891724</ele>
        <time>2012-12-09T15:14:20Z</time>
      </trkpt>
      <trkpt lat="43.51896" lon="6.35">
        <ele>315.93042</ele>
        <time>2012-12-09T15:14:43Z</time>
      </trkpt>
      <trkpt lat="43.51894" lon="6.35006">
        <ele>316.411011</ele>
        <time>2012-12-09T15:14:48Z</time>
      </trkpt>
      <trkpt lat="43.51891" lon="6.35032">
        <ele>317.372437</ele>
        <time>2012-12-09T15:15:09Z</time>
      </trkpt>
      <trkpt lat="43.5189" lon="6.3507">
        <ele>316.411011</ele>
        <time>2012-12-09T15:15:29Z</time>
      </trkpt>
      <trkpt lat="43.51893" lon="6.35085">
        <ele>314.969116</ele>
        <time>2012-12-09T15:15:42Z</time>
      </trkpt>
      <trkpt lat="43.51892" lon="6.35093">
        <ele>314.488403</ele>
        <time>2012-12-09T15:15:51Z</time>
      </trkpt>
      <trkpt lat="43.51891" lon="6.35111">
        <ele>312.565796</ele>
        <time>2012-12-09T15:16:03Z</time>
      </trkpt>
      <trkpt lat="43.5189" lon="6.35122">
        <ele>311.604492</ele>
        <time>2012-12-09T15:16:12Z</time>
      </trkpt>
      <trkpt lat="43.51888" lon="6.35126">
        <ele>311.604492</ele>
        <time>2012-12-09T15:16:14Z</time>
      </trkpt>
      <trkpt lat="43.51886" lon="6.35128">
        <ele>309.681885</ele>
        <time>2012-12-09T15:16:19Z</time>
      </trkpt>
      <trkpt lat="43.51885" lon="6.35132">
        <ele>309.201172</ele>
        <time>2012-12-09T15:16:22Z</time>
      </trkpt>
      <trkpt lat="43.51871" lon="6.35154">
        <ele>307.278564</ele>
        <time>2012-12-09T15:16:38Z</time>
      </trkpt>
      <trkpt lat="43.51857" lon="6.35182">
        <ele>302.471924</ele>
        <time>2012-12-09T15:17:02Z</time>
      </trkpt>
      <trkpt lat="43.51842" lon="6.35209">
        <ele>301.029907</ele>
        <time>2012-12-09T15:17:23Z</time>
      </trkpt>
      <trkpt lat="43.51832" lon="6.3523">
        <ele>300.549316</ele>
        <time>2012-12-09T15:17:39Z</time>
      </trkpt>
      <trkpt lat="43.51823" lon="6.35247">
        <ele>300.068726</ele>
        <time>2012-12-09T15:17:54Z</time>
      </trkpt>
      <trkpt lat="43.51814" lon="6.35268">
        <ele>300.549316</ele>
        <time>2012-12-09T15:18:09Z</time>
      </trkpt>
      <trkpt lat="43.51813" lon="6.35273">
        <ele>300.549316</ele>
        <time>2012-12-09T15:18:12Z</time>
      </trkpt>
      <trkpt lat="43.51798" lon="6.35312">
        <ele>301.029907</ele>
        <time>2012-12-09T15:18:31Z</time>
      </trkpt>
      <trkpt lat="43.51794" lon="6.3533">
        <ele>301.51062</ele>
        <time>2012-12-09T15:18:45Z</time>
      </trkpt>
      <trkpt lat="43.51792" lon="6.35339">
        <ele>301.029907</ele>
        <time>2012-12-09T15:18:55Z</time>
      </trkpt>
      <trkpt lat="43.51792" lon="6.35344">
        <ele>301.51062</ele>
        <time>2012-12-09T15:18:58Z</time>
      </trkpt>
      <trkpt lat="43.51784" lon="6.3537">
        <ele>301.991333</ele>
        <time>2012-12-09T15:19:14Z</time>
      </trkpt>
      <trkpt lat="43.51785" lon="6.35378">
        <ele>301.51062</ele>
        <time>2012-12-09T15:19:22Z</time>
      </trkpt>
      <trkpt lat="43.51783" lon="6.35404">
        <ele>300.549316</ele>
        <time>2012-12-09T15:19:38Z</time>
      </trkpt>
      <trkpt lat="43.51783" lon="6.35408">
        <ele>300.549316</ele>
        <time>2012-12-09T15:19:41Z</time>
      </trkpt>
      <trkpt lat="43.51777" lon="6.35431">
        <ele>299.588013</ele>
        <time>2012-12-09T15:20:01Z</time>
      </trkpt>
      <trkpt lat="43.51773" lon="6.35457">
        <ele>299.1073</ele>
        <time>2012-12-09T15:20:19Z</time>
      </trkpt>
      <trkpt lat="43.51771" lon="6.35467">
        <ele>299.588013</ele>
        <time>2012-12-09T15:20:26Z</time>
      </trkpt>
      <trkpt lat="43.51766" lon="6.35496">
        <ele>300.068726</ele>
        <time>2012-12-09T15:20:44Z</time>
      </trkpt>
      <trkpt lat="43.51764" lon="6.35512">
        <ele>298.626709</ele>
        <time>2012-12-09T15:20:56Z</time>
      </trkpt>
      <trkpt lat="43.51764" lon="6.35515">
        <ele>299.1073</ele>
        <time>2012-12-09T15:20:59Z</time>
      </trkpt>
      <trkpt lat="43.51765" lon="6.35531">
        <ele>299.588013</ele>
        <time>2012-12-09T15:21:10Z</time>
      </trkpt>
      <trkpt lat="43.51762" lon="6.35552">
        <ele>300.549316</ele>
        <time>2012-12-09T15:21:24Z</time>
      </trkpt>
      <trkpt lat="43.51758" lon="6.35562">
        <ele>301.51062</ele>
        <time>2012-12-09T15:21:28Z</time>
      </trkpt>
      <trkpt lat="43.51752" lon="6.35574">
        <ele>301.991333</ele>
        <time>2012-12-09T15:21:34Z</time>
      </trkpt>
      <trkpt lat="43.51749" lon="6.35594">
        <ele>305.83667</ele>
        <time>2012-12-09T15:21:50Z</time>
      </trkpt>
      <trkpt lat="43.51747" lon="6.3562">
        <ele>309.681885</ele>
        <time>2012-12-09T15:22:09Z</time>
      </trkpt>
      <trkpt lat="43.5174" lon="6.35645">
        <ele>309.201172</ele>
        <time>2012-12-09T15:22:23Z</time>
      </trkpt>
      <trkpt lat="43.51731" lon="6.35681">
        <ele>308.239868</ele>
        <time>2012-12-09T15:22:41Z</time>
      </trkpt>
      <trkpt lat="43.51732" lon="6.35685">
        <ele>308.239868</ele>
        <time>2012-12-09T15:22:45Z</time>
      </trkpt>
      <trkpt lat="43.5173" lon="6.35699">
        <ele>308.239868</ele>
        <time>2012-12-09T15:23:10Z</time>
      </trkpt>
      <trkpt lat="43.51728" lon="6.35706">
        <ele>308.720459</ele>
        <time>2012-12-09T15:24:05Z</time>
      </trkpt>
      <trkpt lat="43.51726" lon="6.3573">
        <ele>307.759277</ele>
        <time>2012-12-09T15:24:20Z</time>
      </trkpt>
      <trkpt lat="43.51715" lon="6.3575">
        <ele>307.278564</ele>
        <time>2012-12-09T15:24:37Z</time>
      </trkpt>
      <trkpt lat="43.51707" lon="6.35758">
        <ele>306.317261</ele>
        <time>2012-12-09T15:24:45Z</time>
      </trkpt>
      <trkpt lat="43.51695" lon="6.35779">
        <ele>305.83667</ele>
        <time>2012-12-09T15:25:01Z</time>
      </trkpt>
      <trkpt lat="43.51687" lon="6.35792">
        <ele>306.797852</ele>
        <time>2012-12-09T15:25:16Z</time>
      </trkpt>
      <trkpt lat="43.51685" lon="6.35813">
        <ele>305.83667</ele>
        <time>2012-12-09T15:25:36Z</time>
      </trkpt>
      <trkpt lat="43.51682" lon="6.35819">
        <ele>304.875244</ele>
        <time>2012-12-09T15:25:37Z</time>
      </trkpt>
      <trkpt lat="43.5168" lon="6.3583">
        <ele>302.471924</ele>
        <time>2012-12-09T15:25:52Z</time>
      </trkpt>
      <trkpt lat="43.5168" lon="6.35849">
        <ele>301.51062</ele>
        <time>2012-12-09T15:26:09Z</time>
      </trkpt>
      <trkpt lat="43.51676" lon="6.35867">
        <ele>300.068726</ele>
        <time>2012-12-09T15:26:25Z</time>
      </trkpt>
      <trkpt lat="43.51667" lon="6.35874">
        <ele>298.146118</ele>
        <time>2012-12-09T15:26:39Z</time>
      </trkpt>
      <trkpt lat="43.51652" lon="6.35888">
        <ele>294.300781</ele>
        <time>2012-12-09T15:27:01Z</time>
      </trkpt>
      <trkpt lat="43.51639" lon="6.35907">
        <ele>292.378174</ele>
        <time>2012-12-09T15:27:19Z</time>
      </trkpt>
      <trkpt lat="43.51627" lon="6.35915">
        <ele>290.936157</ele>
        <time>2012-12-09T15:27:38Z</time>
      </trkpt>
      <trkpt lat="43.5162" lon="6.35923">
        <ele>290.936157</ele>
        <time>2012-12-09T15:27:58Z</time>
      </trkpt>
      <trkpt lat="43.5161" lon="6.35945">
        <ele>289.974854</ele>
        <time>2012-12-09T15:28:16Z</time>
      </trkpt>
      <trkpt lat="43.5161" lon="6.35965">
        <ele>289.494141</ele>
        <time>2012-12-09T15:28:30Z</time>
      </trkpt>
      <trkpt lat="43.51609" lon="6.35985">
        <ele>285.168213</ele>
        <time>2012-12-09T15:28:46Z</time>
      </trkpt>
      <trkpt lat="43.51605" lon="6.36008">
        <ele>282.765015</ele>
        <time>2012-12-09T15:29:01Z</time>
      </trkpt>
      <trkpt lat="43.51604" lon="6.36026">
        <ele>278.919678</ele>
        <time>2012-12-09T15:29:16Z</time>
      </trkpt>
      <trkpt lat="43.51604" lon="6.3604">
        <ele>277.477661</ele>
        <time>2012-12-09T15:29:30Z</time>
      </trkpt>
      <trkpt lat="43.51604" lon="6.36041">
        <ele>276.99707</ele>
        <time>2012-12-09T15:29:38Z</time>
      </trkpt>
      <trkpt lat="43.51596" lon="6.36055">
        <ele>274.59375</ele>
        <time>2012-12-09T15:29:51Z</time>
      </trkpt>
      <trkpt lat="43.51593" lon="6.36079">
        <ele>270.748413</ele>
        <time>2012-12-09T15:30:08Z</time>
      </trkpt>
      <trkpt lat="43.51592" lon="6.36083">
        <ele>270.2677</ele>
        <time>2012-12-09T15:30:11Z</time>
      </trkpt>
      <trkpt lat="43.5159" lon="6.36093">
        <ele>268.825806</ele>
        <time>2012-12-09T15:30:17Z</time>
      </trkpt>
      <trkpt lat="43.51591" lon="6.36103">
        <ele>267.383911</ele>
        <time>2012-12-09T15:30:25Z</time>
      </trkpt>
      <trkpt lat="43.51586" lon="6.36124">
        <ele>267.383911</ele>
        <time>2012-12-09T15:30:36Z</time>
      </trkpt>
      <trkpt lat="43.51582" lon="6.36136">
        <ele>267.864502</ele>
        <time>2012-12-09T15:30:45Z</time>
      </trkpt>
      <trkpt lat="43.51582" lon="6.36142">
        <ele>268.825806</ele>
        <time>2012-12-09T15:30:49Z</time>
      </trkpt>
      <trkpt lat="43.51583" lon="6.36145">
        <ele>268.825806</ele>
        <time>2012-12-09T15:30:52Z</time>
      </trkpt>
      <trkpt lat="43.51582" lon="6.36149">
        <ele>268.825806</ele>
        <time>2012-12-09T15:30:54Z</time>
      </trkpt>
      <trkpt lat="43.51575" lon="6.36171">
        <ele>266.903198</ele>
        <time>2012-12-09T15:31:08Z</time>
      </trkpt>
      <trkpt lat="43.51574" lon="6.36191">
        <ele>264.499878</ele>
        <time>2012-12-09T15:31:20Z</time>
      </trkpt>
      <trkpt lat="43.51574" lon="6.36212">
        <ele>260.654541</ele>
        <time>2012-12-09T15:31:36Z</time>
      </trkpt>
      <trkpt lat="43.5157" lon="6.36226">
        <ele>259.693359</ele>
        <time>2012-12-09T15:31:48Z</time>
      </trkpt>
      <trkpt lat="43.51568" lon="6.36234">
        <ele>258.731934</ele>
        <time>2012-12-09T15:31:54Z</time>
      </trkpt>
      <trkpt lat="43.51568" lon="6.36245">
        <ele>257.770752</ele>
        <time>2012-12-09T15:32:09Z</time>
      </trkpt>
      <trkpt lat="43.51569" lon="6.3625">
        <ele>258.251343</ele>
        <time>2012-12-09T15:33:06Z</time>
      </trkpt>
      <trkpt lat="43.51566" lon="6.36252">
        <ele>257.770752</ele>
        <time>2012-12-09T15:34:13Z</time>
      </trkpt>
      <trkpt lat="43.51556" lon="6.36235">
        <ele>260.17395</ele>
        <time>2012-12-09T15:34:31Z</time>
      </trkpt>
      <trkpt lat="43.51556" lon="6.36234">
        <ele>260.17395</ele>
        <time>2012-12-09T15:34:32Z</time>
      </trkpt>
      <trkpt lat="43.5155" lon="6.36218">
        <ele>260.654541</ele>
        <time>2012-12-09T15:34:48Z</time>
      </trkpt>
      <trkpt lat="43.51547" lon="6.36195">
        <ele>261.135254</ele>
        <time>2012-12-09T15:35:08Z</time>
      </trkpt>
      <trkpt lat="43.5154" lon="6.36169">
        <ele>262.096558</ele>
        <time>2012-12-09T15:35:29Z</time>
      </trkpt>
      <trkpt lat="43.51536" lon="6.36172">
        <ele>262.096558</ele>
        <time>2012-12-09T15:35:41Z</time>
      </trkpt>
      <trkpt lat="43.51528" lon="6.36191">
        <ele>262.096558</ele>
        <time>2012-12-09T15:35:55Z</time>
      </trkpt>
      <trkpt lat="43.5152" lon="6.36198">
        <ele>262.096558</ele>
        <time>2012-12-09T15:36:04Z</time>
      </trkpt>
      <trkpt lat="43.51503" lon="6.36207">
        <ele>264.980591</ele>
        <time>2012-12-09T15:36:20Z</time>
      </trkpt>
      <trkpt lat="43.51484" lon="6.36215">
        <ele>263.538574</ele>
        <time>2012-12-09T15:36:36Z</time>
      </trkpt>
      <trkpt lat="43.51472" lon="6.36225">
        <ele>264.499878</ele>
        <time>2012-12-09T15:36:48Z</time>
      </trkpt>
      <trkpt lat="43.51467" lon="6.3623">
        <ele>265.941895</ele>
        <time>2012-12-09T15:36:54Z</time>
      </trkpt>
      <trkpt lat="43.51447" lon="6.3624">
        <ele>267.864502</ele>
        <time>2012-12-09T15:37:09Z</time>
      </trkpt>
      <trkpt lat="43.51439" lon="6.36247">
        <ele>268.825806</ele>
        <time>2012-12-09T15:37:17Z</time>
      </trkpt>
      <trkpt lat="43.51433" lon="6.36261">
        <ele>267.383911</ele>
        <time>2012-12-09T15:37:29Z</time>
      </trkpt>
      <trkpt lat="43.51432" lon="6.36262">
        <ele>267.383911</ele>
        <time>2012-12-09T15:37:30Z</time>
      </trkpt>
      <trkpt lat="43.51426" lon="6.3627">
        <ele>265.461304</ele>
        <time>2012-12-09T15:37:40Z</time>
      </trkpt>
      <trkpt lat="43.51422" lon="6.36292">
        <ele>259.212646</ele>
        <time>2012-12-09T15:37:55Z</time>
      </trkpt>
      <trkpt lat="43.51426" lon="6.363">
        <ele>257.290039</ele>
        <time>2012-12-09T15:38:03Z</time>
      </trkpt>
      <trkpt lat="43.51432" lon="6.36307">
        <ele>254.406006</ele>
        <time>2012-12-09T15:38:12Z</time>
      </trkpt>
      <trkpt lat="43.51437" lon="6.36315">
        <ele>252.963989</ele>
        <time>2012-12-09T15:38:17Z</time>
      </trkpt>
      <trkpt lat="43.51436" lon="6.36324">
        <ele>251.522095</ele>
        <time>2012-12-09T15:38:23Z</time>
      </trkpt>
      <trkpt lat="43.51432" lon="6.36327">
        <ele>252.483398</ele>
        <time>2012-12-09T15:38:28Z</time>
      </trkpt>
      <trkpt lat="43.51429" lon="6.36327">
        <ele>252.002808</ele>
        <time>2012-12-09T15:38:30Z</time>
      </trkpt>
      <trkpt lat="43.51427" lon="6.36329">
        <ele>252.483398</ele>
        <time>2012-12-09T15:38:32Z</time>
      </trkpt>
      <trkpt lat="43.51423" lon="6.36332">
        <ele>253.444702</ele>
        <time>2012-12-09T15:38:35Z</time>
      </trkpt>
      <trkpt lat="43.51414" lon="6.36326">
        <ele>253.444702</ele>
        <time>2012-12-09T15:38:47Z</time>
      </trkpt>
      <trkpt lat="43.51411" lon="6.36322">
        <ele>253.925415</ele>
        <time>2012-12-09T15:38:52Z</time>
      </trkpt>
      <trkpt lat="43.51402" lon="6.36313">
        <ele>255.848022</ele>
        <time>2012-12-09T15:39:06Z</time>
      </trkpt>
      <trkpt lat="43.51387" lon="6.36297">
        <ele>258.731934</ele>
        <time>2012-12-09T15:39:24Z</time>
      </trkpt>
      <trkpt lat="43.51386" lon="6.36299">
        <ele>257.290039</ele>
        <time>2012-12-09T15:39:42Z</time>
      </trkpt>
      <trkpt lat="43.51386" lon="6.36309">
        <ele>255.848022</ele>
        <time>2012-12-09T15:40:06Z</time>
      </trkpt>
      <trkpt lat="43.51381" lon="6.36321">
        <ele>254.886597</ele>
        <time>2012-12-09T15:40:21Z</time>
      </trkpt>
      <trkpt lat="43.51373" lon="6.36316">
        <ele>255.848022</ele>
        <time>2012-12-09T15:40:35Z</time>
      </trkpt>
      <trkpt lat="43.51365" lon="6.36315">
        <ele>252.963989</ele>
        <time>2012-12-09T15:40:52Z</time>
      </trkpt>
      <trkpt lat="43.51356" lon="6.36312">
        <ele>252.483398</ele>
        <time>2012-12-09T15:41:06Z</time>
      </trkpt>
      <trkpt lat="43.5135" lon="6.36302">
        <ele>252.963989</ele>
        <time>2012-12-09T15:41:14Z</time>
      </trkpt>
      <trkpt lat="43.51339" lon="6.36288">
        <ele>250.560791</ele>
        <time>2012-12-09T15:41:27Z</time>
      </trkpt>
      <trkpt lat="43.51331" lon="6.36276">
        <ele>250.0802</ele>
        <time>2012-12-09T15:41:37Z</time>
      </trkpt>
      <trkpt lat="43.51326" lon="6.36272">
        <ele>250.560791</ele>
        <time>2012-12-09T15:41:40Z</time>
      </trkpt>
      <trkpt lat="43.51325" lon="6.36267">
        <ele>250.0802</ele>
        <time>2012-12-09T15:41:43Z</time>
      </trkpt>
      <trkpt lat="43.51319" lon="6.36261">
        <ele>250.0802</ele>
        <time>2012-12-09T15:42:01Z</time>
      </trkpt>
      <trkpt lat="43.51319" lon="6.36261">
        <ele>250.0802</ele>
        <time>2012-12-09T15:42:04Z</time>
      </trkpt>
      <trkpt lat="43.51319" lon="6.36261">
        <ele>249.599487</ele>
        <time>2012-12-09T15:42:14Z</time>
      </trkpt>
    </trkseg>
  </trk>
</gpx>